<?xml version="1.0" encoding="UTF-8" standalone="no" ?>
<gpx xmlns="http://www.topografix.com/GPX/1/1" xmlns:xsi="http://www.w3.org/2001/XMLSchema-instance" xsi:schemaLocation="http://www.topografix.com/GPX/1/1 http://www.topografix.com/GPX/1/1/gpx.xsd" version="1.1" creator="VisuGPX - https://www.visugpx.com">
  <metadata>
    <name>SityTrail - Gros chêne, boucle sympa </name>
  </metadata>
  <trk>
    <name><![CDATA[SityTrail - Gros chêne, boucle sympa ]]></name>
    <trkseg>
      <trkpt lat="43.7723" lon="5.30098">
        <ele>257</ele>
        <time>2020-05-31T06:59:59.377Z</time>
      </trkpt>
      <trkpt lat="43.7724" lon="5.30074">
        <ele>259</ele>
        <time>2020-05-31T07:05:30Z</time>
      </trkpt>
      <trkpt lat="43.77243" lon="5.30073">
        <ele>259</ele>
        <time>2020-05-31T07:05:35Z</time>
      </trkpt>
      <trkpt lat="43.77249" lon="5.30062">
        <ele>260</ele>
        <time>2020-05-31T07:05:40Z</time>
      </trkpt>
      <trkpt lat="43.77257" lon="5.30052">
        <ele>260</ele>
        <time>2020-05-31T07:05:45Z</time>
      </trkpt>
      <trkpt lat="43.77263" lon="5.30043">
        <ele>260</ele>
        <time>2020-05-31T07:05:50Z</time>
      </trkpt>
      <trkpt lat="43.77266" lon="5.30037">
        <ele>263</ele>
        <time>2020-05-31T07:05:54Z</time>
      </trkpt>
      <trkpt lat="43.77273" lon="5.30028">
        <ele>263</ele>
        <time>2020-05-31T07:05:59Z</time>
      </trkpt>
      <trkpt lat="43.77281" lon="5.30019">
        <ele>263</ele>
        <time>2020-05-31T07:06:04Z</time>
      </trkpt>
      <trkpt lat="43.77292" lon="5.30009">
        <ele>266</ele>
        <time>2020-05-31T07:06:09Z</time>
      </trkpt>
      <trkpt lat="43.77298" lon="5.30005">
        <ele>264</ele>
        <time>2020-05-31T07:06:13Z</time>
      </trkpt>
      <trkpt lat="43.77307" lon="5.30002">
        <ele>264</ele>
        <time>2020-05-31T07:06:18Z</time>
      </trkpt>
      <trkpt lat="43.77315" lon="5.29998">
        <ele>264</ele>
        <time>2020-05-31T07:06:23Z</time>
      </trkpt>
      <trkpt lat="43.77325" lon="5.29999">
        <ele>266</ele>
        <time>2020-05-31T07:06:28Z</time>
      </trkpt>
      <trkpt lat="43.77333" lon="5.30005">
        <ele>266</ele>
        <time>2020-05-31T07:06:32Z</time>
      </trkpt>
      <trkpt lat="43.77344" lon="5.30016">
        <ele>266</ele>
        <time>2020-05-31T07:06:37Z</time>
      </trkpt>
      <trkpt lat="43.77352" lon="5.30024">
        <ele>266</ele>
        <time>2020-05-31T07:06:42Z</time>
      </trkpt>
      <trkpt lat="43.7736" lon="5.30031">
        <ele>266</ele>
        <time>2020-05-31T07:06:46Z</time>
      </trkpt>
      <trkpt lat="43.77369" lon="5.30038">
        <ele>266</ele>
        <time>2020-05-31T07:06:51Z</time>
      </trkpt>
      <trkpt lat="43.77377" lon="5.30047">
        <ele>265</ele>
        <time>2020-05-31T07:06:56Z</time>
      </trkpt>
      <trkpt lat="43.77384" lon="5.30061">
        <ele>265</ele>
        <time>2020-05-31T07:07:01Z</time>
      </trkpt>
      <trkpt lat="43.77391" lon="5.30075">
        <ele>270</ele>
        <time>2020-05-31T07:07:06Z</time>
      </trkpt>
      <trkpt lat="43.77397" lon="5.30089">
        <ele>270</ele>
        <time>2020-05-31T07:07:11Z</time>
      </trkpt>
      <trkpt lat="43.77403" lon="5.30102">
        <ele>271</ele>
        <time>2020-05-31T07:07:15.999Z</time>
      </trkpt>
      <trkpt lat="43.77408" lon="5.3011">
        <ele>271</ele>
        <time>2020-05-31T07:07:19.999Z</time>
      </trkpt>
      <trkpt lat="43.77414" lon="5.30124">
        <ele>271</ele>
        <time>2020-05-31T07:07:24.999Z</time>
      </trkpt>
      <trkpt lat="43.77423" lon="5.30133">
        <ele>272</ele>
        <time>2020-05-31T07:07:28.999Z</time>
      </trkpt>
      <trkpt lat="43.77429" lon="5.30146">
        <ele>272</ele>
        <time>2020-05-31T07:07:33.999Z</time>
      </trkpt>
      <trkpt lat="43.77433" lon="5.30156">
        <ele>272</ele>
        <time>2020-05-31T07:07:37.999Z</time>
      </trkpt>
      <trkpt lat="43.77439" lon="5.3017">
        <ele>272</ele>
        <time>2020-05-31T07:07:42.999Z</time>
      </trkpt>
      <trkpt lat="43.77445" lon="5.30186">
        <ele>275</ele>
        <time>2020-05-31T07:07:47.999Z</time>
      </trkpt>
      <trkpt lat="43.7745" lon="5.30201">
        <ele>275</ele>
        <time>2020-05-31T07:07:52.999Z</time>
      </trkpt>
      <trkpt lat="43.77455" lon="5.30216">
        <ele>277</ele>
        <time>2020-05-31T07:07:57.999Z</time>
      </trkpt>
      <trkpt lat="43.77464" lon="5.3023">
        <ele>275</ele>
        <time>2020-05-31T07:08:02.999Z</time>
      </trkpt>
      <trkpt lat="43.77468" lon="5.30245">
        <ele>274</ele>
        <time>2020-05-31T07:08:07.999Z</time>
      </trkpt>
      <trkpt lat="43.77465" lon="5.30261">
        <ele>274</ele>
        <time>2020-05-31T07:08:12.999Z</time>
      </trkpt>
      <trkpt lat="43.77463" lon="5.30278">
        <ele>273</ele>
        <time>2020-05-31T07:08:17.999Z</time>
      </trkpt>
      <trkpt lat="43.77462" lon="5.30294">
        <ele>272</ele>
        <time>2020-05-31T07:08:22.999Z</time>
      </trkpt>
      <trkpt lat="43.77461" lon="5.30311">
        <ele>272</ele>
        <time>2020-05-31T07:08:27.999Z</time>
      </trkpt>
      <trkpt lat="43.77462" lon="5.3033">
        <ele>271</ele>
        <time>2020-05-31T07:08:32.999Z</time>
      </trkpt>
      <trkpt lat="43.77466" lon="5.30349">
        <ele>270</ele>
        <time>2020-05-31T07:08:37.999Z</time>
      </trkpt>
      <trkpt lat="43.7747" lon="5.30368">
        <ele>270</ele>
        <time>2020-05-31T07:08:43Z</time>
      </trkpt>
      <trkpt lat="43.77477" lon="5.30384">
        <ele>272</ele>
        <time>2020-05-31T07:08:48Z</time>
      </trkpt>
      <trkpt lat="43.7748" lon="5.30396">
        <ele>272</ele>
        <time>2020-05-31T07:08:52Z</time>
      </trkpt>
      <trkpt lat="43.77487" lon="5.30411">
        <ele>272</ele>
        <time>2020-05-31T07:08:57Z</time>
      </trkpt>
      <trkpt lat="43.77497" lon="5.30422">
        <ele>272</ele>
        <time>2020-05-31T07:09:02Z</time>
      </trkpt>
      <trkpt lat="43.77505" lon="5.30433">
        <ele>279</ele>
        <time>2020-05-31T07:09:07Z</time>
      </trkpt>
      <trkpt lat="43.77511" lon="5.30448">
        <ele>279</ele>
        <time>2020-05-31T07:09:12Z</time>
      </trkpt>
      <trkpt lat="43.77517" lon="5.3046">
        <ele>281</ele>
        <time>2020-05-31T07:09:17Z</time>
      </trkpt>
      <trkpt lat="43.77523" lon="5.30474">
        <ele>281</ele>
        <time>2020-05-31T07:09:22Z</time>
      </trkpt>
      <trkpt lat="43.77531" lon="5.30488">
        <ele>284</ele>
        <time>2020-05-31T07:09:27Z</time>
      </trkpt>
      <trkpt lat="43.77538" lon="5.30501">
        <ele>284</ele>
        <time>2020-05-31T07:09:32Z</time>
      </trkpt>
      <trkpt lat="43.77545" lon="5.30509">
        <ele>274</ele>
        <time>2020-05-31T07:09:36Z</time>
      </trkpt>
      <trkpt lat="43.77555" lon="5.30522">
        <ele>281</ele>
        <time>2020-05-31T07:09:41Z</time>
      </trkpt>
      <trkpt lat="43.77566" lon="5.3053">
        <ele>281</ele>
        <time>2020-05-31T07:09:46Z</time>
      </trkpt>
      <trkpt lat="43.77574" lon="5.30537">
        <ele>277</ele>
        <time>2020-05-31T07:09:51Z</time>
      </trkpt>
      <trkpt lat="43.77586" lon="5.30543">
        <ele>284</ele>
        <time>2020-05-31T07:09:56Z</time>
      </trkpt>
      <trkpt lat="43.77595" lon="5.30551">
        <ele>284</ele>
        <time>2020-05-31T07:10:00Z</time>
      </trkpt>
      <trkpt lat="43.77606" lon="5.30562">
        <ele>282</ele>
        <time>2020-05-31T07:10:05Z</time>
      </trkpt>
      <trkpt lat="43.77617" lon="5.3057">
        <ele>287</ele>
        <time>2020-05-31T07:10:10Z</time>
      </trkpt>
      <trkpt lat="43.77627" lon="5.30577">
        <ele>283</ele>
        <time>2020-05-31T07:10:15Z</time>
      </trkpt>
      <trkpt lat="43.77634" lon="5.30584">
        <ele>283</ele>
        <time>2020-05-31T07:10:19Z</time>
      </trkpt>
      <trkpt lat="43.77642" lon="5.30593">
        <ele>283</ele>
        <time>2020-05-31T07:10:24Z</time>
      </trkpt>
      <trkpt lat="43.77651" lon="5.30598">
        <ele>290</ele>
        <time>2020-05-31T07:10:29Z</time>
      </trkpt>
      <trkpt lat="43.77661" lon="5.30599">
        <ele>286</ele>
        <time>2020-05-31T07:10:34Z</time>
      </trkpt>
      <trkpt lat="43.77675" lon="5.30602">
        <ele>286</ele>
        <time>2020-05-31T07:10:39Z</time>
      </trkpt>
      <trkpt lat="43.77689" lon="5.30603">
        <ele>288</ele>
        <time>2020-05-31T07:10:44Z</time>
      </trkpt>
      <trkpt lat="43.77701" lon="5.30604">
        <ele>288</ele>
        <time>2020-05-31T07:10:49Z</time>
      </trkpt>
      <trkpt lat="43.77711" lon="5.30605">
        <ele>292</ele>
        <time>2020-05-31T07:10:54Z</time>
      </trkpt>
      <trkpt lat="43.77723" lon="5.30608">
        <ele>292</ele>
        <time>2020-05-31T07:10:59Z</time>
      </trkpt>
      <trkpt lat="43.77737" lon="5.30609">
        <ele>293</ele>
        <time>2020-05-31T07:11:04Z</time>
      </trkpt>
      <trkpt lat="43.7775" lon="5.30609">
        <ele>293</ele>
        <time>2020-05-31T07:11:09Z</time>
      </trkpt>
      <trkpt lat="43.77766" lon="5.30611">
        <ele>290</ele>
        <time>2020-05-31T07:11:14Z</time>
      </trkpt>
      <trkpt lat="43.7778" lon="5.30616">
        <ele>290</ele>
        <time>2020-05-31T07:11:19Z</time>
      </trkpt>
      <trkpt lat="43.77793" lon="5.30619">
        <ele>287</ele>
        <time>2020-05-31T07:11:24Z</time>
      </trkpt>
      <trkpt lat="43.77806" lon="5.30626">
        <ele>293</ele>
        <time>2020-05-31T07:11:29Z</time>
      </trkpt>
      <trkpt lat="43.77819" lon="5.30635">
        <ele>293</ele>
        <time>2020-05-31T07:11:34Z</time>
      </trkpt>
      <trkpt lat="43.77832" lon="5.30635">
        <ele>288</ele>
        <time>2020-05-31T07:11:39Z</time>
      </trkpt>
      <trkpt lat="43.77846" lon="5.30621">
        <ele>286</ele>
        <time>2020-05-31T07:11:44Z</time>
      </trkpt>
      <trkpt lat="43.77862" lon="5.30604">
        <ele>286</ele>
        <time>2020-05-31T07:11:49Z</time>
      </trkpt>
      <trkpt lat="43.7788" lon="5.30592">
        <ele>292</ele>
        <time>2020-05-31T07:11:54Z</time>
      </trkpt>
      <trkpt lat="43.77893" lon="5.30587">
        <ele>292</ele>
        <time>2020-05-31T07:11:59Z</time>
      </trkpt>
      <trkpt lat="43.77908" lon="5.30587">
        <ele>294</ele>
        <time>2020-05-31T07:12:04Z</time>
      </trkpt>
      <trkpt lat="43.77917" lon="5.3059">
        <ele>294</ele>
        <time>2020-05-31T07:12:08Z</time>
      </trkpt>
      <trkpt lat="43.77929" lon="5.30603">
        <ele>290</ele>
        <time>2020-05-31T07:12:13Z</time>
      </trkpt>
      <trkpt lat="43.77939" lon="5.30612">
        <ele>295</ele>
        <time>2020-05-31T07:12:17Z</time>
      </trkpt>
      <trkpt lat="43.77951" lon="5.30627">
        <ele>291</ele>
        <time>2020-05-31T07:12:22Z</time>
      </trkpt>
      <trkpt lat="43.77965" lon="5.30636">
        <ele>296</ele>
        <time>2020-05-31T07:12:27Z</time>
      </trkpt>
      <trkpt lat="43.77978" lon="5.30646">
        <ele>296</ele>
        <time>2020-05-31T07:12:32Z</time>
      </trkpt>
      <trkpt lat="43.77992" lon="5.30654">
        <ele>295</ele>
        <time>2020-05-31T07:12:37Z</time>
      </trkpt>
      <trkpt lat="43.78006" lon="5.30663">
        <ele>295</ele>
        <time>2020-05-31T07:12:42Z</time>
      </trkpt>
      <trkpt lat="43.78019" lon="5.30668">
        <ele>299</ele>
        <time>2020-05-31T07:12:47Z</time>
      </trkpt>
      <trkpt lat="43.78028" lon="5.30675">
        <ele>299</ele>
        <time>2020-05-31T07:12:52Z</time>
      </trkpt>
      <trkpt lat="43.78037" lon="5.3068">
        <ele>299</ele>
        <time>2020-05-31T07:12:56Z</time>
      </trkpt>
      <trkpt lat="43.78049" lon="5.30683">
        <ele>302</ele>
        <time>2020-05-31T07:13:01Z</time>
      </trkpt>
      <trkpt lat="43.78061" lon="5.30686">
        <ele>302</ele>
        <time>2020-05-31T07:13:06Z</time>
      </trkpt>
      <trkpt lat="43.78074" lon="5.3069">
        <ele>302</ele>
        <time>2020-05-31T07:13:10Z</time>
      </trkpt>
      <trkpt lat="43.78089" lon="5.30698">
        <ele>302</ele>
        <time>2020-05-31T07:13:15Z</time>
      </trkpt>
      <trkpt lat="43.781" lon="5.3071">
        <ele>308</ele>
        <time>2020-05-31T07:13:20Z</time>
      </trkpt>
      <trkpt lat="43.78109" lon="5.30715">
        <ele>308</ele>
        <time>2020-05-31T07:13:24Z</time>
      </trkpt>
      <trkpt lat="43.78122" lon="5.30722">
        <ele>308</ele>
        <time>2020-05-31T07:13:29Z</time>
      </trkpt>
      <trkpt lat="43.78134" lon="5.30727">
        <ele>310</ele>
        <time>2020-05-31T07:13:34Z</time>
      </trkpt>
      <trkpt lat="43.78149" lon="5.30733">
        <ele>310</ele>
        <time>2020-05-31T07:13:39Z</time>
      </trkpt>
      <trkpt lat="43.78163" lon="5.30739">
        <ele>310</ele>
        <time>2020-05-31T07:13:44Z</time>
      </trkpt>
      <trkpt lat="43.78173" lon="5.30746">
        <ele>310</ele>
        <time>2020-05-31T07:13:49Z</time>
      </trkpt>
      <trkpt lat="43.78181" lon="5.30755">
        <ele>315</ele>
        <time>2020-05-31T07:13:54Z</time>
      </trkpt>
      <trkpt lat="43.78192" lon="5.3076">
        <ele>315</ele>
        <time>2020-05-31T07:13:59Z</time>
      </trkpt>
      <trkpt lat="43.78204" lon="5.3077">
        <ele>315</ele>
        <time>2020-05-31T07:14:04Z</time>
      </trkpt>
      <trkpt lat="43.78215" lon="5.30779">
        <ele>313</ele>
        <time>2020-05-31T07:14:09Z</time>
      </trkpt>
      <trkpt lat="43.78223" lon="5.30782">
        <ele>313</ele>
        <time>2020-05-31T07:14:13Z</time>
      </trkpt>
      <trkpt lat="43.78236" lon="5.30787">
        <ele>311</ele>
        <time>2020-05-31T07:14:18Z</time>
      </trkpt>
      <trkpt lat="43.78249" lon="5.30781">
        <ele>311</ele>
        <time>2020-05-31T07:14:22.999Z</time>
      </trkpt>
      <trkpt lat="43.78261" lon="5.30774">
        <ele>311</ele>
        <time>2020-05-31T07:14:26.999Z</time>
      </trkpt>
      <trkpt lat="43.78272" lon="5.30762">
        <ele>311</ele>
        <time>2020-05-31T07:14:31.999Z</time>
      </trkpt>
      <trkpt lat="43.78277" lon="5.3075">
        <ele>311</ele>
        <time>2020-05-31T07:14:35.999Z</time>
      </trkpt>
      <trkpt lat="43.78285" lon="5.30736">
        <ele>318</ele>
        <time>2020-05-31T07:14:40.999Z</time>
      </trkpt>
      <trkpt lat="43.78291" lon="5.30727">
        <ele>318</ele>
        <time>2020-05-31T07:14:45Z</time>
      </trkpt>
      <trkpt lat="43.78297" lon="5.30716">
        <ele>316</ele>
        <time>2020-05-31T07:14:50Z</time>
      </trkpt>
      <trkpt lat="43.78304" lon="5.30705">
        <ele>318</ele>
        <time>2020-05-31T07:14:55Z</time>
      </trkpt>
      <trkpt lat="43.78316" lon="5.30695">
        <ele>318</ele>
        <time>2020-05-31T07:15:00Z</time>
      </trkpt>
      <trkpt lat="43.78325" lon="5.30688">
        <ele>320</ele>
        <time>2020-05-31T07:15:05Z</time>
      </trkpt>
      <trkpt lat="43.78335" lon="5.30678">
        <ele>321</ele>
        <time>2020-05-31T07:15:10Z</time>
      </trkpt>
      <trkpt lat="43.78346" lon="5.30667">
        <ele>321</ele>
        <time>2020-05-31T07:15:15Z</time>
      </trkpt>
      <trkpt lat="43.78358" lon="5.30659">
        <ele>325</ele>
        <time>2020-05-31T07:15:20Z</time>
      </trkpt>
      <trkpt lat="43.78372" lon="5.30652">
        <ele>330</ele>
        <time>2020-05-31T07:15:25Z</time>
      </trkpt>
      <trkpt lat="43.78383" lon="5.30644">
        <ele>328</ele>
        <time>2020-05-31T07:15:30Z</time>
      </trkpt>
      <trkpt lat="43.78393" lon="5.30638">
        <ele>328</ele>
        <time>2020-05-31T07:15:35Z</time>
      </trkpt>
      <trkpt lat="43.78402" lon="5.30631">
        <ele>328</ele>
        <time>2020-05-31T07:15:40Z</time>
      </trkpt>
      <trkpt lat="43.78413" lon="5.30623">
        <ele>328</ele>
        <time>2020-05-31T07:15:45Z</time>
      </trkpt>
      <trkpt lat="43.78422" lon="5.30611">
        <ele>328</ele>
        <time>2020-05-31T07:15:50Z</time>
      </trkpt>
      <trkpt lat="43.78432" lon="5.306">
        <ele>332</ele>
        <time>2020-05-31T07:15:55Z</time>
      </trkpt>
      <trkpt lat="43.78442" lon="5.30586">
        <ele>332</ele>
        <time>2020-05-31T07:16:00Z</time>
      </trkpt>
      <trkpt lat="43.78446" lon="5.30577">
        <ele>332</ele>
        <time>2020-05-31T07:16:04Z</time>
      </trkpt>
      <trkpt lat="43.78452" lon="5.30567">
        <ele>337</ele>
        <time>2020-05-31T07:16:09Z</time>
      </trkpt>
      <trkpt lat="43.78462" lon="5.30558">
        <ele>331</ele>
        <time>2020-05-31T07:16:14Z</time>
      </trkpt>
      <trkpt lat="43.78472" lon="5.30552">
        <ele>331</ele>
        <time>2020-05-31T07:16:19Z</time>
      </trkpt>
      <trkpt lat="43.78477" lon="5.30547">
        <ele>331</ele>
        <time>2020-05-31T07:16:23Z</time>
      </trkpt>
      <trkpt lat="43.78488" lon="5.30542">
        <ele>333</ele>
        <time>2020-05-31T07:16:28Z</time>
      </trkpt>
      <trkpt lat="43.78495" lon="5.30535">
        <ele>332</ele>
        <time>2020-05-31T07:16:33Z</time>
      </trkpt>
      <trkpt lat="43.78503" lon="5.3053">
        <ele>332</ele>
        <time>2020-05-31T07:16:37Z</time>
      </trkpt>
      <trkpt lat="43.7851" lon="5.3052">
        <ele>332</ele>
        <time>2020-05-31T07:16:42Z</time>
      </trkpt>
      <trkpt lat="43.78513" lon="5.30515">
        <ele>332</ele>
        <time>2020-05-31T07:16:46Z</time>
      </trkpt>
      <trkpt lat="43.78516" lon="5.30505">
        <ele>335</ele>
        <time>2020-05-31T07:16:51Z</time>
      </trkpt>
      <trkpt lat="43.78522" lon="5.30492">
        <ele>335</ele>
        <time>2020-05-31T07:16:55Z</time>
      </trkpt>
      <trkpt lat="43.78526" lon="5.30478">
        <ele>336</ele>
        <time>2020-05-31T07:17:00Z</time>
      </trkpt>
      <trkpt lat="43.78532" lon="5.30464">
        <ele>336</ele>
        <time>2020-05-31T07:17:05Z</time>
      </trkpt>
      <trkpt lat="43.78538" lon="5.30455">
        <ele>340</ele>
        <time>2020-05-31T07:17:09Z</time>
      </trkpt>
      <trkpt lat="43.78546" lon="5.30448">
        <ele>342</ele>
        <time>2020-05-31T07:17:14Z</time>
      </trkpt>
      <trkpt lat="43.78556" lon="5.30444">
        <ele>342</ele>
        <time>2020-05-31T07:17:19Z</time>
      </trkpt>
      <trkpt lat="43.78566" lon="5.3044">
        <ele>342</ele>
        <time>2020-05-31T07:17:24Z</time>
      </trkpt>
      <trkpt lat="43.78574" lon="5.30436">
        <ele>344</ele>
        <time>2020-05-31T07:17:28Z</time>
      </trkpt>
      <trkpt lat="43.78588" lon="5.30436">
        <ele>344</ele>
        <time>2020-05-31T07:17:33Z</time>
      </trkpt>
      <trkpt lat="43.786" lon="5.30439">
        <ele>346</ele>
        <time>2020-05-31T07:17:37Z</time>
      </trkpt>
      <trkpt lat="43.78617" lon="5.30445">
        <ele>346</ele>
        <time>2020-05-31T07:17:42Z</time>
      </trkpt>
      <trkpt lat="43.7863" lon="5.30448">
        <ele>344</ele>
        <time>2020-05-31T07:17:47Z</time>
      </trkpt>
      <trkpt lat="43.78639" lon="5.3045">
        <ele>344</ele>
        <time>2020-05-31T07:17:52Z</time>
      </trkpt>
      <trkpt lat="43.7865" lon="5.30447">
        <ele>344</ele>
        <time>2020-05-31T07:17:57Z</time>
      </trkpt>
      <trkpt lat="43.78657" lon="5.30442">
        <ele>345</ele>
        <time>2020-05-31T07:18:02Z</time>
      </trkpt>
      <trkpt lat="43.78662" lon="5.30437">
        <ele>345</ele>
        <time>2020-05-31T07:18:07Z</time>
      </trkpt>
      <trkpt lat="43.78671" lon="5.30429">
        <ele>345</ele>
        <time>2020-05-31T07:18:12Z</time>
      </trkpt>
      <trkpt lat="43.78676" lon="5.30419">
        <ele>345</ele>
        <time>2020-05-31T07:18:17Z</time>
      </trkpt>
      <trkpt lat="43.78677" lon="5.30412">
        <ele>345</ele>
        <time>2020-05-31T07:18:21Z</time>
      </trkpt>
      <trkpt lat="43.7868" lon="5.30407">
        <ele>345</ele>
        <time>2020-05-31T07:18:25Z</time>
      </trkpt>
      <trkpt lat="43.78681" lon="5.30399">
        <ele>347</ele>
        <time>2020-05-31T07:18:30Z</time>
      </trkpt>
      <trkpt lat="43.78687" lon="5.30393">
        <ele>347</ele>
        <time>2020-05-31T07:18:34Z</time>
      </trkpt>
      <trkpt lat="43.78688" lon="5.30377">
        <ele>347</ele>
        <time>2020-05-31T07:18:39Z</time>
      </trkpt>
      <trkpt lat="43.78689" lon="5.30364">
        <ele>349</ele>
        <time>2020-05-31T07:18:44Z</time>
      </trkpt>
      <trkpt lat="43.78685" lon="5.30348">
        <ele>349</ele>
        <time>2020-05-31T07:18:49Z</time>
      </trkpt>
      <trkpt lat="43.7868" lon="5.3033">
        <ele>350</ele>
        <time>2020-05-31T07:18:54Z</time>
      </trkpt>
      <trkpt lat="43.78675" lon="5.30317">
        <ele>350</ele>
        <time>2020-05-31T07:18:59Z</time>
      </trkpt>
      <trkpt lat="43.7867" lon="5.30306">
        <ele>350</ele>
        <time>2020-05-31T07:19:04Z</time>
      </trkpt>
      <trkpt lat="43.78669" lon="5.3029">
        <ele>351</ele>
        <time>2020-05-31T07:19:09Z</time>
      </trkpt>
      <trkpt lat="43.78669" lon="5.30272">
        <ele>351</ele>
        <time>2020-05-31T07:19:14Z</time>
      </trkpt>
      <trkpt lat="43.78674" lon="5.30263">
        <ele>355</ele>
        <time>2020-05-31T07:19:19Z</time>
      </trkpt>
      <trkpt lat="43.78682" lon="5.30253">
        <ele>356</ele>
        <time>2020-05-31T07:19:24Z</time>
      </trkpt>
      <trkpt lat="43.78689" lon="5.30244">
        <ele>356</ele>
        <time>2020-05-31T07:19:28Z</time>
      </trkpt>
      <trkpt lat="43.78697" lon="5.30233">
        <ele>359</ele>
        <time>2020-05-31T07:19:33Z</time>
      </trkpt>
      <trkpt lat="43.78702" lon="5.30225">
        <ele>359</ele>
        <time>2020-05-31T07:19:37Z</time>
      </trkpt>
      <trkpt lat="43.78712" lon="5.30215">
        <ele>361</ele>
        <time>2020-05-31T07:19:42Z</time>
      </trkpt>
      <trkpt lat="43.78716" lon="5.30203">
        <ele>363</ele>
        <time>2020-05-31T07:19:47Z</time>
      </trkpt>
      <trkpt lat="43.78725" lon="5.3019">
        <ele>363</ele>
        <time>2020-05-31T07:19:52.001Z</time>
      </trkpt>
      <trkpt lat="43.78731" lon="5.30179">
        <ele>365</ele>
        <time>2020-05-31T07:19:56.001Z</time>
      </trkpt>
      <trkpt lat="43.78735" lon="5.30161">
        <ele>365</ele>
        <time>2020-05-31T07:20:01.001Z</time>
      </trkpt>
      <trkpt lat="43.78742" lon="5.30148">
        <ele>366</ele>
        <time>2020-05-31T07:20:06.001Z</time>
      </trkpt>
      <trkpt lat="43.78751" lon="5.30138">
        <ele>366</ele>
        <time>2020-05-31T07:20:11.001Z</time>
      </trkpt>
      <trkpt lat="43.78763" lon="5.30126">
        <ele>366</ele>
        <time>2020-05-31T07:20:16.001Z</time>
      </trkpt>
      <trkpt lat="43.7877" lon="5.30117">
        <ele>368</ele>
        <time>2020-05-31T07:20:20.001Z</time>
      </trkpt>
      <trkpt lat="43.7878" lon="5.30109">
        <ele>368</ele>
        <time>2020-05-31T07:20:25.001Z</time>
      </trkpt>
      <trkpt lat="43.78791" lon="5.30102">
        <ele>368</ele>
        <time>2020-05-31T07:20:30.001Z</time>
      </trkpt>
      <trkpt lat="43.788" lon="5.30099">
        <ele>364</ele>
        <time>2020-05-31T07:20:34.001Z</time>
      </trkpt>
      <trkpt lat="43.78809" lon="5.30099">
        <ele>364</ele>
        <time>2020-05-31T07:20:39.001Z</time>
      </trkpt>
      <trkpt lat="43.78817" lon="5.30098">
        <ele>364</ele>
        <time>2020-05-31T07:20:44.001Z</time>
      </trkpt>
      <trkpt lat="43.78829" lon="5.30097">
        <ele>368</ele>
        <time>2020-05-31T07:20:48.001Z</time>
      </trkpt>
      <trkpt lat="43.78841" lon="5.30091">
        <ele>368</ele>
        <time>2020-05-31T07:20:53.001Z</time>
      </trkpt>
      <trkpt lat="43.78852" lon="5.30087">
        <ele>369</ele>
        <time>2020-05-31T07:20:58.001Z</time>
      </trkpt>
      <trkpt lat="43.78858" lon="5.30082">
        <ele>369</ele>
        <time>2020-05-31T07:21:02.001Z</time>
      </trkpt>
      <trkpt lat="43.78866" lon="5.30076">
        <ele>369</ele>
        <time>2020-05-31T07:21:07.001Z</time>
      </trkpt>
      <trkpt lat="43.78874" lon="5.30066">
        <ele>371</ele>
        <time>2020-05-31T07:21:12.001Z</time>
      </trkpt>
      <trkpt lat="43.78881" lon="5.30058">
        <ele>369</ele>
        <time>2020-05-31T07:21:17.001Z</time>
      </trkpt>
      <trkpt lat="43.78888" lon="5.30054">
        <ele>369</ele>
        <time>2020-05-31T07:21:21.001Z</time>
      </trkpt>
      <trkpt lat="43.78896" lon="5.3005">
        <ele>369</ele>
        <time>2020-05-31T07:21:26.001Z</time>
      </trkpt>
      <trkpt lat="43.78905" lon="5.30049">
        <ele>370</ele>
        <time>2020-05-31T07:21:31Z</time>
      </trkpt>
      <trkpt lat="43.78915" lon="5.30052">
        <ele>370</ele>
        <time>2020-05-31T07:21:36Z</time>
      </trkpt>
      <trkpt lat="43.78924" lon="5.30059">
        <ele>370</ele>
        <time>2020-05-31T07:21:40Z</time>
      </trkpt>
      <trkpt lat="43.78931" lon="5.30065">
        <ele>375</ele>
        <time>2020-05-31T07:21:45Z</time>
      </trkpt>
      <trkpt lat="43.78937" lon="5.30072">
        <ele>376</ele>
        <time>2020-05-31T07:21:49Z</time>
      </trkpt>
      <trkpt lat="43.78951" lon="5.30077">
        <ele>376</ele>
        <time>2020-05-31T07:21:54Z</time>
      </trkpt>
      <trkpt lat="43.78962" lon="5.3008">
        <ele>378</ele>
        <time>2020-05-31T07:21:59Z</time>
      </trkpt>
      <trkpt lat="43.78969" lon="5.30085">
        <ele>378</ele>
        <time>2020-05-31T07:22:03Z</time>
      </trkpt>
      <trkpt lat="43.78976" lon="5.30093">
        <ele>378</ele>
        <time>2020-05-31T07:22:08Z</time>
      </trkpt>
      <trkpt lat="43.78986" lon="5.30096">
        <ele>378</ele>
        <time>2020-05-31T07:22:12Z</time>
      </trkpt>
      <trkpt lat="43.78994" lon="5.30097">
        <ele>379</ele>
        <time>2020-05-31T07:22:17Z</time>
      </trkpt>
      <trkpt lat="43.79008" lon="5.30094">
        <ele>378</ele>
        <time>2020-05-31T07:22:22Z</time>
      </trkpt>
      <trkpt lat="43.79014" lon="5.30096">
        <ele>379</ele>
        <time>2020-05-31T07:22:26Z</time>
      </trkpt>
      <trkpt lat="43.79031" lon="5.30101">
        <ele>378</ele>
        <time>2020-05-31T07:22:31Z</time>
      </trkpt>
      <trkpt lat="43.79051" lon="5.30108">
        <ele>383</ele>
        <time>2020-05-31T07:22:36Z</time>
      </trkpt>
      <trkpt lat="43.79064" lon="5.30105">
        <ele>383</ele>
        <time>2020-05-31T07:22:40Z</time>
      </trkpt>
      <trkpt lat="43.79076" lon="5.30105">
        <ele>384</ele>
        <time>2020-05-31T07:22:45Z</time>
      </trkpt>
      <trkpt lat="43.7909" lon="5.30109">
        <ele>384</ele>
        <time>2020-05-31T07:22:50Z</time>
      </trkpt>
      <trkpt lat="43.79103" lon="5.30113">
        <ele>383</ele>
        <time>2020-05-31T07:22:55Z</time>
      </trkpt>
      <trkpt lat="43.79112" lon="5.30114">
        <ele>383</ele>
        <time>2020-05-31T07:22:59Z</time>
      </trkpt>
      <trkpt lat="43.7912" lon="5.30113">
        <ele>383</ele>
        <time>2020-05-31T07:23:03Z</time>
      </trkpt>
      <trkpt lat="43.79131" lon="5.30113">
        <ele>382</ele>
        <time>2020-05-31T07:23:08Z</time>
      </trkpt>
      <trkpt lat="43.79143" lon="5.30114">
        <ele>382</ele>
        <time>2020-05-31T07:23:13Z</time>
      </trkpt>
      <trkpt lat="43.79156" lon="5.30114">
        <ele>386</ele>
        <time>2020-05-31T07:23:17Z</time>
      </trkpt>
      <trkpt lat="43.7917" lon="5.30113">
        <ele>386</ele>
        <time>2020-05-31T07:23:22Z</time>
      </trkpt>
      <trkpt lat="43.79181" lon="5.30118">
        <ele>386</ele>
        <time>2020-05-31T07:23:27Z</time>
      </trkpt>
      <trkpt lat="43.79194" lon="5.30126">
        <ele>390</ele>
        <time>2020-05-31T07:23:32Z</time>
      </trkpt>
      <trkpt lat="43.79202" lon="5.30136">
        <ele>390</ele>
        <time>2020-05-31T07:23:37Z</time>
      </trkpt>
      <trkpt lat="43.7921" lon="5.30142">
        <ele>389</ele>
        <time>2020-05-31T07:23:42Z</time>
      </trkpt>
      <trkpt lat="43.79223" lon="5.30148">
        <ele>389</ele>
        <time>2020-05-31T07:23:47Z</time>
      </trkpt>
      <trkpt lat="43.79234" lon="5.30156">
        <ele>392</ele>
        <time>2020-05-31T07:23:52Z</time>
      </trkpt>
      <trkpt lat="43.79245" lon="5.3016">
        <ele>390</ele>
        <time>2020-05-31T07:23:57Z</time>
      </trkpt>
      <trkpt lat="43.79256" lon="5.30164">
        <ele>390</ele>
        <time>2020-05-31T07:24:02Z</time>
      </trkpt>
      <trkpt lat="43.79267" lon="5.30162">
        <ele>391</ele>
        <time>2020-05-31T07:24:07Z</time>
      </trkpt>
      <trkpt lat="43.79277" lon="5.30162">
        <ele>391</ele>
        <time>2020-05-31T07:24:11Z</time>
      </trkpt>
      <trkpt lat="43.79284" lon="5.30154">
        <ele>391</ele>
        <time>2020-05-31T07:24:16Z</time>
      </trkpt>
      <trkpt lat="43.79291" lon="5.30151">
        <ele>390</ele>
        <time>2020-05-31T07:24:21Z</time>
      </trkpt>
      <trkpt lat="43.79299" lon="5.30152">
        <ele>397</ele>
        <time>2020-05-31T07:24:26Z</time>
      </trkpt>
      <trkpt lat="43.79308" lon="5.30155">
        <ele>396</ele>
        <time>2020-05-31T07:24:30Z</time>
      </trkpt>
      <trkpt lat="43.79316" lon="5.30154">
        <ele>396</ele>
        <time>2020-05-31T07:24:35Z</time>
      </trkpt>
      <trkpt lat="43.79324" lon="5.30143">
        <ele>404</ele>
        <time>2020-05-31T07:24:40Z</time>
      </trkpt>
      <trkpt lat="43.7933" lon="5.30139">
        <ele>404</ele>
        <time>2020-05-31T07:24:45Z</time>
      </trkpt>
      <trkpt lat="43.79334" lon="5.30135">
        <ele>404</ele>
        <time>2020-05-31T07:24:50Z</time>
      </trkpt>
      <trkpt lat="43.79337" lon="5.30129">
        <ele>404</ele>
        <time>2020-05-31T07:24:55Z</time>
      </trkpt>
      <trkpt lat="43.79339" lon="5.30122">
        <ele>409</ele>
        <time>2020-05-31T07:25:00Z</time>
      </trkpt>
      <trkpt lat="43.79344" lon="5.30118">
        <ele>409</ele>
        <time>2020-05-31T07:25:05Z</time>
      </trkpt>
      <trkpt lat="43.79349" lon="5.30118">
        <ele>409</ele>
        <time>2020-05-31T07:25:10Z</time>
      </trkpt>
      <trkpt lat="43.79355" lon="5.30114">
        <ele>409</ele>
        <time>2020-05-31T07:25:15Z</time>
      </trkpt>
      <trkpt lat="43.79359" lon="5.30112">
        <ele>409</ele>
        <time>2020-05-31T07:25:20Z</time>
      </trkpt>
      <trkpt lat="43.79364" lon="5.3011">
        <ele>409</ele>
        <time>2020-05-31T07:25:25Z</time>
      </trkpt>
      <trkpt lat="43.7937" lon="5.30109">
        <ele>409</ele>
        <time>2020-05-31T07:25:30Z</time>
      </trkpt>
      <trkpt lat="43.79375" lon="5.30106">
        <ele>409</ele>
        <time>2020-05-31T07:25:35Z</time>
      </trkpt>
      <trkpt lat="43.79378" lon="5.30104">
        <ele>412</ele>
        <time>2020-05-31T07:25:40Z</time>
      </trkpt>
      <trkpt lat="43.79383" lon="5.30101">
        <ele>412</ele>
        <time>2020-05-31T07:25:45Z</time>
      </trkpt>
      <trkpt lat="43.79391" lon="5.30098">
        <ele>412</ele>
        <time>2020-05-31T07:25:50Z</time>
      </trkpt>
      <trkpt lat="43.79398" lon="5.30097">
        <ele>415</ele>
        <time>2020-05-31T07:25:55Z</time>
      </trkpt>
      <trkpt lat="43.79401" lon="5.30102">
        <ele>412</ele>
        <time>2020-05-31T07:26:00Z</time>
      </trkpt>
      <trkpt lat="43.79406" lon="5.30102">
        <ele>413</ele>
        <time>2020-05-31T07:26:05Z</time>
      </trkpt>
      <trkpt lat="43.7941" lon="5.30103">
        <ele>413</ele>
        <time>2020-05-31T07:26:10Z</time>
      </trkpt>
      <trkpt lat="43.79413" lon="5.30102">
        <ele>413</ele>
        <time>2020-05-31T07:26:15Z</time>
      </trkpt>
      <trkpt lat="43.79417" lon="5.30104">
        <ele>413</ele>
        <time>2020-05-31T07:26:20.001Z</time>
      </trkpt>
      <trkpt lat="43.79419" lon="5.30103">
        <ele>413</ele>
        <time>2020-05-31T07:26:25.001Z</time>
      </trkpt>
      <trkpt lat="43.79423" lon="5.301">
        <ele>413</ele>
        <time>2020-05-31T07:26:30.001Z</time>
      </trkpt>
      <trkpt lat="43.79427" lon="5.301">
        <ele>413</ele>
        <time>2020-05-31T07:26:35.001Z</time>
      </trkpt>
      <trkpt lat="43.79432" lon="5.30096">
        <ele>434</ele>
        <time>2020-05-31T07:26:40.001Z</time>
      </trkpt>
      <trkpt lat="43.79433" lon="5.30093">
        <ele>434</ele>
        <time>2020-05-31T07:26:45.001Z</time>
      </trkpt>
      <trkpt lat="43.79433" lon="5.3009">
        <ele>434</ele>
        <time>2020-05-31T07:26:50.001Z</time>
      </trkpt>
      <trkpt lat="43.79431" lon="5.30084">
        <ele>434</ele>
        <time>2020-05-31T07:26:55.001Z</time>
      </trkpt>
      <trkpt lat="43.79429" lon="5.30081">
        <ele>418</ele>
        <time>2020-05-31T07:27:00.001Z</time>
      </trkpt>
      <trkpt lat="43.79428" lon="5.30077">
        <ele>418</ele>
        <time>2020-05-31T07:27:10.001Z</time>
      </trkpt>
      <trkpt lat="43.79427" lon="5.30077">
        <ele>418</ele>
        <time>2020-05-31T07:27:15.001Z</time>
      </trkpt>
      <trkpt lat="43.79425" lon="5.30075">
        <ele>418</ele>
        <time>2020-05-31T07:27:20.001Z</time>
      </trkpt>
      <trkpt lat="43.79422" lon="5.30074">
        <ele>418</ele>
        <time>2020-05-31T07:27:25.001Z</time>
      </trkpt>
      <trkpt lat="43.79415" lon="5.30071">
        <ele>418</ele>
        <time>2020-05-31T07:27:30.001Z</time>
      </trkpt>
      <trkpt lat="43.79412" lon="5.30069">
        <ele>429</ele>
        <time>2020-05-31T07:27:35.001Z</time>
      </trkpt>
      <trkpt lat="43.79409" lon="5.30069">
        <ele>429</ele>
        <time>2020-05-31T07:27:40.001Z</time>
      </trkpt>
      <trkpt lat="43.79407" lon="5.30069">
        <ele>429</ele>
        <time>2020-05-31T07:27:45.001Z</time>
      </trkpt>
      <trkpt lat="43.79404" lon="5.30068">
        <ele>429</ele>
        <time>2020-05-31T07:27:50.001Z</time>
      </trkpt>
      <trkpt lat="43.79398" lon="5.30066">
        <ele>427</ele>
        <time>2020-05-31T07:27:55.001Z</time>
      </trkpt>
      <trkpt lat="43.79397" lon="5.30069">
        <ele>427</ele>
        <time>2020-05-31T07:28:00.001Z</time>
      </trkpt>
      <trkpt lat="43.79397" lon="5.30068">
        <ele>427</ele>
        <time>2020-05-31T07:28:05.001Z</time>
      </trkpt>
      <trkpt lat="43.79394" lon="5.30065">
        <ele>427</ele>
        <time>2020-05-31T07:28:10.001Z</time>
      </trkpt>
      <trkpt lat="43.7939" lon="5.30059">
        <ele>427</ele>
        <time>2020-05-31T07:28:15.001Z</time>
      </trkpt>
      <trkpt lat="43.79387" lon="5.30055">
        <ele>427</ele>
        <time>2020-05-31T07:28:20.001Z</time>
      </trkpt>
      <trkpt lat="43.79381" lon="5.3005">
        <ele>427</ele>
        <time>2020-05-31T07:28:25.001Z</time>
      </trkpt>
      <trkpt lat="43.79375" lon="5.30047">
        <ele>427</ele>
        <time>2020-05-31T07:28:30.001Z</time>
      </trkpt>
      <trkpt lat="43.79369" lon="5.30048">
        <ele>429</ele>
        <time>2020-05-31T07:28:35Z</time>
      </trkpt>
      <trkpt lat="43.79363" lon="5.30037">
        <ele>439</ele>
        <time>2020-05-31T07:29:00Z</time>
      </trkpt>
      <trkpt lat="43.79367" lon="5.30032">
        <ele>439</ele>
        <time>2020-05-31T07:29:05Z</time>
      </trkpt>
      <trkpt lat="43.79375" lon="5.30032">
        <ele>437</ele>
        <time>2020-05-31T07:29:10Z</time>
      </trkpt>
      <trkpt lat="43.79383" lon="5.30029">
        <ele>437</ele>
        <time>2020-05-31T07:29:15Z</time>
      </trkpt>
      <trkpt lat="43.7939" lon="5.30028">
        <ele>437</ele>
        <time>2020-05-31T07:29:20Z</time>
      </trkpt>
      <trkpt lat="43.79396" lon="5.30028">
        <ele>437</ele>
        <time>2020-05-31T07:29:25Z</time>
      </trkpt>
      <trkpt lat="43.79401" lon="5.30029">
        <ele>437</ele>
        <time>2020-05-31T07:29:30Z</time>
      </trkpt>
      <trkpt lat="43.79407" lon="5.30029">
        <ele>441</ele>
        <time>2020-05-31T07:29:35Z</time>
      </trkpt>
      <trkpt lat="43.79414" lon="5.30029">
        <ele>441</ele>
        <time>2020-05-31T07:29:40Z</time>
      </trkpt>
      <trkpt lat="43.79421" lon="5.30028">
        <ele>441</ele>
        <time>2020-05-31T07:29:45Z</time>
      </trkpt>
      <trkpt lat="43.79427" lon="5.30033">
        <ele>441</ele>
        <time>2020-05-31T07:29:50Z</time>
      </trkpt>
      <trkpt lat="43.79432" lon="5.30039">
        <ele>447</ele>
        <time>2020-05-31T07:29:53.999Z</time>
      </trkpt>
      <trkpt lat="43.79436" lon="5.3005">
        <ele>440</ele>
        <time>2020-05-31T07:29:58.999Z</time>
      </trkpt>
      <trkpt lat="43.79442" lon="5.30058">
        <ele>440</ele>
        <time>2020-05-31T07:30:03.999Z</time>
      </trkpt>
      <trkpt lat="43.79449" lon="5.30063">
        <ele>440</ele>
        <time>2020-05-31T07:30:08.999Z</time>
      </trkpt>
      <trkpt lat="43.7946" lon="5.3007">
        <ele>444</ele>
        <time>2020-05-31T07:30:13.999Z</time>
      </trkpt>
      <trkpt lat="43.79468" lon="5.30069">
        <ele>445</ele>
        <time>2020-05-31T07:30:18.999Z</time>
      </trkpt>
      <trkpt lat="43.79472" lon="5.30072">
        <ele>444</ele>
        <time>2020-05-31T07:31:16.999Z</time>
      </trkpt>
      <trkpt lat="43.79477" lon="5.3006">
        <ele>445</ele>
        <time>2020-05-31T07:31:20.999Z</time>
      </trkpt>
      <trkpt lat="43.79485" lon="5.30045">
        <ele>445</ele>
        <time>2020-05-31T07:31:25.999Z</time>
      </trkpt>
      <trkpt lat="43.79495" lon="5.30038">
        <ele>450</ele>
        <time>2020-05-31T07:31:31Z</time>
      </trkpt>
      <trkpt lat="43.79501" lon="5.30036">
        <ele>450</ele>
        <time>2020-05-31T07:31:36Z</time>
      </trkpt>
      <trkpt lat="43.79506" lon="5.30035">
        <ele>450</ele>
        <time>2020-05-31T07:31:40Z</time>
      </trkpt>
      <trkpt lat="43.79514" lon="5.30037">
        <ele>450</ele>
        <time>2020-05-31T07:31:45Z</time>
      </trkpt>
      <trkpt lat="43.79519" lon="5.30048">
        <ele>450</ele>
        <time>2020-05-31T07:31:50Z</time>
      </trkpt>
      <trkpt lat="43.79524" lon="5.30065">
        <ele>450</ele>
        <time>2020-05-31T07:31:55Z</time>
      </trkpt>
      <trkpt lat="43.79525" lon="5.30074">
        <ele>452</ele>
        <time>2020-05-31T07:32:00Z</time>
      </trkpt>
      <trkpt lat="43.79528" lon="5.30083">
        <ele>452</ele>
        <time>2020-05-31T07:32:05Z</time>
      </trkpt>
      <trkpt lat="43.79532" lon="5.30093">
        <ele>452</ele>
        <time>2020-05-31T07:32:10Z</time>
      </trkpt>
      <trkpt lat="43.7954" lon="5.30096">
        <ele>452</ele>
        <time>2020-05-31T07:32:15Z</time>
      </trkpt>
      <trkpt lat="43.79549" lon="5.30095">
        <ele>456</ele>
        <time>2020-05-31T07:32:19Z</time>
      </trkpt>
      <trkpt lat="43.7956" lon="5.30094">
        <ele>456</ele>
        <time>2020-05-31T07:32:24Z</time>
      </trkpt>
      <trkpt lat="43.79569" lon="5.30085">
        <ele>456</ele>
        <time>2020-05-31T07:32:29Z</time>
      </trkpt>
      <trkpt lat="43.79577" lon="5.30076">
        <ele>462</ele>
        <time>2020-05-31T07:32:34Z</time>
      </trkpt>
      <trkpt lat="43.79584" lon="5.30069">
        <ele>461</ele>
        <time>2020-05-31T07:32:39Z</time>
      </trkpt>
      <trkpt lat="43.7959" lon="5.30064">
        <ele>461</ele>
        <time>2020-05-31T07:32:44Z</time>
      </trkpt>
      <trkpt lat="43.79596" lon="5.30061">
        <ele>461</ele>
        <time>2020-05-31T07:32:49Z</time>
      </trkpt>
      <trkpt lat="43.79603" lon="5.30055">
        <ele>464</ele>
        <time>2020-05-31T07:32:54Z</time>
      </trkpt>
      <trkpt lat="43.79609" lon="5.30049">
        <ele>464</ele>
        <time>2020-05-31T07:32:59Z</time>
      </trkpt>
      <trkpt lat="43.79616" lon="5.30045">
        <ele>464</ele>
        <time>2020-05-31T07:33:04Z</time>
      </trkpt>
      <trkpt lat="43.7962" lon="5.30044">
        <ele>464</ele>
        <time>2020-05-31T07:33:09Z</time>
      </trkpt>
      <trkpt lat="43.79627" lon="5.3004">
        <ele>470</ele>
        <time>2020-05-31T07:33:14Z</time>
      </trkpt>
      <trkpt lat="43.79636" lon="5.30038">
        <ele>470</ele>
        <time>2020-05-31T07:33:19Z</time>
      </trkpt>
      <trkpt lat="43.79643" lon="5.30037">
        <ele>470</ele>
        <time>2020-05-31T07:33:24Z</time>
      </trkpt>
      <trkpt lat="43.7965" lon="5.30037">
        <ele>470</ele>
        <time>2020-05-31T07:33:29Z</time>
      </trkpt>
      <trkpt lat="43.79656" lon="5.30041">
        <ele>479</ele>
        <time>2020-05-31T07:33:34Z</time>
      </trkpt>
      <trkpt lat="43.79662" lon="5.30046">
        <ele>470</ele>
        <time>2020-05-31T07:33:39Z</time>
      </trkpt>
      <trkpt lat="43.79667" lon="5.30055">
        <ele>470</ele>
        <time>2020-05-31T07:33:44Z</time>
      </trkpt>
      <trkpt lat="43.7967" lon="5.30065">
        <ele>470</ele>
        <time>2020-05-31T07:33:48Z</time>
      </trkpt>
      <trkpt lat="43.79673" lon="5.30079">
        <ele>468</ele>
        <time>2020-05-31T07:33:53Z</time>
      </trkpt>
      <trkpt lat="43.79676" lon="5.30091">
        <ele>468</ele>
        <time>2020-05-31T07:33:58Z</time>
      </trkpt>
      <trkpt lat="43.79682" lon="5.30102">
        <ele>474</ele>
        <time>2020-05-31T07:34:03Z</time>
      </trkpt>
      <trkpt lat="43.79689" lon="5.30108">
        <ele>474</ele>
        <time>2020-05-31T07:34:08Z</time>
      </trkpt>
      <trkpt lat="43.797" lon="5.30113">
        <ele>474</ele>
        <time>2020-05-31T07:34:13Z</time>
      </trkpt>
      <trkpt lat="43.79711" lon="5.30116">
        <ele>478</ele>
        <time>2020-05-31T07:34:18Z</time>
      </trkpt>
      <trkpt lat="43.79719" lon="5.30118">
        <ele>478</ele>
        <time>2020-05-31T07:34:23Z</time>
      </trkpt>
      <trkpt lat="43.79727" lon="5.30119">
        <ele>478</ele>
        <time>2020-05-31T07:34:27Z</time>
      </trkpt>
      <trkpt lat="43.79736" lon="5.3012">
        <ele>478</ele>
        <time>2020-05-31T07:34:32Z</time>
      </trkpt>
      <trkpt lat="43.79748" lon="5.30125">
        <ele>484</ele>
        <time>2020-05-31T07:34:37Z</time>
      </trkpt>
      <trkpt lat="43.79758" lon="5.30129">
        <ele>483</ele>
        <time>2020-05-31T07:34:42Z</time>
      </trkpt>
      <trkpt lat="43.7977" lon="5.30131">
        <ele>484</ele>
        <time>2020-05-31T07:34:47Z</time>
      </trkpt>
      <trkpt lat="43.79781" lon="5.30132">
        <ele>484</ele>
        <time>2020-05-31T07:34:52Z</time>
      </trkpt>
      <trkpt lat="43.79789" lon="5.30135">
        <ele>484</ele>
        <time>2020-05-31T07:34:57Z</time>
      </trkpt>
      <trkpt lat="43.79799" lon="5.30137">
        <ele>484</ele>
        <time>2020-05-31T07:35:02Z</time>
      </trkpt>
      <trkpt lat="43.79807" lon="5.30133">
        <ele>484</ele>
        <time>2020-05-31T07:35:06Z</time>
      </trkpt>
      <trkpt lat="43.79819" lon="5.30128">
        <ele>484</ele>
        <time>2020-05-31T07:35:11Z</time>
      </trkpt>
      <trkpt lat="43.79828" lon="5.30123">
        <ele>488</ele>
        <time>2020-05-31T07:35:16Z</time>
      </trkpt>
      <trkpt lat="43.79835" lon="5.30118">
        <ele>488</ele>
        <time>2020-05-31T07:35:21Z</time>
      </trkpt>
      <trkpt lat="43.79841" lon="5.30113">
        <ele>488</ele>
        <time>2020-05-31T07:35:26Z</time>
      </trkpt>
      <trkpt lat="43.79847" lon="5.30106">
        <ele>488</ele>
        <time>2020-05-31T07:35:31Z</time>
      </trkpt>
      <trkpt lat="43.79855" lon="5.30096">
        <ele>490</ele>
        <time>2020-05-31T07:35:36Z</time>
      </trkpt>
      <trkpt lat="43.79859" lon="5.30086">
        <ele>490</ele>
        <time>2020-05-31T07:35:39.999Z</time>
      </trkpt>
      <trkpt lat="43.79863" lon="5.30075">
        <ele>490</ele>
        <time>2020-05-31T07:35:44.999Z</time>
      </trkpt>
      <trkpt lat="43.79867" lon="5.30064">
        <ele>491</ele>
        <time>2020-05-31T07:35:48.999Z</time>
      </trkpt>
      <trkpt lat="43.79876" lon="5.30049">
        <ele>493</ele>
        <time>2020-05-31T07:36:33.999Z</time>
      </trkpt>
      <trkpt lat="43.79876" lon="5.30049">
        <ele>493</ele>
        <time>2020-05-31T07:36:38.999Z</time>
      </trkpt>
      <trkpt lat="43.79877" lon="5.30049">
        <ele>493</ele>
        <time>2020-05-31T07:36:43.999Z</time>
      </trkpt>
      <trkpt lat="43.79876" lon="5.30048">
        <ele>493</ele>
        <time>2020-05-31T07:36:48.999Z</time>
      </trkpt>
      <trkpt lat="43.79878" lon="5.30045">
        <ele>493</ele>
        <time>2020-05-31T07:36:53.999Z</time>
      </trkpt>
      <trkpt lat="43.79877" lon="5.30052">
        <ele>493</ele>
        <time>2020-05-31T07:38:22Z</time>
      </trkpt>
      <trkpt lat="43.79878" lon="5.30053">
        <ele>493</ele>
        <time>2020-05-31T07:38:27Z</time>
      </trkpt>
      <trkpt lat="43.79878" lon="5.30053">
        <ele>493</ele>
        <time>2020-05-31T07:38:31Z</time>
      </trkpt>
      <trkpt lat="43.79879" lon="5.30055">
        <ele>493</ele>
        <time>2020-05-31T07:38:36Z</time>
      </trkpt>
      <trkpt lat="43.79881" lon="5.30057">
        <ele>493</ele>
        <time>2020-05-31T07:38:41Z</time>
      </trkpt>
      <trkpt lat="43.79879" lon="5.30051">
        <ele>493</ele>
        <time>2020-05-31T07:39:20Z</time>
      </trkpt>
      <trkpt lat="43.79879" lon="5.30046">
        <ele>493</ele>
        <time>2020-05-31T07:39:25Z</time>
      </trkpt>
      <trkpt lat="43.79878" lon="5.30046">
        <ele>493</ele>
        <time>2020-05-31T07:39:30Z</time>
      </trkpt>
      <trkpt lat="43.79879" lon="5.30044">
        <ele>493</ele>
        <time>2020-05-31T07:39:35Z</time>
      </trkpt>
      <trkpt lat="43.79879" lon="5.30042">
        <ele>493</ele>
        <time>2020-05-31T07:39:40Z</time>
      </trkpt>
      <trkpt lat="43.79878" lon="5.3004">
        <ele>493</ele>
        <time>2020-05-31T07:40:00Z</time>
      </trkpt>
      <trkpt lat="43.79878" lon="5.3004">
        <ele>493</ele>
        <time>2020-05-31T07:40:05Z</time>
      </trkpt>
      <trkpt lat="43.79882" lon="5.30045">
        <ele>493</ele>
        <time>2020-05-31T07:40:10Z</time>
      </trkpt>
      <trkpt lat="43.79884" lon="5.30041">
        <ele>493</ele>
        <time>2020-05-31T07:40:14Z</time>
      </trkpt>
      <trkpt lat="43.79889" lon="5.30037">
        <ele>493</ele>
        <time>2020-05-31T07:40:19Z</time>
      </trkpt>
      <trkpt lat="43.79892" lon="5.30031">
        <ele>493</ele>
        <time>2020-05-31T07:40:24Z</time>
      </trkpt>
      <trkpt lat="43.79895" lon="5.30026">
        <ele>493</ele>
        <time>2020-05-31T07:40:28Z</time>
      </trkpt>
      <trkpt lat="43.79903" lon="5.30019">
        <ele>499</ele>
        <time>2020-05-31T07:40:33Z</time>
      </trkpt>
      <trkpt lat="43.79909" lon="5.30012">
        <ele>496</ele>
        <time>2020-05-31T07:40:38Z</time>
      </trkpt>
      <trkpt lat="43.79916" lon="5.30003">
        <ele>496</ele>
        <time>2020-05-31T07:40:43Z</time>
      </trkpt>
      <trkpt lat="43.79921" lon="5.29994">
        <ele>496</ele>
        <time>2020-05-31T07:40:48Z</time>
      </trkpt>
      <trkpt lat="43.79925" lon="5.29986">
        <ele>497</ele>
        <time>2020-05-31T07:40:53Z</time>
      </trkpt>
      <trkpt lat="43.79932" lon="5.29981">
        <ele>501</ele>
        <time>2020-05-31T07:40:58Z</time>
      </trkpt>
      <trkpt lat="43.79939" lon="5.29978">
        <ele>501</ele>
        <time>2020-05-31T07:41:03Z</time>
      </trkpt>
      <trkpt lat="43.79948" lon="5.29977">
        <ele>501</ele>
        <time>2020-05-31T07:41:08Z</time>
      </trkpt>
      <trkpt lat="43.79956" lon="5.29976">
        <ele>501</ele>
        <time>2020-05-31T07:41:13Z</time>
      </trkpt>
      <trkpt lat="43.79962" lon="5.29976">
        <ele>504</ele>
        <time>2020-05-31T07:41:18Z</time>
      </trkpt>
      <trkpt lat="43.7997" lon="5.29976">
        <ele>504</ele>
        <time>2020-05-31T07:41:23Z</time>
      </trkpt>
      <trkpt lat="43.79978" lon="5.29979">
        <ele>504</ele>
        <time>2020-05-31T07:41:28Z</time>
      </trkpt>
      <trkpt lat="43.79988" lon="5.29983">
        <ele>506</ele>
        <time>2020-05-31T07:41:33Z</time>
      </trkpt>
      <trkpt lat="43.79997" lon="5.29985">
        <ele>506</ele>
        <time>2020-05-31T07:41:38Z</time>
      </trkpt>
      <trkpt lat="43.80006" lon="5.29995">
        <ele>503</ele>
        <time>2020-05-31T07:41:43Z</time>
      </trkpt>
      <trkpt lat="43.80011" lon="5.30001">
        <ele>503</ele>
        <time>2020-05-31T07:41:47Z</time>
      </trkpt>
      <trkpt lat="43.80017" lon="5.3001">
        <ele>511</ele>
        <time>2020-05-31T07:41:52Z</time>
      </trkpt>
      <trkpt lat="43.80021" lon="5.30016">
        <ele>513</ele>
        <time>2020-05-31T07:41:56Z</time>
      </trkpt>
      <trkpt lat="43.80028" lon="5.30023">
        <ele>513</ele>
        <time>2020-05-31T07:42:01Z</time>
      </trkpt>
      <trkpt lat="43.80035" lon="5.30027">
        <ele>513</ele>
        <time>2020-05-31T07:42:06Z</time>
      </trkpt>
      <trkpt lat="43.80039" lon="5.3003">
        <ele>513</ele>
        <time>2020-05-31T07:42:11Z</time>
      </trkpt>
      <trkpt lat="43.80047" lon="5.30032">
        <ele>518</ele>
        <time>2020-05-31T07:42:16Z</time>
      </trkpt>
      <trkpt lat="43.80054" lon="5.30032">
        <ele>518</ele>
        <time>2020-05-31T07:42:21Z</time>
      </trkpt>
      <trkpt lat="43.8006" lon="5.3003">
        <ele>518</ele>
        <time>2020-05-31T07:42:26Z</time>
      </trkpt>
      <trkpt lat="43.80068" lon="5.30032">
        <ele>518</ele>
        <time>2020-05-31T07:42:31Z</time>
      </trkpt>
      <trkpt lat="43.80076" lon="5.3003">
        <ele>522</ele>
        <time>2020-05-31T07:42:36Z</time>
      </trkpt>
      <trkpt lat="43.80083" lon="5.30029">
        <ele>522</ele>
        <time>2020-05-31T07:42:41Z</time>
      </trkpt>
      <trkpt lat="43.80091" lon="5.30026">
        <ele>522</ele>
        <time>2020-05-31T07:42:46Z</time>
      </trkpt>
      <trkpt lat="43.80101" lon="5.30025">
        <ele>523</ele>
        <time>2020-05-31T07:42:51Z</time>
      </trkpt>
      <trkpt lat="43.80107" lon="5.30027">
        <ele>523</ele>
        <time>2020-05-31T07:42:55Z</time>
      </trkpt>
      <trkpt lat="43.80115" lon="5.3003">
        <ele>523</ele>
        <time>2020-05-31T07:43:00Z</time>
      </trkpt>
      <trkpt lat="43.80122" lon="5.30035">
        <ele>523</ele>
        <time>2020-05-31T07:43:05Z</time>
      </trkpt>
      <trkpt lat="43.8013" lon="5.30039">
        <ele>523</ele>
        <time>2020-05-31T07:43:10Z</time>
      </trkpt>
      <trkpt lat="43.80136" lon="5.30042">
        <ele>524</ele>
        <time>2020-05-31T07:43:15Z</time>
      </trkpt>
      <trkpt lat="43.80145" lon="5.30043">
        <ele>524</ele>
        <time>2020-05-31T07:43:20Z</time>
      </trkpt>
      <trkpt lat="43.80155" lon="5.30047">
        <ele>523</ele>
        <time>2020-05-31T07:43:25Z</time>
      </trkpt>
      <trkpt lat="43.80165" lon="5.30048">
        <ele>523</ele>
        <time>2020-05-31T07:43:30Z</time>
      </trkpt>
      <trkpt lat="43.80175" lon="5.30051">
        <ele>523</ele>
        <time>2020-05-31T07:43:35Z</time>
      </trkpt>
      <trkpt lat="43.80184" lon="5.30053">
        <ele>524</ele>
        <time>2020-05-31T07:43:40Z</time>
      </trkpt>
      <trkpt lat="43.80193" lon="5.30055">
        <ele>524</ele>
        <time>2020-05-31T07:43:45Z</time>
      </trkpt>
      <trkpt lat="43.80202" lon="5.3006">
        <ele>524</ele>
        <time>2020-05-31T07:43:50Z</time>
      </trkpt>
      <trkpt lat="43.8021" lon="5.30067">
        <ele>531</ele>
        <time>2020-05-31T07:43:55Z</time>
      </trkpt>
      <trkpt lat="43.80218" lon="5.30075">
        <ele>527</ele>
        <time>2020-05-31T07:44:00Z</time>
      </trkpt>
      <trkpt lat="43.80225" lon="5.30082">
        <ele>527</ele>
        <time>2020-05-31T07:44:05Z</time>
      </trkpt>
      <trkpt lat="43.80231" lon="5.30091">
        <ele>527</ele>
        <time>2020-05-31T07:44:10Z</time>
      </trkpt>
      <trkpt lat="43.80238" lon="5.30099">
        <ele>533</ele>
        <time>2020-05-31T07:44:15Z</time>
      </trkpt>
      <trkpt lat="43.80247" lon="5.30099">
        <ele>533</ele>
        <time>2020-05-31T07:44:20Z</time>
      </trkpt>
      <trkpt lat="43.80255" lon="5.30097">
        <ele>532</ele>
        <time>2020-05-31T07:44:25Z</time>
      </trkpt>
      <trkpt lat="43.80262" lon="5.30096">
        <ele>532</ele>
        <time>2020-05-31T07:44:30Z</time>
      </trkpt>
      <trkpt lat="43.80266" lon="5.30096">
        <ele>535</ele>
        <time>2020-05-31T07:44:35Z</time>
      </trkpt>
      <trkpt lat="43.80269" lon="5.30096">
        <ele>535</ele>
        <time>2020-05-31T07:44:45Z</time>
      </trkpt>
      <trkpt lat="43.80269" lon="5.30096">
        <ele>535</ele>
        <time>2020-05-31T07:44:50Z</time>
      </trkpt>
      <trkpt lat="43.8027" lon="5.30096">
        <ele>535</ele>
        <time>2020-05-31T07:44:55Z</time>
      </trkpt>
      <trkpt lat="43.80273" lon="5.30094">
        <ele>535</ele>
        <time>2020-05-31T07:45:00Z</time>
      </trkpt>
      <trkpt lat="43.8028" lon="5.30084">
        <ele>535</ele>
        <time>2020-05-31T07:45:04Z</time>
      </trkpt>
      <trkpt lat="43.80293" lon="5.30079">
        <ele>538</ele>
        <time>2020-05-31T07:45:09Z</time>
      </trkpt>
      <trkpt lat="43.80305" lon="5.30071">
        <ele>538</ele>
        <time>2020-05-31T07:45:14Z</time>
      </trkpt>
      <trkpt lat="43.80313" lon="5.30066">
        <ele>541</ele>
        <time>2020-05-31T07:45:19Z</time>
      </trkpt>
      <trkpt lat="43.80321" lon="5.30059">
        <ele>541</ele>
        <time>2020-05-31T07:45:24Z</time>
      </trkpt>
      <trkpt lat="43.80328" lon="5.30051">
        <ele>541</ele>
        <time>2020-05-31T07:45:29Z</time>
      </trkpt>
      <trkpt lat="43.80335" lon="5.30042">
        <ele>541</ele>
        <time>2020-05-31T07:45:34Z</time>
      </trkpt>
      <trkpt lat="43.80341" lon="5.30035">
        <ele>543</ele>
        <time>2020-05-31T07:45:39Z</time>
      </trkpt>
      <trkpt lat="43.80347" lon="5.30026">
        <ele>543</ele>
        <time>2020-05-31T07:45:44Z</time>
      </trkpt>
      <trkpt lat="43.80354" lon="5.30015">
        <ele>543</ele>
        <time>2020-05-31T07:45:49Z</time>
      </trkpt>
      <trkpt lat="43.80361" lon="5.30008">
        <ele>543</ele>
        <time>2020-05-31T07:45:54Z</time>
      </trkpt>
      <trkpt lat="43.8037" lon="5.30002">
        <ele>543</ele>
        <time>2020-05-31T07:45:59Z</time>
      </trkpt>
      <trkpt lat="43.80377" lon="5.29996">
        <ele>546</ele>
        <time>2020-05-31T07:46:04Z</time>
      </trkpt>
      <trkpt lat="43.80385" lon="5.29988">
        <ele>546</ele>
        <time>2020-05-31T07:46:09Z</time>
      </trkpt>
      <trkpt lat="43.80393" lon="5.29984">
        <ele>548</ele>
        <time>2020-05-31T07:46:14Z</time>
      </trkpt>
      <trkpt lat="43.80401" lon="5.29982">
        <ele>548</ele>
        <time>2020-05-31T07:46:19Z</time>
      </trkpt>
      <trkpt lat="43.80411" lon="5.29978">
        <ele>550</ele>
        <time>2020-05-31T07:46:24Z</time>
      </trkpt>
      <trkpt lat="43.80419" lon="5.29974">
        <ele>550</ele>
        <time>2020-05-31T07:46:28Z</time>
      </trkpt>
      <trkpt lat="43.80428" lon="5.29972">
        <ele>550</ele>
        <time>2020-05-31T07:46:33Z</time>
      </trkpt>
      <trkpt lat="43.80436" lon="5.29969">
        <ele>553</ele>
        <time>2020-05-31T07:46:38Z</time>
      </trkpt>
      <trkpt lat="43.80442" lon="5.29961">
        <ele>553</ele>
        <time>2020-05-31T07:46:43Z</time>
      </trkpt>
      <trkpt lat="43.80449" lon="5.29955">
        <ele>553</ele>
        <time>2020-05-31T07:46:48Z</time>
      </trkpt>
      <trkpt lat="43.80456" lon="5.29948">
        <ele>553</ele>
        <time>2020-05-31T07:46:53Z</time>
      </trkpt>
      <trkpt lat="43.80462" lon="5.29942">
        <ele>554</ele>
        <time>2020-05-31T07:46:58Z</time>
      </trkpt>
      <trkpt lat="43.80471" lon="5.29938">
        <ele>554</ele>
        <time>2020-05-31T07:47:03Z</time>
      </trkpt>
      <trkpt lat="43.80479" lon="5.29936">
        <ele>554</ele>
        <time>2020-05-31T07:47:08Z</time>
      </trkpt>
      <trkpt lat="43.80488" lon="5.29938">
        <ele>559</ele>
        <time>2020-05-31T07:47:13Z</time>
      </trkpt>
      <trkpt lat="43.80498" lon="5.2994">
        <ele>559</ele>
        <time>2020-05-31T07:47:18Z</time>
      </trkpt>
      <trkpt lat="43.80505" lon="5.2994">
        <ele>559</ele>
        <time>2020-05-31T07:47:23Z</time>
      </trkpt>
      <trkpt lat="43.80514" lon="5.29936">
        <ele>559</ele>
        <time>2020-05-31T07:47:28Z</time>
      </trkpt>
      <trkpt lat="43.80522" lon="5.29928">
        <ele>560</ele>
        <time>2020-05-31T07:47:33Z</time>
      </trkpt>
      <trkpt lat="43.80531" lon="5.29921">
        <ele>560</ele>
        <time>2020-05-31T07:47:38Z</time>
      </trkpt>
      <trkpt lat="43.8054" lon="5.29913">
        <ele>560</ele>
        <time>2020-05-31T07:47:43Z</time>
      </trkpt>
      <trkpt lat="43.80548" lon="5.29906">
        <ele>565</ele>
        <time>2020-05-31T07:47:48Z</time>
      </trkpt>
      <trkpt lat="43.80554" lon="5.29897">
        <ele>564</ele>
        <time>2020-05-31T07:47:53Z</time>
      </trkpt>
      <trkpt lat="43.80557" lon="5.29887">
        <ele>564</ele>
        <time>2020-05-31T07:47:58Z</time>
      </trkpt>
      <trkpt lat="43.80557" lon="5.29876">
        <ele>564</ele>
        <time>2020-05-31T07:48:03Z</time>
      </trkpt>
      <trkpt lat="43.80556" lon="5.29863">
        <ele>564</ele>
        <time>2020-05-31T07:48:08Z</time>
      </trkpt>
      <trkpt lat="43.80555" lon="5.2985">
        <ele>564</ele>
        <time>2020-05-31T07:48:13Z</time>
      </trkpt>
      <trkpt lat="43.80554" lon="5.29837">
        <ele>566</ele>
        <time>2020-05-31T07:48:18Z</time>
      </trkpt>
      <trkpt lat="43.80554" lon="5.29825">
        <ele>566</ele>
        <time>2020-05-31T07:48:23Z</time>
      </trkpt>
      <trkpt lat="43.80555" lon="5.29813">
        <ele>568</ele>
        <time>2020-05-31T07:48:28Z</time>
      </trkpt>
      <trkpt lat="43.80554" lon="5.29799">
        <ele>568</ele>
        <time>2020-05-31T07:48:33Z</time>
      </trkpt>
      <trkpt lat="43.80554" lon="5.29785">
        <ele>571</ele>
        <time>2020-05-31T07:48:38Z</time>
      </trkpt>
      <trkpt lat="43.80552" lon="5.29775">
        <ele>571</ele>
        <time>2020-05-31T07:48:42Z</time>
      </trkpt>
      <trkpt lat="43.80551" lon="5.29763">
        <ele>572</ele>
        <time>2020-05-31T07:48:47Z</time>
      </trkpt>
      <trkpt lat="43.8055" lon="5.2975">
        <ele>572</ele>
        <time>2020-05-31T07:48:52Z</time>
      </trkpt>
      <trkpt lat="43.80551" lon="5.29737">
        <ele>572</ele>
        <time>2020-05-31T07:48:57Z</time>
      </trkpt>
      <trkpt lat="43.80552" lon="5.29725">
        <ele>572</ele>
        <time>2020-05-31T07:49:02Z</time>
      </trkpt>
      <trkpt lat="43.80554" lon="5.2971">
        <ele>572</ele>
        <time>2020-05-31T07:49:07Z</time>
      </trkpt>
      <trkpt lat="43.80554" lon="5.29698">
        <ele>571</ele>
        <time>2020-05-31T07:49:12Z</time>
      </trkpt>
      <trkpt lat="43.80556" lon="5.29684">
        <ele>571</ele>
        <time>2020-05-31T07:49:17Z</time>
      </trkpt>
      <trkpt lat="43.80558" lon="5.29671">
        <ele>572</ele>
        <time>2020-05-31T07:49:22Z</time>
      </trkpt>
      <trkpt lat="43.80564" lon="5.29659">
        <ele>572</ele>
        <time>2020-05-31T07:49:27Z</time>
      </trkpt>
      <trkpt lat="43.80568" lon="5.29649">
        <ele>574</ele>
        <time>2020-05-31T07:49:31Z</time>
      </trkpt>
      <trkpt lat="43.80572" lon="5.2964">
        <ele>577</ele>
        <time>2020-05-31T07:49:36Z</time>
      </trkpt>
      <trkpt lat="43.80577" lon="5.29628">
        <ele>577</ele>
        <time>2020-05-31T07:49:41Z</time>
      </trkpt>
      <trkpt lat="43.8058" lon="5.29624">
        <ele>578</ele>
        <time>2020-05-31T07:49:45Z</time>
      </trkpt>
      <trkpt lat="43.80587" lon="5.29617">
        <ele>578</ele>
        <time>2020-05-31T07:49:50Z</time>
      </trkpt>
      <trkpt lat="43.80587" lon="5.29612">
        <ele>578</ele>
        <time>2020-05-31T07:49:55Z</time>
      </trkpt>
      <trkpt lat="43.80589" lon="5.29602">
        <ele>578</ele>
        <time>2020-05-31T07:50:00Z</time>
      </trkpt>
      <trkpt lat="43.80592" lon="5.29594">
        <ele>581</ele>
        <time>2020-05-31T07:50:05Z</time>
      </trkpt>
      <trkpt lat="43.80593" lon="5.29589">
        <ele>581</ele>
        <time>2020-05-31T07:50:09Z</time>
      </trkpt>
      <trkpt lat="43.80594" lon="5.29581">
        <ele>581</ele>
        <time>2020-05-31T07:50:14Z</time>
      </trkpt>
      <trkpt lat="43.80592" lon="5.2957">
        <ele>581</ele>
        <time>2020-05-31T07:50:19Z</time>
      </trkpt>
      <trkpt lat="43.80593" lon="5.2956">
        <ele>583</ele>
        <time>2020-05-31T07:50:24Z</time>
      </trkpt>
      <trkpt lat="43.80592" lon="5.29551">
        <ele>583</ele>
        <time>2020-05-31T07:50:29Z</time>
      </trkpt>
      <trkpt lat="43.80591" lon="5.29539">
        <ele>583</ele>
        <time>2020-05-31T07:50:34Z</time>
      </trkpt>
      <trkpt lat="43.80593" lon="5.29529">
        <ele>583</ele>
        <time>2020-05-31T07:50:39Z</time>
      </trkpt>
      <trkpt lat="43.80594" lon="5.2952">
        <ele>583</ele>
        <time>2020-05-31T07:50:44Z</time>
      </trkpt>
      <trkpt lat="43.80594" lon="5.29513">
        <ele>586</ele>
        <time>2020-05-31T07:50:48Z</time>
      </trkpt>
      <trkpt lat="43.80595" lon="5.29502">
        <ele>586</ele>
        <time>2020-05-31T07:50:53Z</time>
      </trkpt>
      <trkpt lat="43.80595" lon="5.29491">
        <ele>586</ele>
        <time>2020-05-31T07:50:58Z</time>
      </trkpt>
      <trkpt lat="43.80595" lon="5.2948">
        <ele>590</ele>
        <time>2020-05-31T07:51:03Z</time>
      </trkpt>
      <trkpt lat="43.80597" lon="5.29468">
        <ele>590</ele>
        <time>2020-05-31T07:51:08Z</time>
      </trkpt>
      <trkpt lat="43.80598" lon="5.29459">
        <ele>595</ele>
        <time>2020-05-31T07:51:13Z</time>
      </trkpt>
      <trkpt lat="43.80596" lon="5.29449">
        <ele>595</ele>
        <time>2020-05-31T07:51:18Z</time>
      </trkpt>
      <trkpt lat="43.80596" lon="5.29443">
        <ele>595</ele>
        <time>2020-05-31T07:51:22Z</time>
      </trkpt>
      <trkpt lat="43.80595" lon="5.29434">
        <ele>595</ele>
        <time>2020-05-31T07:51:27Z</time>
      </trkpt>
      <trkpt lat="43.80594" lon="5.29423">
        <ele>597</ele>
        <time>2020-05-31T07:51:32Z</time>
      </trkpt>
      <trkpt lat="43.80593" lon="5.29415">
        <ele>597</ele>
        <time>2020-05-31T07:51:37Z</time>
      </trkpt>
      <trkpt lat="43.80589" lon="5.29407">
        <ele>597</ele>
        <time>2020-05-31T07:51:42Z</time>
      </trkpt>
      <trkpt lat="43.80588" lon="5.29399">
        <ele>599</ele>
        <time>2020-05-31T07:51:47Z</time>
      </trkpt>
      <trkpt lat="43.80587" lon="5.29392">
        <ele>599</ele>
        <time>2020-05-31T07:51:52Z</time>
      </trkpt>
      <trkpt lat="43.80584" lon="5.29382">
        <ele>599</ele>
        <time>2020-05-31T07:51:57Z</time>
      </trkpt>
      <trkpt lat="43.8058" lon="5.29374">
        <ele>601</ele>
        <time>2020-05-31T07:52:02Z</time>
      </trkpt>
      <trkpt lat="43.80579" lon="5.29368">
        <ele>601</ele>
        <time>2020-05-31T07:52:07Z</time>
      </trkpt>
      <trkpt lat="43.80578" lon="5.29365">
        <ele>601</ele>
        <time>2020-05-31T07:52:12Z</time>
      </trkpt>
      <trkpt lat="43.80578" lon="5.29363">
        <ele>601</ele>
        <time>2020-05-31T07:52:17Z</time>
      </trkpt>
      <trkpt lat="43.80577" lon="5.29362">
        <ele>601</ele>
        <time>2020-05-31T07:52:22Z</time>
      </trkpt>
      <trkpt lat="43.80577" lon="5.29353">
        <ele>601</ele>
        <time>2020-05-31T07:53:17Z</time>
      </trkpt>
      <trkpt lat="43.80578" lon="5.29351">
        <ele>601</ele>
        <time>2020-05-31T07:53:22Z</time>
      </trkpt>
      <trkpt lat="43.8058" lon="5.29346">
        <ele>604</ele>
        <time>2020-05-31T07:53:27Z</time>
      </trkpt>
      <trkpt lat="43.80583" lon="5.29341">
        <ele>604</ele>
        <time>2020-05-31T07:53:32Z</time>
      </trkpt>
      <trkpt lat="43.80583" lon="5.29336">
        <ele>604</ele>
        <time>2020-05-31T07:53:36Z</time>
      </trkpt>
      <trkpt lat="43.80582" lon="5.29331">
        <ele>604</ele>
        <time>2020-05-31T07:53:41Z</time>
      </trkpt>
      <trkpt lat="43.80583" lon="5.29327">
        <ele>604</ele>
        <time>2020-05-31T07:53:46Z</time>
      </trkpt>
      <trkpt lat="43.80583" lon="5.29323">
        <ele>604</ele>
        <time>2020-05-31T07:53:51Z</time>
      </trkpt>
      <trkpt lat="43.80583" lon="5.29321">
        <ele>604</ele>
        <time>2020-05-31T07:53:56Z</time>
      </trkpt>
      <trkpt lat="43.80585" lon="5.29312">
        <ele>609</ele>
        <time>2020-05-31T07:54:01Z</time>
      </trkpt>
      <trkpt lat="43.80585" lon="5.29305">
        <ele>609</ele>
        <time>2020-05-31T07:54:06Z</time>
      </trkpt>
      <trkpt lat="43.80588" lon="5.29297">
        <ele>609</ele>
        <time>2020-05-31T07:54:11Z</time>
      </trkpt>
      <trkpt lat="43.80589" lon="5.2929">
        <ele>614</ele>
        <time>2020-05-31T07:54:16Z</time>
      </trkpt>
      <trkpt lat="43.80589" lon="5.29282">
        <ele>614</ele>
        <time>2020-05-31T07:54:21Z</time>
      </trkpt>
      <trkpt lat="43.80593" lon="5.29274">
        <ele>614</ele>
        <time>2020-05-31T07:54:25Z</time>
      </trkpt>
      <trkpt lat="43.80596" lon="5.29264">
        <ele>614</ele>
        <time>2020-05-31T07:54:30Z</time>
      </trkpt>
      <trkpt lat="43.80599" lon="5.29256">
        <ele>615</ele>
        <time>2020-05-31T07:54:35Z</time>
      </trkpt>
      <trkpt lat="43.80603" lon="5.29245">
        <ele>615</ele>
        <time>2020-05-31T07:54:40Z</time>
      </trkpt>
      <trkpt lat="43.80607" lon="5.29236">
        <ele>616</ele>
        <time>2020-05-31T07:54:45Z</time>
      </trkpt>
      <trkpt lat="43.80609" lon="5.29227">
        <ele>616</ele>
        <time>2020-05-31T07:54:50Z</time>
      </trkpt>
      <trkpt lat="43.80613" lon="5.2922">
        <ele>616</ele>
        <time>2020-05-31T07:54:55Z</time>
      </trkpt>
      <trkpt lat="43.80617" lon="5.29213">
        <ele>616</ele>
        <time>2020-05-31T07:55:00Z</time>
      </trkpt>
      <trkpt lat="43.80622" lon="5.29203">
        <ele>618</ele>
        <time>2020-05-31T07:55:05Z</time>
      </trkpt>
      <trkpt lat="43.80628" lon="5.29196">
        <ele>617</ele>
        <time>2020-05-31T07:55:10Z</time>
      </trkpt>
      <trkpt lat="43.80634" lon="5.2919">
        <ele>617</ele>
        <time>2020-05-31T07:55:15Z</time>
      </trkpt>
      <trkpt lat="43.8064" lon="5.29184">
        <ele>617</ele>
        <time>2020-05-31T07:55:20Z</time>
      </trkpt>
      <trkpt lat="43.80646" lon="5.2918">
        <ele>618</ele>
        <time>2020-05-31T07:55:25Z</time>
      </trkpt>
      <trkpt lat="43.80652" lon="5.29176">
        <ele>618</ele>
        <time>2020-05-31T07:55:30Z</time>
      </trkpt>
      <trkpt lat="43.80658" lon="5.29177">
        <ele>618</ele>
        <time>2020-05-31T07:55:35Z</time>
      </trkpt>
      <trkpt lat="43.80663" lon="5.29179">
        <ele>618</ele>
        <time>2020-05-31T07:55:40Z</time>
      </trkpt>
      <trkpt lat="43.80671" lon="5.29178">
        <ele>618</ele>
        <time>2020-05-31T07:55:45Z</time>
      </trkpt>
      <trkpt lat="43.80678" lon="5.29168">
        <ele>618</ele>
        <time>2020-05-31T07:55:50Z</time>
      </trkpt>
      <trkpt lat="43.80678" lon="5.29156">
        <ele>618</ele>
        <time>2020-05-31T07:55:55Z</time>
      </trkpt>
      <trkpt lat="43.80671" lon="5.29146">
        <ele>619</ele>
        <time>2020-05-31T07:56:00Z</time>
      </trkpt>
      <trkpt lat="43.80663" lon="5.29136">
        <ele>619</ele>
        <time>2020-05-31T07:56:05Z</time>
      </trkpt>
      <trkpt lat="43.80654" lon="5.29129">
        <ele>619</ele>
        <time>2020-05-31T07:56:10Z</time>
      </trkpt>
      <trkpt lat="43.80649" lon="5.29122">
        <ele>620</ele>
        <time>2020-05-31T07:56:15Z</time>
      </trkpt>
      <trkpt lat="43.80643" lon="5.29115">
        <ele>620</ele>
        <time>2020-05-31T07:56:20Z</time>
      </trkpt>
      <trkpt lat="43.80637" lon="5.29107">
        <ele>620</ele>
        <time>2020-05-31T07:56:25Z</time>
      </trkpt>
      <trkpt lat="43.80629" lon="5.29103">
        <ele>620</ele>
        <time>2020-05-31T07:56:30Z</time>
      </trkpt>
      <trkpt lat="43.80624" lon="5.29096">
        <ele>622</ele>
        <time>2020-05-31T07:56:35Z</time>
      </trkpt>
      <trkpt lat="43.8062" lon="5.29084">
        <ele>622</ele>
        <time>2020-05-31T07:56:40Z</time>
      </trkpt>
      <trkpt lat="43.80615" lon="5.29073">
        <ele>622</ele>
        <time>2020-05-31T07:56:45Z</time>
      </trkpt>
      <trkpt lat="43.80605" lon="5.29069">
        <ele>622</ele>
        <time>2020-05-31T07:56:50Z</time>
      </trkpt>
      <trkpt lat="43.80599" lon="5.29064">
        <ele>622</ele>
        <time>2020-05-31T07:56:55Z</time>
      </trkpt>
      <trkpt lat="43.80598" lon="5.29055">
        <ele>622</ele>
        <time>2020-05-31T07:57:00Z</time>
      </trkpt>
      <trkpt lat="43.80595" lon="5.29048">
        <ele>624</ele>
        <time>2020-05-31T07:57:05Z</time>
      </trkpt>
      <trkpt lat="43.80589" lon="5.29041">
        <ele>623</ele>
        <time>2020-05-31T07:57:10Z</time>
      </trkpt>
      <trkpt lat="43.80583" lon="5.29033">
        <ele>623</ele>
        <time>2020-05-31T07:57:15Z</time>
      </trkpt>
      <trkpt lat="43.80575" lon="5.29027">
        <ele>623</ele>
        <time>2020-05-31T07:57:20Z</time>
      </trkpt>
      <trkpt lat="43.80566" lon="5.29018">
        <ele>628</ele>
        <time>2020-05-31T07:57:25Z</time>
      </trkpt>
      <trkpt lat="43.80562" lon="5.29008">
        <ele>628</ele>
        <time>2020-05-31T07:57:30Z</time>
      </trkpt>
      <trkpt lat="43.80558" lon="5.28997">
        <ele>628</ele>
        <time>2020-05-31T07:57:35Z</time>
      </trkpt>
      <trkpt lat="43.80551" lon="5.2899">
        <ele>628</ele>
        <time>2020-05-31T07:57:40Z</time>
      </trkpt>
      <trkpt lat="43.80545" lon="5.28984">
        <ele>629</ele>
        <time>2020-05-31T07:57:45Z</time>
      </trkpt>
      <trkpt lat="43.80543" lon="5.28972">
        <ele>629</ele>
        <time>2020-05-31T07:57:50Z</time>
      </trkpt>
      <trkpt lat="43.80538" lon="5.28966">
        <ele>631</ele>
        <time>2020-05-31T07:57:55Z</time>
      </trkpt>
      <trkpt lat="43.80534" lon="5.28959">
        <ele>631</ele>
        <time>2020-05-31T07:58:00Z</time>
      </trkpt>
      <trkpt lat="43.8053" lon="5.2895">
        <ele>632</ele>
        <time>2020-05-31T07:58:05Z</time>
      </trkpt>
      <trkpt lat="43.80524" lon="5.28946">
        <ele>632</ele>
        <time>2020-05-31T07:58:10Z</time>
      </trkpt>
      <trkpt lat="43.80518" lon="5.28938">
        <ele>632</ele>
        <time>2020-05-31T07:58:15Z</time>
      </trkpt>
      <trkpt lat="43.80515" lon="5.28928">
        <ele>633</ele>
        <time>2020-05-31T07:58:20Z</time>
      </trkpt>
      <trkpt lat="43.80513" lon="5.2892">
        <ele>640</ele>
        <time>2020-05-31T07:58:25Z</time>
      </trkpt>
      <trkpt lat="43.80511" lon="5.2891">
        <ele>640</ele>
        <time>2020-05-31T07:58:30Z</time>
      </trkpt>
      <trkpt lat="43.80508" lon="5.28899">
        <ele>639</ele>
        <time>2020-05-31T07:58:34.999Z</time>
      </trkpt>
      <trkpt lat="43.80505" lon="5.28888">
        <ele>639</ele>
        <time>2020-05-31T07:58:39.999Z</time>
      </trkpt>
      <trkpt lat="43.80498" lon="5.28878">
        <ele>639</ele>
        <time>2020-05-31T07:58:44.999Z</time>
      </trkpt>
      <trkpt lat="43.80493" lon="5.28871">
        <ele>639</ele>
        <time>2020-05-31T07:58:49.999Z</time>
      </trkpt>
      <trkpt lat="43.80485" lon="5.28864">
        <ele>644</ele>
        <time>2020-05-31T07:58:54.999Z</time>
      </trkpt>
      <trkpt lat="43.80477" lon="5.28866">
        <ele>644</ele>
        <time>2020-05-31T07:58:59.999Z</time>
      </trkpt>
      <trkpt lat="43.80471" lon="5.28871">
        <ele>644</ele>
        <time>2020-05-31T07:59:03.999Z</time>
      </trkpt>
      <trkpt lat="43.80464" lon="5.28872">
        <ele>644</ele>
        <time>2020-05-31T07:59:08.999Z</time>
      </trkpt>
      <trkpt lat="43.80456" lon="5.28872">
        <ele>646</ele>
        <time>2020-05-31T07:59:13.999Z</time>
      </trkpt>
      <trkpt lat="43.80448" lon="5.28871">
        <ele>646</ele>
        <time>2020-05-31T07:59:18.999Z</time>
      </trkpt>
      <trkpt lat="43.8044" lon="5.28875">
        <ele>646</ele>
        <time>2020-05-31T07:59:23.999Z</time>
      </trkpt>
      <trkpt lat="43.80431" lon="5.28881">
        <ele>646</ele>
        <time>2020-05-31T07:59:28.999Z</time>
      </trkpt>
      <trkpt lat="43.80426" lon="5.28886">
        <ele>648</ele>
        <time>2020-05-31T07:59:33.999Z</time>
      </trkpt>
      <trkpt lat="43.80422" lon="5.28891">
        <ele>648</ele>
        <time>2020-05-31T07:59:38.999Z</time>
      </trkpt>
      <trkpt lat="43.80409" lon="5.28882">
        <ele>648</ele>
        <time>2020-05-31T07:59:53.999Z</time>
      </trkpt>
      <trkpt lat="43.80408" lon="5.28882">
        <ele>648</ele>
        <time>2020-05-31T07:59:58.999Z</time>
      </trkpt>
      <trkpt lat="43.80408" lon="5.28882">
        <ele>648</ele>
        <time>2020-05-31T08:00:03.999Z</time>
      </trkpt>
      <trkpt lat="43.80408" lon="5.28881">
        <ele>648</ele>
        <time>2020-05-31T08:00:08.999Z</time>
      </trkpt>
      <trkpt lat="43.80407" lon="5.2888">
        <ele>648</ele>
        <time>2020-05-31T08:00:13.999Z</time>
      </trkpt>
      <trkpt lat="43.80406" lon="5.28871">
        <ele>648</ele>
        <time>2020-05-31T08:00:18.999Z</time>
      </trkpt>
      <trkpt lat="43.80407" lon="5.28861">
        <ele>648</ele>
        <time>2020-05-31T08:00:22.999Z</time>
      </trkpt>
      <trkpt lat="43.80405" lon="5.2885">
        <ele>648</ele>
        <time>2020-05-31T08:00:27.999Z</time>
      </trkpt>
      <trkpt lat="43.80405" lon="5.28841">
        <ele>650</ele>
        <time>2020-05-31T08:00:32.999Z</time>
      </trkpt>
      <trkpt lat="43.80404" lon="5.28829">
        <ele>650</ele>
        <time>2020-05-31T08:00:42.999Z</time>
      </trkpt>
      <trkpt lat="43.80405" lon="5.28825">
        <ele>650</ele>
        <time>2020-05-31T08:00:46.999Z</time>
      </trkpt>
      <trkpt lat="43.80405" lon="5.28824">
        <ele>650</ele>
        <time>2020-05-31T08:00:51.999Z</time>
      </trkpt>
      <trkpt lat="43.80405" lon="5.28821">
        <ele>650</ele>
        <time>2020-05-31T08:00:56.999Z</time>
      </trkpt>
      <trkpt lat="43.80406" lon="5.28818">
        <ele>652</ele>
        <time>2020-05-31T08:01:01.999Z</time>
      </trkpt>
      <trkpt lat="43.80406" lon="5.28817">
        <ele>652</ele>
        <time>2020-05-31T08:01:06.999Z</time>
      </trkpt>
      <trkpt lat="43.80406" lon="5.28816">
        <ele>652</ele>
        <time>2020-05-31T08:01:11.999Z</time>
      </trkpt>
      <trkpt lat="43.80407" lon="5.28811">
        <ele>652</ele>
        <time>2020-05-31T08:01:15.999Z</time>
      </trkpt>
      <trkpt lat="43.80408" lon="5.28804">
        <ele>652</ele>
        <time>2020-05-31T08:01:20.999Z</time>
      </trkpt>
      <trkpt lat="43.80411" lon="5.28792">
        <ele>653</ele>
        <time>2020-05-31T08:01:30.999Z</time>
      </trkpt>
      <trkpt lat="43.80411" lon="5.28791">
        <ele>653</ele>
        <time>2020-05-31T08:01:35.999Z</time>
      </trkpt>
      <trkpt lat="43.80411" lon="5.2879">
        <ele>653</ele>
        <time>2020-05-31T08:01:40.999Z</time>
      </trkpt>
      <trkpt lat="43.80408" lon="5.28789">
        <ele>653</ele>
        <time>2020-05-31T08:01:44.999Z</time>
      </trkpt>
      <trkpt lat="43.80401" lon="5.28793">
        <ele>653</ele>
        <time>2020-05-31T08:01:49.999Z</time>
      </trkpt>
      <trkpt lat="43.80395" lon="5.28795">
        <ele>653</ele>
        <time>2020-05-31T08:01:53.999Z</time>
      </trkpt>
      <trkpt lat="43.80392" lon="5.28799">
        <ele>653</ele>
        <time>2020-05-31T08:01:58.999Z</time>
      </trkpt>
      <trkpt lat="43.8039" lon="5.28799">
        <ele>653</ele>
        <time>2020-05-31T08:02:03.999Z</time>
      </trkpt>
      <trkpt lat="43.80386" lon="5.28795">
        <ele>653</ele>
        <time>2020-05-31T08:02:07.999Z</time>
      </trkpt>
      <trkpt lat="43.80378" lon="5.2879">
        <ele>654</ele>
        <time>2020-05-31T08:03:04.999Z</time>
      </trkpt>
      <trkpt lat="43.80378" lon="5.2879">
        <ele>654</ele>
        <time>2020-05-31T08:03:09.999Z</time>
      </trkpt>
      <trkpt lat="43.80377" lon="5.28788">
        <ele>654</ele>
        <time>2020-05-31T08:03:14.999Z</time>
      </trkpt>
      <trkpt lat="43.80377" lon="5.28784">
        <ele>654</ele>
        <time>2020-05-31T08:03:19.999Z</time>
      </trkpt>
      <trkpt lat="43.80377" lon="5.28777">
        <ele>654</ele>
        <time>2020-05-31T08:03:24.999Z</time>
      </trkpt>
      <trkpt lat="43.80376" lon="5.28772">
        <ele>654</ele>
        <time>2020-05-31T08:03:29.999Z</time>
      </trkpt>
      <trkpt lat="43.80376" lon="5.28765">
        <ele>654</ele>
        <time>2020-05-31T08:03:34.999Z</time>
      </trkpt>
      <trkpt lat="43.80376" lon="5.28762">
        <ele>654</ele>
        <time>2020-05-31T08:03:38.999Z</time>
      </trkpt>
      <trkpt lat="43.80377" lon="5.28758">
        <ele>654</ele>
        <time>2020-05-31T08:03:43.999Z</time>
      </trkpt>
      <trkpt lat="43.80377" lon="5.28756">
        <ele>654</ele>
        <time>2020-05-31T08:03:47.999Z</time>
      </trkpt>
      <trkpt lat="43.8038" lon="5.28749">
        <ele>654</ele>
        <time>2020-05-31T08:03:52.999Z</time>
      </trkpt>
      <trkpt lat="43.80383" lon="5.28741">
        <ele>654</ele>
        <time>2020-05-31T08:03:57.999Z</time>
      </trkpt>
      <trkpt lat="43.80383" lon="5.28732">
        <ele>653</ele>
        <time>2020-05-31T08:04:02.999Z</time>
      </trkpt>
      <trkpt lat="43.80386" lon="5.28721">
        <ele>653</ele>
        <time>2020-05-31T08:04:07.999Z</time>
      </trkpt>
      <trkpt lat="43.80385" lon="5.28708">
        <ele>653</ele>
        <time>2020-05-31T08:04:12.999Z</time>
      </trkpt>
      <trkpt lat="43.80382" lon="5.28696">
        <ele>653</ele>
        <time>2020-05-31T08:04:16.999Z</time>
      </trkpt>
      <trkpt lat="43.80383" lon="5.28676">
        <ele>654</ele>
        <time>2020-05-31T08:04:21.999Z</time>
      </trkpt>
      <trkpt lat="43.80382" lon="5.28651">
        <ele>652</ele>
        <time>2020-05-31T08:04:26.999Z</time>
      </trkpt>
      <trkpt lat="43.80383" lon="5.28626">
        <ele>652</ele>
        <time>2020-05-31T08:04:31.999Z</time>
      </trkpt>
      <trkpt lat="43.80378" lon="5.28605">
        <ele>650</ele>
        <time>2020-05-31T08:04:36.999Z</time>
      </trkpt>
      <trkpt lat="43.80376" lon="5.28588">
        <ele>652</ele>
        <time>2020-05-31T08:04:41.999Z</time>
      </trkpt>
      <trkpt lat="43.80375" lon="5.28575">
        <ele>645</ele>
        <time>2020-05-31T08:04:46.999Z</time>
      </trkpt>
      <trkpt lat="43.80373" lon="5.28561">
        <ele>648</ele>
        <time>2020-05-31T08:04:51.999Z</time>
      </trkpt>
      <trkpt lat="43.80364" lon="5.28541">
        <ele>648</ele>
        <time>2020-05-31T08:04:56.999Z</time>
      </trkpt>
      <trkpt lat="43.80356" lon="5.28523">
        <ele>648</ele>
        <time>2020-05-31T08:05:01.999Z</time>
      </trkpt>
      <trkpt lat="43.80349" lon="5.28508">
        <ele>649</ele>
        <time>2020-05-31T08:05:06.999Z</time>
      </trkpt>
      <trkpt lat="43.80338" lon="5.28495">
        <ele>643</ele>
        <time>2020-05-31T08:05:11.999Z</time>
      </trkpt>
      <trkpt lat="43.80333" lon="5.28478">
        <ele>647</ele>
        <time>2020-05-31T08:05:16.999Z</time>
      </trkpt>
      <trkpt lat="43.80331" lon="5.28471">
        <ele>647</ele>
        <time>2020-05-31T08:05:21.999Z</time>
      </trkpt>
      <trkpt lat="43.80331" lon="5.2846">
        <ele>647</ele>
        <time>2020-05-31T08:05:45.999Z</time>
      </trkpt>
      <trkpt lat="43.80331" lon="5.2846">
        <ele>647</ele>
        <time>2020-05-31T08:05:50.999Z</time>
      </trkpt>
      <trkpt lat="43.80331" lon="5.2846">
        <ele>647</ele>
        <time>2020-05-31T08:05:55.999Z</time>
      </trkpt>
      <trkpt lat="43.80331" lon="5.28453">
        <ele>650</ele>
        <time>2020-05-31T08:06:00.999Z</time>
      </trkpt>
      <trkpt lat="43.80331" lon="5.28435">
        <ele>650</ele>
        <time>2020-05-31T08:06:05.999Z</time>
      </trkpt>
      <trkpt lat="43.80328" lon="5.28422">
        <ele>651</ele>
        <time>2020-05-31T08:06:10.999Z</time>
      </trkpt>
      <trkpt lat="43.80325" lon="5.28411">
        <ele>651</ele>
        <time>2020-05-31T08:06:15.999Z</time>
      </trkpt>
      <trkpt lat="43.8032" lon="5.28401">
        <ele>653</ele>
        <time>2020-05-31T08:06:20.999Z</time>
      </trkpt>
      <trkpt lat="43.80313" lon="5.28391">
        <ele>657</ele>
        <time>2020-05-31T08:06:25.999Z</time>
      </trkpt>
      <trkpt lat="43.80309" lon="5.28382">
        <ele>657</ele>
        <time>2020-05-31T08:06:30.999Z</time>
      </trkpt>
      <trkpt lat="43.80309" lon="5.28375">
        <ele>662</ele>
        <time>2020-05-31T08:06:35.999Z</time>
      </trkpt>
      <trkpt lat="43.80308" lon="5.28365">
        <ele>662</ele>
        <time>2020-05-31T08:06:40.999Z</time>
      </trkpt>
      <trkpt lat="43.80304" lon="5.28356">
        <ele>662</ele>
        <time>2020-05-31T08:06:45.999Z</time>
      </trkpt>
      <trkpt lat="43.80299" lon="5.28348">
        <ele>662</ele>
        <time>2020-05-31T08:06:50.999Z</time>
      </trkpt>
      <trkpt lat="43.80296" lon="5.2834">
        <ele>663</ele>
        <time>2020-05-31T08:06:55.999Z</time>
      </trkpt>
      <trkpt lat="43.80302" lon="5.28328">
        <ele>663</ele>
        <time>2020-05-31T08:07:00.999Z</time>
      </trkpt>
      <trkpt lat="43.8031" lon="5.28315">
        <ele>665</ele>
        <time>2020-05-31T08:07:05.999Z</time>
      </trkpt>
      <trkpt lat="43.80316" lon="5.28304">
        <ele>665</ele>
        <time>2020-05-31T08:07:10.999Z</time>
      </trkpt>
      <trkpt lat="43.80322" lon="5.28292">
        <ele>661</ele>
        <time>2020-05-31T08:07:15.999Z</time>
      </trkpt>
      <trkpt lat="43.80326" lon="5.28284">
        <ele>666</ele>
        <time>2020-05-31T08:07:20.999Z</time>
      </trkpt>
      <trkpt lat="43.80329" lon="5.28273">
        <ele>666</ele>
        <time>2020-05-31T08:07:25.999Z</time>
      </trkpt>
      <trkpt lat="43.80334" lon="5.28262">
        <ele>670</ele>
        <time>2020-05-31T08:07:30.999Z</time>
      </trkpt>
      <trkpt lat="43.80336" lon="5.28251">
        <ele>670</ele>
        <time>2020-05-31T08:07:35.999Z</time>
      </trkpt>
      <trkpt lat="43.80338" lon="5.28241">
        <ele>670</ele>
        <time>2020-05-31T08:07:40.999Z</time>
      </trkpt>
      <trkpt lat="43.8034" lon="5.28232">
        <ele>673</ele>
        <time>2020-05-31T08:07:45.999Z</time>
      </trkpt>
      <trkpt lat="43.8034" lon="5.28227">
        <ele>673</ele>
        <time>2020-05-31T08:07:50.999Z</time>
      </trkpt>
      <trkpt lat="43.8034" lon="5.28226">
        <ele>673</ele>
        <time>2020-05-31T08:07:55.999Z</time>
      </trkpt>
      <trkpt lat="43.80342" lon="5.28221">
        <ele>673</ele>
        <time>2020-05-31T08:08:00.999Z</time>
      </trkpt>
      <trkpt lat="43.80346" lon="5.28215">
        <ele>673</ele>
        <time>2020-05-31T08:08:05.999Z</time>
      </trkpt>
      <trkpt lat="43.8035" lon="5.28212">
        <ele>672</ele>
        <time>2020-05-31T08:08:10.999Z</time>
      </trkpt>
      <trkpt lat="43.80352" lon="5.28209">
        <ele>672</ele>
        <time>2020-05-31T08:08:15.999Z</time>
      </trkpt>
      <trkpt lat="43.80352" lon="5.28204">
        <ele>676</ele>
        <time>2020-05-31T08:08:20.999Z</time>
      </trkpt>
      <trkpt lat="43.80353" lon="5.28201">
        <ele>676</ele>
        <time>2020-05-31T08:08:25.999Z</time>
      </trkpt>
      <trkpt lat="43.80354" lon="5.28192">
        <ele>676</ele>
        <time>2020-05-31T08:08:30.999Z</time>
      </trkpt>
      <trkpt lat="43.80356" lon="5.28181">
        <ele>676</ele>
        <time>2020-05-31T08:08:35.999Z</time>
      </trkpt>
      <trkpt lat="43.80356" lon="5.28168">
        <ele>678</ele>
        <time>2020-05-31T08:08:40.999Z</time>
      </trkpt>
      <trkpt lat="43.80353" lon="5.28155">
        <ele>678</ele>
        <time>2020-05-31T08:08:45.999Z</time>
      </trkpt>
      <trkpt lat="43.80351" lon="5.28143">
        <ele>679</ele>
        <time>2020-05-31T08:08:50.999Z</time>
      </trkpt>
      <trkpt lat="43.80351" lon="5.28129">
        <ele>679</ele>
        <time>2020-05-31T08:08:55.999Z</time>
      </trkpt>
      <trkpt lat="43.80352" lon="5.28113">
        <ele>679</ele>
        <time>2020-05-31T08:09:00.999Z</time>
      </trkpt>
      <trkpt lat="43.80354" lon="5.28095">
        <ele>679</ele>
        <time>2020-05-31T08:09:05.999Z</time>
      </trkpt>
      <trkpt lat="43.80356" lon="5.28076">
        <ele>679</ele>
        <time>2020-05-31T08:09:10.999Z</time>
      </trkpt>
      <trkpt lat="43.80355" lon="5.28053">
        <ele>679</ele>
        <time>2020-05-31T08:09:15.999Z</time>
      </trkpt>
      <trkpt lat="43.80354" lon="5.28031">
        <ele>678</ele>
        <time>2020-05-31T08:09:20.999Z</time>
      </trkpt>
      <trkpt lat="43.80349" lon="5.28018">
        <ele>678</ele>
        <time>2020-05-31T08:09:25.999Z</time>
      </trkpt>
      <trkpt lat="43.80341" lon="5.28012">
        <ele>680</ele>
        <time>2020-05-31T08:09:30.999Z</time>
      </trkpt>
      <trkpt lat="43.80334" lon="5.28001">
        <ele>680</ele>
        <time>2020-05-31T08:09:40.999Z</time>
      </trkpt>
      <trkpt lat="43.80333" lon="5.28002">
        <ele>680</ele>
        <time>2020-05-31T08:09:45.999Z</time>
      </trkpt>
      <trkpt lat="43.80333" lon="5.27999">
        <ele>680</ele>
        <time>2020-05-31T08:09:50.999Z</time>
      </trkpt>
      <trkpt lat="43.80332" lon="5.27997">
        <ele>680</ele>
        <time>2020-05-31T08:09:55.999Z</time>
      </trkpt>
      <trkpt lat="43.80327" lon="5.27991">
        <ele>680</ele>
        <time>2020-05-31T08:10:00.999Z</time>
      </trkpt>
      <trkpt lat="43.80321" lon="5.27982">
        <ele>680</ele>
        <time>2020-05-31T08:10:04.999Z</time>
      </trkpt>
      <trkpt lat="43.80321" lon="5.27977">
        <ele>680</ele>
        <time>2020-05-31T08:10:09.999Z</time>
      </trkpt>
      <trkpt lat="43.80321" lon="5.27974">
        <ele>680</ele>
        <time>2020-05-31T08:10:13.999Z</time>
      </trkpt>
      <trkpt lat="43.80321" lon="5.2797">
        <ele>680</ele>
        <time>2020-05-31T08:10:18.999Z</time>
      </trkpt>
      <trkpt lat="43.80321" lon="5.27967">
        <ele>680</ele>
        <time>2020-05-31T08:10:23.999Z</time>
      </trkpt>
      <trkpt lat="43.80316" lon="5.27958">
        <ele>680</ele>
        <time>2020-05-31T08:10:28.999Z</time>
      </trkpt>
      <trkpt lat="43.80306" lon="5.27944">
        <ele>680</ele>
        <time>2020-05-31T08:10:33.999Z</time>
      </trkpt>
      <trkpt lat="43.80291" lon="5.27928">
        <ele>676</ele>
        <time>2020-05-31T08:10:38.999Z</time>
      </trkpt>
      <trkpt lat="43.80291" lon="5.27905">
        <ele>676</ele>
        <time>2020-05-31T08:10:43.999Z</time>
      </trkpt>
      <trkpt lat="43.80287" lon="5.27886">
        <ele>677</ele>
        <time>2020-05-31T08:10:48.999Z</time>
      </trkpt>
      <trkpt lat="43.80283" lon="5.2788">
        <ele>677</ele>
        <time>2020-05-31T08:10:53.999Z</time>
      </trkpt>
      <trkpt lat="43.80281" lon="5.27877">
        <ele>677</ele>
        <time>2020-05-31T08:10:58.999Z</time>
      </trkpt>
      <trkpt lat="43.80277" lon="5.27873">
        <ele>682</ele>
        <time>2020-05-31T08:11:02.999Z</time>
      </trkpt>
      <trkpt lat="43.80272" lon="5.27864">
        <ele>682</ele>
        <time>2020-05-31T08:11:07.999Z</time>
      </trkpt>
      <trkpt lat="43.80268" lon="5.27854">
        <ele>682</ele>
        <time>2020-05-31T08:11:13Z</time>
      </trkpt>
      <trkpt lat="43.80262" lon="5.27848">
        <ele>682</ele>
        <time>2020-05-31T08:11:18Z</time>
      </trkpt>
      <trkpt lat="43.80255" lon="5.27843">
        <ele>687</ele>
        <time>2020-05-31T08:11:23Z</time>
      </trkpt>
      <trkpt lat="43.8025" lon="5.27838">
        <ele>687</ele>
        <time>2020-05-31T08:11:27Z</time>
      </trkpt>
      <trkpt lat="43.80249" lon="5.27828">
        <ele>687</ele>
        <time>2020-05-31T08:11:32Z</time>
      </trkpt>
      <trkpt lat="43.80244" lon="5.27829">
        <ele>687</ele>
        <time>2020-05-31T08:11:36Z</time>
      </trkpt>
      <trkpt lat="43.80235" lon="5.27824">
        <ele>686</ele>
        <time>2020-05-31T08:11:41Z</time>
      </trkpt>
      <trkpt lat="43.80227" lon="5.27821">
        <ele>686</ele>
        <time>2020-05-31T08:11:46Z</time>
      </trkpt>
      <trkpt lat="43.80219" lon="5.27819">
        <ele>689</ele>
        <time>2020-05-31T08:11:51Z</time>
      </trkpt>
      <trkpt lat="43.80211" lon="5.2781">
        <ele>689</ele>
        <time>2020-05-31T08:11:56Z</time>
      </trkpt>
      <trkpt lat="43.80204" lon="5.278">
        <ele>686</ele>
        <time>2020-05-31T08:12:01Z</time>
      </trkpt>
      <trkpt lat="43.80196" lon="5.2779">
        <ele>690</ele>
        <time>2020-05-31T08:12:06Z</time>
      </trkpt>
      <trkpt lat="43.8019" lon="5.27779">
        <ele>690</ele>
        <time>2020-05-31T08:12:11Z</time>
      </trkpt>
      <trkpt lat="43.8018" lon="5.27768">
        <ele>686</ele>
        <time>2020-05-31T08:12:16Z</time>
      </trkpt>
      <trkpt lat="43.80168" lon="5.27767">
        <ele>686</ele>
        <time>2020-05-31T08:12:21Z</time>
      </trkpt>
      <trkpt lat="43.80156" lon="5.2776">
        <ele>691</ele>
        <time>2020-05-31T08:12:26Z</time>
      </trkpt>
      <trkpt lat="43.80153" lon="5.27751">
        <ele>691</ele>
        <time>2020-05-31T08:12:31Z</time>
      </trkpt>
      <trkpt lat="43.80149" lon="5.27745">
        <ele>688</ele>
        <time>2020-05-31T08:12:36Z</time>
      </trkpt>
      <trkpt lat="43.80144" lon="5.27734">
        <ele>693</ele>
        <time>2020-05-31T08:12:41Z</time>
      </trkpt>
      <trkpt lat="43.80139" lon="5.27728">
        <ele>693</ele>
        <time>2020-05-31T08:12:46Z</time>
      </trkpt>
      <trkpt lat="43.80134" lon="5.27724">
        <ele>693</ele>
        <time>2020-05-31T08:12:50Z</time>
      </trkpt>
      <trkpt lat="43.8013" lon="5.27716">
        <ele>693</ele>
        <time>2020-05-31T08:12:55Z</time>
      </trkpt>
      <trkpt lat="43.80126" lon="5.27711">
        <ele>693</ele>
        <time>2020-05-31T08:13:00Z</time>
      </trkpt>
      <trkpt lat="43.80118" lon="5.27708">
        <ele>693</ele>
        <time>2020-05-31T08:13:05Z</time>
      </trkpt>
      <trkpt lat="43.80112" lon="5.27704">
        <ele>695</ele>
        <time>2020-05-31T08:13:09Z</time>
      </trkpt>
      <trkpt lat="43.80106" lon="5.27698">
        <ele>695</ele>
        <time>2020-05-31T08:13:14Z</time>
      </trkpt>
      <trkpt lat="43.80099" lon="5.2769">
        <ele>695</ele>
        <time>2020-05-31T08:13:19Z</time>
      </trkpt>
      <trkpt lat="43.80091" lon="5.2769">
        <ele>695</ele>
        <time>2020-05-31T08:13:24Z</time>
      </trkpt>
      <trkpt lat="43.80087" lon="5.27681">
        <ele>695</ele>
        <time>2020-05-31T08:13:28Z</time>
      </trkpt>
      <trkpt lat="43.80087" lon="5.27672">
        <ele>697</ele>
        <time>2020-05-31T08:13:33Z</time>
      </trkpt>
      <trkpt lat="43.80085" lon="5.27666">
        <ele>697</ele>
        <time>2020-05-31T08:13:38Z</time>
      </trkpt>
      <trkpt lat="43.80084" lon="5.27664">
        <ele>697</ele>
        <time>2020-05-31T08:13:43Z</time>
      </trkpt>
      <trkpt lat="43.80081" lon="5.27653">
        <ele>697</ele>
        <time>2020-05-31T08:13:47Z</time>
      </trkpt>
      <trkpt lat="43.8008" lon="5.27641">
        <ele>699</ele>
        <time>2020-05-31T08:13:52Z</time>
      </trkpt>
      <trkpt lat="43.80083" lon="5.2763">
        <ele>699</ele>
        <time>2020-05-31T08:13:57Z</time>
      </trkpt>
      <trkpt lat="43.80075" lon="5.27619">
        <ele>700</ele>
        <time>2020-05-31T08:14:02Z</time>
      </trkpt>
      <trkpt lat="43.80072" lon="5.27606">
        <ele>700</ele>
        <time>2020-05-31T08:14:07Z</time>
      </trkpt>
      <trkpt lat="43.80067" lon="5.27595">
        <ele>700</ele>
        <time>2020-05-31T08:14:12Z</time>
      </trkpt>
      <trkpt lat="43.80061" lon="5.27581">
        <ele>700</ele>
        <time>2020-05-31T08:14:17Z</time>
      </trkpt>
      <trkpt lat="43.80054" lon="5.27564">
        <ele>701</ele>
        <time>2020-05-31T08:14:22Z</time>
      </trkpt>
      <trkpt lat="43.8005" lon="5.27554">
        <ele>701</ele>
        <time>2020-05-31T08:14:26Z</time>
      </trkpt>
      <trkpt lat="43.80042" lon="5.27541">
        <ele>702</ele>
        <time>2020-05-31T08:14:31Z</time>
      </trkpt>
      <trkpt lat="43.80036" lon="5.27526">
        <ele>701</ele>
        <time>2020-05-31T08:14:36Z</time>
      </trkpt>
      <trkpt lat="43.80033" lon="5.27511">
        <ele>703</ele>
        <time>2020-05-31T08:14:40Z</time>
      </trkpt>
      <trkpt lat="43.80031" lon="5.27493">
        <ele>703</ele>
        <time>2020-05-31T08:14:45Z</time>
      </trkpt>
      <trkpt lat="43.80027" lon="5.27474">
        <ele>703</ele>
        <time>2020-05-31T08:14:50Z</time>
      </trkpt>
      <trkpt lat="43.80023" lon="5.27456">
        <ele>704</ele>
        <time>2020-05-31T08:14:55Z</time>
      </trkpt>
      <trkpt lat="43.80019" lon="5.27437">
        <ele>704</ele>
        <time>2020-05-31T08:15:00Z</time>
      </trkpt>
      <trkpt lat="43.80013" lon="5.2742">
        <ele>702</ele>
        <time>2020-05-31T08:15:05Z</time>
      </trkpt>
      <trkpt lat="43.80007" lon="5.27403">
        <ele>702</ele>
        <time>2020-05-31T08:15:10Z</time>
      </trkpt>
      <trkpt lat="43.8" lon="5.27382">
        <ele>703</ele>
        <time>2020-05-31T08:15:15Z</time>
      </trkpt>
      <trkpt lat="43.79992" lon="5.27364">
        <ele>704</ele>
        <time>2020-05-31T08:15:20Z</time>
      </trkpt>
      <trkpt lat="43.79989" lon="5.27352">
        <ele>704</ele>
        <time>2020-05-31T08:15:24Z</time>
      </trkpt>
      <trkpt lat="43.79989" lon="5.27346">
        <ele>706</ele>
        <time>2020-05-31T08:15:29Z</time>
      </trkpt>
      <trkpt lat="43.79984" lon="5.27339">
        <ele>705</ele>
        <time>2020-05-31T08:15:34Z</time>
      </trkpt>
      <trkpt lat="43.7998" lon="5.27323">
        <ele>705</ele>
        <time>2020-05-31T08:15:39Z</time>
      </trkpt>
      <trkpt lat="43.79976" lon="5.27308">
        <ele>708</ele>
        <time>2020-05-31T08:15:44Z</time>
      </trkpt>
      <trkpt lat="43.79973" lon="5.27291">
        <ele>709</ele>
        <time>2020-05-31T08:15:49Z</time>
      </trkpt>
      <trkpt lat="43.79973" lon="5.27277">
        <ele>709</ele>
        <time>2020-05-31T08:15:53Z</time>
      </trkpt>
      <trkpt lat="43.7997" lon="5.27262">
        <ele>710</ele>
        <time>2020-05-31T08:15:58Z</time>
      </trkpt>
      <trkpt lat="43.79967" lon="5.27248">
        <ele>710</ele>
        <time>2020-05-31T08:16:02Z</time>
      </trkpt>
      <trkpt lat="43.79963" lon="5.27231">
        <ele>711</ele>
        <time>2020-05-31T08:16:07Z</time>
      </trkpt>
      <trkpt lat="43.79964" lon="5.27216">
        <ele>711</ele>
        <time>2020-05-31T08:16:12Z</time>
      </trkpt>
      <trkpt lat="43.79963" lon="5.27204">
        <ele>710</ele>
        <time>2020-05-31T08:16:16Z</time>
      </trkpt>
      <trkpt lat="43.79962" lon="5.27186">
        <ele>710</ele>
        <time>2020-05-31T08:16:21Z</time>
      </trkpt>
      <trkpt lat="43.79959" lon="5.27168">
        <ele>710</ele>
        <time>2020-05-31T08:16:26Z</time>
      </trkpt>
      <trkpt lat="43.79959" lon="5.27149">
        <ele>710</ele>
        <time>2020-05-31T08:16:31Z</time>
      </trkpt>
      <trkpt lat="43.79961" lon="5.27123">
        <ele>710</ele>
        <time>2020-05-31T08:16:35.999Z</time>
      </trkpt>
      <trkpt lat="43.79961" lon="5.27109">
        <ele>710</ele>
        <time>2020-05-31T08:16:39.999Z</time>
      </trkpt>
      <trkpt lat="43.79962" lon="5.27097">
        <ele>710</ele>
        <time>2020-05-31T08:16:44.999Z</time>
      </trkpt>
      <trkpt lat="43.79958" lon="5.27086">
        <ele>702</ele>
        <time>2020-05-31T08:16:49.999Z</time>
      </trkpt>
      <trkpt lat="43.79959" lon="5.2707">
        <ele>710</ele>
        <time>2020-05-31T08:16:54.999Z</time>
      </trkpt>
      <trkpt lat="43.7996" lon="5.27057">
        <ele>710</ele>
        <time>2020-05-31T08:16:59.999Z</time>
      </trkpt>
      <trkpt lat="43.79963" lon="5.27054">
        <ele>710</ele>
        <time>2020-05-31T08:17:04.999Z</time>
      </trkpt>
      <trkpt lat="43.79966" lon="5.27051">
        <ele>710</ele>
        <time>2020-05-31T08:17:09.999Z</time>
      </trkpt>
      <trkpt lat="43.79972" lon="5.27045">
        <ele>710</ele>
        <time>2020-05-31T08:17:14.999Z</time>
      </trkpt>
      <trkpt lat="43.79981" lon="5.27041">
        <ele>707</ele>
        <time>2020-05-31T08:17:19.999Z</time>
      </trkpt>
      <trkpt lat="43.79987" lon="5.27038">
        <ele>716</ele>
        <time>2020-05-31T08:17:24.999Z</time>
      </trkpt>
      <trkpt lat="43.79995" lon="5.27039">
        <ele>716</ele>
        <time>2020-05-31T08:17:29.999Z</time>
      </trkpt>
      <trkpt lat="43.80002" lon="5.2704">
        <ele>716</ele>
        <time>2020-05-31T08:17:33.999Z</time>
      </trkpt>
      <trkpt lat="43.80015" lon="5.27039">
        <ele>721</ele>
        <time>2020-05-31T08:17:38.999Z</time>
      </trkpt>
      <trkpt lat="43.80025" lon="5.27036">
        <ele>721</ele>
        <time>2020-05-31T08:17:42.999Z</time>
      </trkpt>
      <trkpt lat="43.80035" lon="5.27031">
        <ele>721</ele>
        <time>2020-05-31T08:17:47.999Z</time>
      </trkpt>
      <trkpt lat="43.80043" lon="5.27025">
        <ele>722</ele>
        <time>2020-05-31T08:17:52.999Z</time>
      </trkpt>
      <trkpt lat="43.80051" lon="5.27022">
        <ele>722</ele>
        <time>2020-05-31T08:17:56.999Z</time>
      </trkpt>
      <trkpt lat="43.80061" lon="5.27017">
        <ele>722</ele>
        <time>2020-05-31T08:18:01.999Z</time>
      </trkpt>
      <trkpt lat="43.80065" lon="5.27003">
        <ele>720</ele>
        <time>2020-05-31T08:18:06.999Z</time>
      </trkpt>
      <trkpt lat="43.80066" lon="5.26986">
        <ele>719</ele>
        <time>2020-05-31T08:18:11.999Z</time>
      </trkpt>
      <trkpt lat="43.80068" lon="5.2697">
        <ele>719</ele>
        <time>2020-05-31T08:18:17Z</time>
      </trkpt>
      <trkpt lat="43.8007" lon="5.26958">
        <ele>722</ele>
        <time>2020-05-31T08:18:22Z</time>
      </trkpt>
      <trkpt lat="43.80073" lon="5.26948">
        <ele>722</ele>
        <time>2020-05-31T08:18:27Z</time>
      </trkpt>
      <trkpt lat="43.80076" lon="5.26935">
        <ele>722</ele>
        <time>2020-05-31T08:18:32Z</time>
      </trkpt>
      <trkpt lat="43.80077" lon="5.26923">
        <ele>722</ele>
        <time>2020-05-31T08:18:36Z</time>
      </trkpt>
      <trkpt lat="43.80081" lon="5.26905">
        <ele>722</ele>
        <time>2020-05-31T08:18:41Z</time>
      </trkpt>
      <trkpt lat="43.80087" lon="5.26893">
        <ele>721</ele>
        <time>2020-05-31T08:18:46Z</time>
      </trkpt>
      <trkpt lat="43.80091" lon="5.26882">
        <ele>721</ele>
        <time>2020-05-31T08:18:51Z</time>
      </trkpt>
      <trkpt lat="43.80093" lon="5.26868">
        <ele>720</ele>
        <time>2020-05-31T08:18:56Z</time>
      </trkpt>
      <trkpt lat="43.801" lon="5.26851">
        <ele>721</ele>
        <time>2020-05-31T08:19:01Z</time>
      </trkpt>
      <trkpt lat="43.80104" lon="5.26836">
        <ele>719</ele>
        <time>2020-05-31T08:19:06Z</time>
      </trkpt>
      <trkpt lat="43.80108" lon="5.26814">
        <ele>718</ele>
        <time>2020-05-31T08:19:11Z</time>
      </trkpt>
      <trkpt lat="43.8011" lon="5.26797">
        <ele>718</ele>
        <time>2020-05-31T08:19:16Z</time>
      </trkpt>
      <trkpt lat="43.80108" lon="5.26779">
        <ele>717</ele>
        <time>2020-05-31T08:19:21Z</time>
      </trkpt>
      <trkpt lat="43.801" lon="5.26776">
        <ele>717</ele>
        <time>2020-05-31T08:19:26Z</time>
      </trkpt>
      <trkpt lat="43.80088" lon="5.26773">
        <ele>717</ele>
        <time>2020-05-31T08:19:31Z</time>
      </trkpt>
      <trkpt lat="43.80079" lon="5.26763">
        <ele>718</ele>
        <time>2020-05-31T08:19:36Z</time>
      </trkpt>
      <trkpt lat="43.80074" lon="5.26755">
        <ele>718</ele>
        <time>2020-05-31T08:19:41Z</time>
      </trkpt>
      <trkpt lat="43.80068" lon="5.26745">
        <ele>719</ele>
        <time>2020-05-31T08:19:46Z</time>
      </trkpt>
      <trkpt lat="43.8006" lon="5.26736">
        <ele>720</ele>
        <time>2020-05-31T08:19:51Z</time>
      </trkpt>
      <trkpt lat="43.80052" lon="5.26732">
        <ele>720</ele>
        <time>2020-05-31T08:19:55Z</time>
      </trkpt>
      <trkpt lat="43.80039" lon="5.2673">
        <ele>720</ele>
        <time>2020-05-31T08:20:00Z</time>
      </trkpt>
      <trkpt lat="43.80029" lon="5.26727">
        <ele>720</ele>
        <time>2020-05-31T08:20:04Z</time>
      </trkpt>
      <trkpt lat="43.80015" lon="5.26724">
        <ele>720</ele>
        <time>2020-05-31T08:20:09Z</time>
      </trkpt>
      <trkpt lat="43.80003" lon="5.26722">
        <ele>720</ele>
        <time>2020-05-31T08:20:14Z</time>
      </trkpt>
      <trkpt lat="43.79991" lon="5.26719">
        <ele>720</ele>
        <time>2020-05-31T08:20:19Z</time>
      </trkpt>
      <trkpt lat="43.7998" lon="5.2672">
        <ele>720</ele>
        <time>2020-05-31T08:20:24Z</time>
      </trkpt>
      <trkpt lat="43.79967" lon="5.2672">
        <ele>720</ele>
        <time>2020-05-31T08:20:29Z</time>
      </trkpt>
      <trkpt lat="43.79953" lon="5.26721">
        <ele>720</ele>
        <time>2020-05-31T08:20:34Z</time>
      </trkpt>
      <trkpt lat="43.79942" lon="5.26719">
        <ele>720</ele>
        <time>2020-05-31T08:20:39Z</time>
      </trkpt>
      <trkpt lat="43.79925" lon="5.26714">
        <ele>719</ele>
        <time>2020-05-31T08:20:44Z</time>
      </trkpt>
      <trkpt lat="43.79913" lon="5.26714">
        <ele>719</ele>
        <time>2020-05-31T08:20:49Z</time>
      </trkpt>
      <trkpt lat="43.79901" lon="5.26715">
        <ele>717</ele>
        <time>2020-05-31T08:20:54Z</time>
      </trkpt>
      <trkpt lat="43.79891" lon="5.26712">
        <ele>717</ele>
        <time>2020-05-31T08:20:59Z</time>
      </trkpt>
      <trkpt lat="43.79872" lon="5.26699">
        <ele>715</ele>
        <time>2020-05-31T08:21:04Z</time>
      </trkpt>
      <trkpt lat="43.79858" lon="5.26698">
        <ele>715</ele>
        <time>2020-05-31T08:21:09Z</time>
      </trkpt>
      <trkpt lat="43.79842" lon="5.26696">
        <ele>713</ele>
        <time>2020-05-31T08:21:14Z</time>
      </trkpt>
      <trkpt lat="43.79824" lon="5.26691">
        <ele>713</ele>
        <time>2020-05-31T08:21:19Z</time>
      </trkpt>
      <trkpt lat="43.79807" lon="5.26688">
        <ele>711</ele>
        <time>2020-05-31T08:21:24Z</time>
      </trkpt>
      <trkpt lat="43.79788" lon="5.26681">
        <ele>711</ele>
        <time>2020-05-31T08:21:29Z</time>
      </trkpt>
      <trkpt lat="43.79775" lon="5.26675">
        <ele>710</ele>
        <time>2020-05-31T08:21:34Z</time>
      </trkpt>
      <trkpt lat="43.79762" lon="5.26667">
        <ele>710</ele>
        <time>2020-05-31T08:21:39Z</time>
      </trkpt>
      <trkpt lat="43.7975" lon="5.26666">
        <ele>710</ele>
        <time>2020-05-31T08:21:43Z</time>
      </trkpt>
      <trkpt lat="43.79738" lon="5.2666">
        <ele>710</ele>
        <time>2020-05-31T08:21:47Z</time>
      </trkpt>
      <trkpt lat="43.79722" lon="5.26652">
        <ele>709</ele>
        <time>2020-05-31T08:21:52Z</time>
      </trkpt>
      <trkpt lat="43.79701" lon="5.26657">
        <ele>706</ele>
        <time>2020-05-31T08:21:57Z</time>
      </trkpt>
      <trkpt lat="43.79688" lon="5.2666">
        <ele>706</ele>
        <time>2020-05-31T08:22:01Z</time>
      </trkpt>
      <trkpt lat="43.79672" lon="5.26664">
        <ele>706</ele>
        <time>2020-05-31T08:22:06Z</time>
      </trkpt>
      <trkpt lat="43.79651" lon="5.26667">
        <ele>703</ele>
        <time>2020-05-31T08:22:11Z</time>
      </trkpt>
      <trkpt lat="43.79637" lon="5.26669">
        <ele>703</ele>
        <time>2020-05-31T08:22:15Z</time>
      </trkpt>
      <trkpt lat="43.7962" lon="5.2667">
        <ele>700</ele>
        <time>2020-05-31T08:22:20Z</time>
      </trkpt>
      <trkpt lat="43.79604" lon="5.26665">
        <ele>700</ele>
        <time>2020-05-31T08:22:25Z</time>
      </trkpt>
      <trkpt lat="43.7959" lon="5.26666">
        <ele>700</ele>
        <time>2020-05-31T08:22:30Z</time>
      </trkpt>
      <trkpt lat="43.79579" lon="5.26667">
        <ele>700</ele>
        <time>2020-05-31T08:22:35Z</time>
      </trkpt>
      <trkpt lat="43.79565" lon="5.26667">
        <ele>699</ele>
        <time>2020-05-31T08:22:40Z</time>
      </trkpt>
      <trkpt lat="43.79559" lon="5.26669">
        <ele>699</ele>
        <time>2020-05-31T08:22:44Z</time>
      </trkpt>
      <trkpt lat="43.79548" lon="5.26671">
        <ele>699</ele>
        <time>2020-05-31T08:22:49Z</time>
      </trkpt>
      <trkpt lat="43.79534" lon="5.26675">
        <ele>697</ele>
        <time>2020-05-31T08:22:54Z</time>
      </trkpt>
      <trkpt lat="43.79526" lon="5.26674">
        <ele>697</ele>
        <time>2020-05-31T08:22:59Z</time>
      </trkpt>
      <trkpt lat="43.79523" lon="5.26679">
        <ele>697</ele>
        <time>2020-05-31T08:23:03Z</time>
      </trkpt>
      <trkpt lat="43.79518" lon="5.26687">
        <ele>692</ele>
        <time>2020-05-31T08:23:07Z</time>
      </trkpt>
      <trkpt lat="43.79507" lon="5.267">
        <ele>692</ele>
        <time>2020-05-31T08:23:12Z</time>
      </trkpt>
      <trkpt lat="43.7949" lon="5.26712">
        <ele>687</ele>
        <time>2020-05-31T08:23:17Z</time>
      </trkpt>
      <trkpt lat="43.79474" lon="5.26719">
        <ele>690</ele>
        <time>2020-05-31T08:23:22Z</time>
      </trkpt>
      <trkpt lat="43.79466" lon="5.26724">
        <ele>690</ele>
        <time>2020-05-31T08:23:27Z</time>
      </trkpt>
      <trkpt lat="43.79456" lon="5.26732">
        <ele>691</ele>
        <time>2020-05-31T08:23:32Z</time>
      </trkpt>
      <trkpt lat="43.79444" lon="5.26739">
        <ele>687</ele>
        <time>2020-05-31T08:23:37Z</time>
      </trkpt>
      <trkpt lat="43.79441" lon="5.26744">
        <ele>687</ele>
        <time>2020-05-31T08:27:23.999Z</time>
      </trkpt>
      <trkpt lat="43.79433" lon="5.2675">
        <ele>687</ele>
        <time>2020-05-31T08:27:28.999Z</time>
      </trkpt>
      <trkpt lat="43.79429" lon="5.26752">
        <ele>688</ele>
        <time>2020-05-31T08:27:32.999Z</time>
      </trkpt>
      <trkpt lat="43.79419" lon="5.26754">
        <ele>688</ele>
        <time>2020-05-31T08:27:37.999Z</time>
      </trkpt>
      <trkpt lat="43.79414" lon="5.26759">
        <ele>688</ele>
        <time>2020-05-31T08:27:41.999Z</time>
      </trkpt>
      <trkpt lat="43.79413" lon="5.26758">
        <ele>688</ele>
        <time>2020-05-31T08:27:46.999Z</time>
      </trkpt>
      <trkpt lat="43.79412" lon="5.26759">
        <ele>688</ele>
        <time>2020-05-31T08:27:51.999Z</time>
      </trkpt>
      <trkpt lat="43.79412" lon="5.26762">
        <ele>688</ele>
        <time>2020-05-31T08:27:55.999Z</time>
      </trkpt>
      <trkpt lat="43.79409" lon="5.26771">
        <ele>684</ele>
        <time>2020-05-31T08:27:59.999Z</time>
      </trkpt>
      <trkpt lat="43.79405" lon="5.26777">
        <ele>684</ele>
        <time>2020-05-31T08:28:04.999Z</time>
      </trkpt>
      <trkpt lat="43.79404" lon="5.26789">
        <ele>684</ele>
        <time>2020-05-31T08:28:09.999Z</time>
      </trkpt>
      <trkpt lat="43.794" lon="5.26806">
        <ele>681</ele>
        <time>2020-05-31T08:28:14.999Z</time>
      </trkpt>
      <trkpt lat="43.79394" lon="5.26828">
        <ele>678</ele>
        <time>2020-05-31T08:28:19.999Z</time>
      </trkpt>
      <trkpt lat="43.7939" lon="5.26842">
        <ele>678</ele>
        <time>2020-05-31T08:28:24.999Z</time>
      </trkpt>
      <trkpt lat="43.79385" lon="5.26848">
        <ele>675</ele>
        <time>2020-05-31T08:28:29.999Z</time>
      </trkpt>
      <trkpt lat="43.79382" lon="5.26853">
        <ele>675</ele>
        <time>2020-05-31T08:28:34.999Z</time>
      </trkpt>
      <trkpt lat="43.79378" lon="5.26857">
        <ele>675</ele>
        <time>2020-05-31T08:28:39.999Z</time>
      </trkpt>
      <trkpt lat="43.79374" lon="5.2686">
        <ele>682</ele>
        <time>2020-05-31T08:28:44.999Z</time>
      </trkpt>
      <trkpt lat="43.79372" lon="5.26863">
        <ele>682</ele>
        <time>2020-05-31T08:28:49.999Z</time>
      </trkpt>
      <trkpt lat="43.7937" lon="5.2687">
        <ele>682</ele>
        <time>2020-05-31T08:28:54.999Z</time>
      </trkpt>
      <trkpt lat="43.79365" lon="5.26877">
        <ele>680</ele>
        <time>2020-05-31T08:28:59.999Z</time>
      </trkpt>
      <trkpt lat="43.79356" lon="5.26898">
        <ele>680</ele>
        <time>2020-05-31T08:29:04.999Z</time>
      </trkpt>
      <trkpt lat="43.79351" lon="5.26917">
        <ele>677</ele>
        <time>2020-05-31T08:29:09.999Z</time>
      </trkpt>
      <trkpt lat="43.79351" lon="5.26936">
        <ele>673</ele>
        <time>2020-05-31T08:29:14.999Z</time>
      </trkpt>
      <trkpt lat="43.7935" lon="5.26971">
        <ele>669</ele>
        <time>2020-05-31T08:29:19.999Z</time>
      </trkpt>
      <trkpt lat="43.79352" lon="5.26987">
        <ele>668</ele>
        <time>2020-05-31T08:29:24.999Z</time>
      </trkpt>
      <trkpt lat="43.79351" lon="5.26999">
        <ele>668</ele>
        <time>2020-05-31T08:29:29.999Z</time>
      </trkpt>
      <trkpt lat="43.79349" lon="5.27006">
        <ele>668</ele>
        <time>2020-05-31T08:29:34.999Z</time>
      </trkpt>
      <trkpt lat="43.79348" lon="5.27012">
        <ele>668</ele>
        <time>2020-05-31T08:29:39.999Z</time>
      </trkpt>
      <trkpt lat="43.79354" lon="5.27024">
        <ele>669</ele>
        <time>2020-05-31T08:29:44.999Z</time>
      </trkpt>
      <trkpt lat="43.79362" lon="5.27037">
        <ele>669</ele>
        <time>2020-05-31T08:29:48.999Z</time>
      </trkpt>
      <trkpt lat="43.79366" lon="5.27048">
        <ele>672</ele>
        <time>2020-05-31T08:29:53.999Z</time>
      </trkpt>
      <trkpt lat="43.79373" lon="5.27064">
        <ele>672</ele>
        <time>2020-05-31T08:29:58.999Z</time>
      </trkpt>
      <trkpt lat="43.79375" lon="5.27081">
        <ele>672</ele>
        <time>2020-05-31T08:30:03.999Z</time>
      </trkpt>
      <trkpt lat="43.79375" lon="5.27096">
        <ele>672</ele>
        <time>2020-05-31T08:30:08.999Z</time>
      </trkpt>
      <trkpt lat="43.79373" lon="5.27118">
        <ele>669</ele>
        <time>2020-05-31T08:30:13.999Z</time>
      </trkpt>
      <trkpt lat="43.79365" lon="5.2713">
        <ele>665</ele>
        <time>2020-05-31T08:30:17.999Z</time>
      </trkpt>
      <trkpt lat="43.79354" lon="5.2715">
        <ele>665</ele>
        <time>2020-05-31T08:30:22.999Z</time>
      </trkpt>
      <trkpt lat="43.79344" lon="5.27159">
        <ele>663</ele>
        <time>2020-05-31T08:30:27.999Z</time>
      </trkpt>
      <trkpt lat="43.79335" lon="5.27169">
        <ele>663</ele>
        <time>2020-05-31T08:30:32.999Z</time>
      </trkpt>
      <trkpt lat="43.79327" lon="5.27181">
        <ele>663</ele>
        <time>2020-05-31T08:30:36.999Z</time>
      </trkpt>
      <trkpt lat="43.79322" lon="5.27216">
        <ele>652</ele>
        <time>2020-05-31T08:31:35.998Z</time>
      </trkpt>
      <trkpt lat="43.79322" lon="5.27217">
        <ele>652</ele>
        <time>2020-05-31T08:31:40.998Z</time>
      </trkpt>
      <trkpt lat="43.79326" lon="5.27221">
        <ele>652</ele>
        <time>2020-05-31T08:31:44.998Z</time>
      </trkpt>
      <trkpt lat="43.79325" lon="5.27241">
        <ele>648</ele>
        <time>2020-05-31T08:31:49.998Z</time>
      </trkpt>
      <trkpt lat="43.79321" lon="5.2726">
        <ele>648</ele>
        <time>2020-05-31T08:31:53.998Z</time>
      </trkpt>
      <trkpt lat="43.79317" lon="5.27269">
        <ele>647</ele>
        <time>2020-05-31T08:31:58.998Z</time>
      </trkpt>
      <trkpt lat="43.79317" lon="5.27278">
        <ele>647</ele>
        <time>2020-05-31T08:32:02.998Z</time>
      </trkpt>
      <trkpt lat="43.79322" lon="5.27295">
        <ele>649</ele>
        <time>2020-05-31T08:32:07.998Z</time>
      </trkpt>
      <trkpt lat="43.79325" lon="5.27325">
        <ele>646</ele>
        <time>2020-05-31T08:32:12.998Z</time>
      </trkpt>
      <trkpt lat="43.79317" lon="5.27353">
        <ele>642</ele>
        <time>2020-05-31T08:32:17.998Z</time>
      </trkpt>
      <trkpt lat="43.7931" lon="5.27374">
        <ele>642</ele>
        <time>2020-05-31T08:32:22.998Z</time>
      </trkpt>
      <trkpt lat="43.79303" lon="5.27405">
        <ele>639</ele>
        <time>2020-05-31T08:32:27.999Z</time>
      </trkpt>
      <trkpt lat="43.79297" lon="5.27434">
        <ele>634</ele>
        <time>2020-05-31T08:32:32.999Z</time>
      </trkpt>
      <trkpt lat="43.79295" lon="5.27453">
        <ele>634</ele>
        <time>2020-05-31T08:32:37.999Z</time>
      </trkpt>
      <trkpt lat="43.79289" lon="5.2747">
        <ele>632</ele>
        <time>2020-05-31T08:32:41.999Z</time>
      </trkpt>
      <trkpt lat="43.79283" lon="5.27482">
        <ele>632</ele>
        <time>2020-05-31T08:32:46.999Z</time>
      </trkpt>
      <trkpt lat="43.79275" lon="5.27501">
        <ele>630</ele>
        <time>2020-05-31T08:32:51.999Z</time>
      </trkpt>
      <trkpt lat="43.79261" lon="5.27514">
        <ele>623</ele>
        <time>2020-05-31T08:32:56.999Z</time>
      </trkpt>
      <trkpt lat="43.79252" lon="5.27531">
        <ele>624</ele>
        <time>2020-05-31T08:33:00.999Z</time>
      </trkpt>
      <trkpt lat="43.79244" lon="5.27541">
        <ele>624</ele>
        <time>2020-05-31T08:33:05.999Z</time>
      </trkpt>
      <trkpt lat="43.79239" lon="5.27555">
        <ele>627</ele>
        <time>2020-05-31T08:33:10.999Z</time>
      </trkpt>
      <trkpt lat="43.79231" lon="5.27574">
        <ele>620</ele>
        <time>2020-05-31T08:33:15.999Z</time>
      </trkpt>
      <trkpt lat="43.79218" lon="5.27583">
        <ele>620</ele>
        <time>2020-05-31T08:33:20.999Z</time>
      </trkpt>
      <trkpt lat="43.79217" lon="5.27584">
        <ele>620</ele>
        <time>2020-05-31T08:33:25.999Z</time>
      </trkpt>
      <trkpt lat="43.79214" lon="5.27584">
        <ele>620</ele>
        <time>2020-05-31T08:33:30.999Z</time>
      </trkpt>
      <trkpt lat="43.79215" lon="5.2758">
        <ele>620</ele>
        <time>2020-05-31T08:34:29.999Z</time>
      </trkpt>
      <trkpt lat="43.79212" lon="5.27586">
        <ele>620</ele>
        <time>2020-05-31T08:34:33.999Z</time>
      </trkpt>
      <trkpt lat="43.79203" lon="5.27593">
        <ele>611</ele>
        <time>2020-05-31T08:34:38.999Z</time>
      </trkpt>
      <trkpt lat="43.79202" lon="5.27595">
        <ele>611</ele>
        <time>2020-05-31T08:34:42.999Z</time>
      </trkpt>
      <trkpt lat="43.79202" lon="5.27595">
        <ele>611</ele>
        <time>2020-05-31T08:34:47.999Z</time>
      </trkpt>
      <trkpt lat="43.792" lon="5.27597">
        <ele>612</ele>
        <time>2020-05-31T08:34:52.999Z</time>
      </trkpt>
      <trkpt lat="43.79198" lon="5.27609">
        <ele>612</ele>
        <time>2020-05-31T08:34:57.999Z</time>
      </trkpt>
      <trkpt lat="43.79195" lon="5.27618">
        <ele>612</ele>
        <time>2020-05-31T08:35:02.999Z</time>
      </trkpt>
      <trkpt lat="43.79186" lon="5.27616">
        <ele>612</ele>
        <time>2020-05-31T08:35:07.999Z</time>
      </trkpt>
      <trkpt lat="43.7918" lon="5.27616">
        <ele>604</ele>
        <time>2020-05-31T08:35:11.999Z</time>
      </trkpt>
      <trkpt lat="43.79171" lon="5.27616">
        <ele>604</ele>
        <time>2020-05-31T08:35:16.999Z</time>
      </trkpt>
      <trkpt lat="43.79164" lon="5.27618">
        <ele>604</ele>
        <time>2020-05-31T08:35:20.999Z</time>
      </trkpt>
      <trkpt lat="43.79164" lon="5.27616">
        <ele>604</ele>
        <time>2020-05-31T08:35:25.999Z</time>
      </trkpt>
      <trkpt lat="43.79156" lon="5.27616">
        <ele>604</ele>
        <time>2020-05-31T08:36:09.999Z</time>
      </trkpt>
      <trkpt lat="43.79156" lon="5.27616">
        <ele>604</ele>
        <time>2020-05-31T08:36:14.999Z</time>
      </trkpt>
      <trkpt lat="43.79153" lon="5.27616">
        <ele>604</ele>
        <time>2020-05-31T08:36:19.999Z</time>
      </trkpt>
      <trkpt lat="43.79143" lon="5.27623">
        <ele>593</ele>
        <time>2020-05-31T08:36:24.999Z</time>
      </trkpt>
      <trkpt lat="43.7914" lon="5.27621">
        <ele>593</ele>
        <time>2020-05-31T08:36:29.999Z</time>
      </trkpt>
      <trkpt lat="43.79136" lon="5.27623">
        <ele>593</ele>
        <time>2020-05-31T08:37:17.999Z</time>
      </trkpt>
      <trkpt lat="43.79135" lon="5.27627">
        <ele>593</ele>
        <time>2020-05-31T08:37:22.999Z</time>
      </trkpt>
      <trkpt lat="43.79126" lon="5.27634">
        <ele>593</ele>
        <time>2020-05-31T08:37:27.999Z</time>
      </trkpt>
      <trkpt lat="43.79111" lon="5.27641">
        <ele>586</ele>
        <time>2020-05-31T08:37:32.999Z</time>
      </trkpt>
      <trkpt lat="43.79096" lon="5.27637">
        <ele>579</ele>
        <time>2020-05-31T08:37:37.999Z</time>
      </trkpt>
      <trkpt lat="43.79075" lon="5.27633">
        <ele>579</ele>
        <time>2020-05-31T08:37:42.999Z</time>
      </trkpt>
      <trkpt lat="43.79048" lon="5.27633">
        <ele>573</ele>
        <time>2020-05-31T08:37:47.999Z</time>
      </trkpt>
      <trkpt lat="43.79016" lon="5.27642">
        <ele>571</ele>
        <time>2020-05-31T08:37:52.999Z</time>
      </trkpt>
      <trkpt lat="43.78996" lon="5.2764">
        <ele>570</ele>
        <time>2020-05-31T08:37:56.999Z</time>
      </trkpt>
      <trkpt lat="43.7899" lon="5.27641">
        <ele>570</ele>
        <time>2020-05-31T08:53:49Z</time>
      </trkpt>
      <trkpt lat="43.78988" lon="5.27643">
        <ele>570</ele>
        <time>2020-05-31T08:53:53Z</time>
      </trkpt>
      <trkpt lat="43.78988" lon="5.27641">
        <ele>570</ele>
        <time>2020-05-31T08:53:58Z</time>
      </trkpt>
      <trkpt lat="43.78987" lon="5.27641">
        <ele>570</ele>
        <time>2020-05-31T08:54:03Z</time>
      </trkpt>
      <trkpt lat="43.78985" lon="5.27635">
        <ele>572</ele>
        <time>2020-05-31T08:54:07Z</time>
      </trkpt>
      <trkpt lat="43.7898" lon="5.27628">
        <ele>572</ele>
        <time>2020-05-31T08:54:12Z</time>
      </trkpt>
      <trkpt lat="43.78975" lon="5.27623">
        <ele>571</ele>
        <time>2020-05-31T08:54:16Z</time>
      </trkpt>
      <trkpt lat="43.78967" lon="5.27604">
        <ele>571</ele>
        <time>2020-05-31T08:54:21Z</time>
      </trkpt>
      <trkpt lat="43.7896" lon="5.27585">
        <ele>568</ele>
        <time>2020-05-31T08:54:26Z</time>
      </trkpt>
      <trkpt lat="43.78954" lon="5.27578">
        <ele>575</ele>
        <time>2020-05-31T08:54:31Z</time>
      </trkpt>
      <trkpt lat="43.7895" lon="5.27574">
        <ele>575</ele>
        <time>2020-05-31T08:54:36Z</time>
      </trkpt>
      <trkpt lat="43.78945" lon="5.27565">
        <ele>571</ele>
        <time>2020-05-31T08:54:40.999Z</time>
      </trkpt>
      <trkpt lat="43.78938" lon="5.27547">
        <ele>571</ele>
        <time>2020-05-31T08:54:45.999Z</time>
      </trkpt>
      <trkpt lat="43.78932" lon="5.27532">
        <ele>566</ele>
        <time>2020-05-31T08:54:50.999Z</time>
      </trkpt>
      <trkpt lat="43.78926" lon="5.27518">
        <ele>578</ele>
        <time>2020-05-31T08:54:55.999Z</time>
      </trkpt>
      <trkpt lat="43.78919" lon="5.275">
        <ele>572</ele>
        <time>2020-05-31T08:55:00.999Z</time>
      </trkpt>
      <trkpt lat="43.78911" lon="5.27487">
        <ele>572</ele>
        <time>2020-05-31T08:55:05.999Z</time>
      </trkpt>
      <trkpt lat="43.78901" lon="5.27482">
        <ele>570</ele>
        <time>2020-05-31T08:55:10.999Z</time>
      </trkpt>
      <trkpt lat="43.78883" lon="5.2748">
        <ele>570</ele>
        <time>2020-05-31T08:55:15.999Z</time>
      </trkpt>
      <trkpt lat="43.78866" lon="5.27481">
        <ele>568</ele>
        <time>2020-05-31T08:55:20.999Z</time>
      </trkpt>
      <trkpt lat="43.78845" lon="5.27484">
        <ele>568</ele>
        <time>2020-05-31T08:55:25.999Z</time>
      </trkpt>
      <trkpt lat="43.78822" lon="5.27476">
        <ele>568</ele>
        <time>2020-05-31T08:55:30.999Z</time>
      </trkpt>
      <trkpt lat="43.7881" lon="5.27471">
        <ele>570</ele>
        <time>2020-05-31T08:55:35.999Z</time>
      </trkpt>
      <trkpt lat="43.78802" lon="5.27472">
        <ele>570</ele>
        <time>2020-05-31T08:55:40.999Z</time>
      </trkpt>
      <trkpt lat="43.78795" lon="5.2747">
        <ele>570</ele>
        <time>2020-05-31T08:55:45.999Z</time>
      </trkpt>
      <trkpt lat="43.78787" lon="5.27467">
        <ele>571</ele>
        <time>2020-05-31T08:55:49.999Z</time>
      </trkpt>
      <trkpt lat="43.78775" lon="5.27461">
        <ele>571</ele>
        <time>2020-05-31T08:55:54.999Z</time>
      </trkpt>
      <trkpt lat="43.78764" lon="5.27454">
        <ele>572</ele>
        <time>2020-05-31T08:55:59.999Z</time>
      </trkpt>
      <trkpt lat="43.78752" lon="5.27448">
        <ele>572</ele>
        <time>2020-05-31T08:56:04.999Z</time>
      </trkpt>
      <trkpt lat="43.78742" lon="5.27436">
        <ele>572</ele>
        <time>2020-05-31T08:56:09.999Z</time>
      </trkpt>
      <trkpt lat="43.78737" lon="5.2743">
        <ele>575</ele>
        <time>2020-05-31T08:56:13.999Z</time>
      </trkpt>
      <trkpt lat="43.78728" lon="5.27429">
        <ele>576</ele>
        <time>2020-05-31T08:56:18.999Z</time>
      </trkpt>
      <trkpt lat="43.7872" lon="5.27422">
        <ele>576</ele>
        <time>2020-05-31T08:56:23.999Z</time>
      </trkpt>
      <trkpt lat="43.78713" lon="5.27418">
        <ele>576</ele>
        <time>2020-05-31T08:56:27.999Z</time>
      </trkpt>
      <trkpt lat="43.78705" lon="5.27412">
        <ele>578</ele>
        <time>2020-05-31T08:56:32.999Z</time>
      </trkpt>
      <trkpt lat="43.78698" lon="5.27404">
        <ele>578</ele>
        <time>2020-05-31T08:56:37.999Z</time>
      </trkpt>
      <trkpt lat="43.78691" lon="5.274">
        <ele>584</ele>
        <time>2020-05-31T08:56:41.999Z</time>
      </trkpt>
      <trkpt lat="43.78684" lon="5.27394">
        <ele>584</ele>
        <time>2020-05-31T08:56:46.999Z</time>
      </trkpt>
      <trkpt lat="43.78679" lon="5.27393">
        <ele>581</ele>
        <time>2020-05-31T08:56:51.999Z</time>
      </trkpt>
      <trkpt lat="43.7867" lon="5.27388">
        <ele>581</ele>
        <time>2020-05-31T08:56:56.999Z</time>
      </trkpt>
      <trkpt lat="43.7866" lon="5.27383">
        <ele>581</ele>
        <time>2020-05-31T08:57:01.999Z</time>
      </trkpt>
      <trkpt lat="43.78657" lon="5.27378">
        <ele>581</ele>
        <time>2020-05-31T08:57:05.999Z</time>
      </trkpt>
      <trkpt lat="43.78645" lon="5.27374">
        <ele>584</ele>
        <time>2020-05-31T08:57:10.999Z</time>
      </trkpt>
      <trkpt lat="43.7863" lon="5.27375">
        <ele>576</ele>
        <time>2020-05-31T08:57:15.999Z</time>
      </trkpt>
      <trkpt lat="43.78619" lon="5.27383">
        <ele>574</ele>
        <time>2020-05-31T08:57:20.998Z</time>
      </trkpt>
      <trkpt lat="43.7861" lon="5.27386">
        <ele>574</ele>
        <time>2020-05-31T08:57:25.998Z</time>
      </trkpt>
      <trkpt lat="43.78603" lon="5.2739">
        <ele>574</ele>
        <time>2020-05-31T08:57:30.998Z</time>
      </trkpt>
      <trkpt lat="43.78595" lon="5.27395">
        <ele>579</ele>
        <time>2020-05-31T08:57:35.998Z</time>
      </trkpt>
      <trkpt lat="43.78586" lon="5.27399">
        <ele>579</ele>
        <time>2020-05-31T08:57:40.998Z</time>
      </trkpt>
      <trkpt lat="43.78573" lon="5.274">
        <ele>579</ele>
        <time>2020-05-31T08:57:45.998Z</time>
      </trkpt>
      <trkpt lat="43.78566" lon="5.27394">
        <ele>577</ele>
        <time>2020-05-31T08:57:50.998Z</time>
      </trkpt>
      <trkpt lat="43.78557" lon="5.27389">
        <ele>577</ele>
        <time>2020-05-31T08:57:55.998Z</time>
      </trkpt>
      <trkpt lat="43.78545" lon="5.27387">
        <ele>577</ele>
        <time>2020-05-31T08:58:00.998Z</time>
      </trkpt>
      <trkpt lat="43.78537" lon="5.2738">
        <ele>573</ele>
        <time>2020-05-31T08:58:05.998Z</time>
      </trkpt>
      <trkpt lat="43.78536" lon="5.27372">
        <ele>576</ele>
        <time>2020-05-31T08:58:10.998Z</time>
      </trkpt>
      <trkpt lat="43.78534" lon="5.2737">
        <ele>576</ele>
        <time>2020-05-31T08:58:15.998Z</time>
      </trkpt>
      <trkpt lat="43.78535" lon="5.27365">
        <ele>576</ele>
        <time>2020-05-31T08:58:20.998Z</time>
      </trkpt>
      <trkpt lat="43.78527" lon="5.27364">
        <ele>576</ele>
        <time>2020-05-31T08:59:10.998Z</time>
      </trkpt>
      <trkpt lat="43.78527" lon="5.27364">
        <ele>576</ele>
        <time>2020-05-31T08:59:14.998Z</time>
      </trkpt>
      <trkpt lat="43.78527" lon="5.27364">
        <ele>576</ele>
        <time>2020-05-31T08:59:19.998Z</time>
      </trkpt>
      <trkpt lat="43.78526" lon="5.27363">
        <ele>576</ele>
        <time>2020-05-31T08:59:24.998Z</time>
      </trkpt>
      <trkpt lat="43.78523" lon="5.27359">
        <ele>576</ele>
        <time>2020-05-31T08:59:28.998Z</time>
      </trkpt>
      <trkpt lat="43.78517" lon="5.27347">
        <ele>578</ele>
        <time>2020-05-31T08:59:33.998Z</time>
      </trkpt>
      <trkpt lat="43.7851" lon="5.27319">
        <ele>572</ele>
        <time>2020-05-31T08:59:37.998Z</time>
      </trkpt>
      <trkpt lat="43.785" lon="5.27292">
        <ele>572</ele>
        <time>2020-05-31T08:59:42.998Z</time>
      </trkpt>
      <trkpt lat="43.7849" lon="5.27267">
        <ele>572</ele>
        <time>2020-05-31T08:59:46.998Z</time>
      </trkpt>
      <trkpt lat="43.7848" lon="5.27258">
        <ele>564</ele>
        <time>2020-05-31T08:59:51.998Z</time>
      </trkpt>
      <trkpt lat="43.78467" lon="5.27251">
        <ele>564</ele>
        <time>2020-05-31T08:59:56.998Z</time>
      </trkpt>
      <trkpt lat="43.78456" lon="5.27244">
        <ele>556</ele>
        <time>2020-05-31T09:00:01.998Z</time>
      </trkpt>
      <trkpt lat="43.78444" lon="5.27244">
        <ele>556</ele>
        <time>2020-05-31T09:00:05.998Z</time>
      </trkpt>
      <trkpt lat="43.78427" lon="5.27244">
        <ele>551</ele>
        <time>2020-05-31T09:00:10.998Z</time>
      </trkpt>
      <trkpt lat="43.78413" lon="5.27242">
        <ele>551</ele>
        <time>2020-05-31T09:00:15.998Z</time>
      </trkpt>
      <trkpt lat="43.78397" lon="5.2724">
        <ele>548</ele>
        <time>2020-05-31T09:00:20.998Z</time>
      </trkpt>
      <trkpt lat="43.78385" lon="5.27238">
        <ele>548</ele>
        <time>2020-05-31T09:00:25.998Z</time>
      </trkpt>
      <trkpt lat="43.78376" lon="5.27232">
        <ele>548</ele>
        <time>2020-05-31T09:00:35.998Z</time>
      </trkpt>
      <trkpt lat="43.78374" lon="5.27233">
        <ele>546</ele>
        <time>2020-05-31T09:00:40.998Z</time>
      </trkpt>
      <trkpt lat="43.78374" lon="5.27233">
        <ele>546</ele>
        <time>2020-05-31T09:00:45.998Z</time>
      </trkpt>
      <trkpt lat="43.78374" lon="5.27233">
        <ele>546</ele>
        <time>2020-05-31T09:00:50.999Z</time>
      </trkpt>
      <trkpt lat="43.78371" lon="5.27237">
        <ele>546</ele>
        <time>2020-05-31T09:00:54.999Z</time>
      </trkpt>
      <trkpt lat="43.78366" lon="5.27234">
        <ele>546</ele>
        <time>2020-05-31T09:00:58.999Z</time>
      </trkpt>
      <trkpt lat="43.7836" lon="5.27224">
        <ele>546</ele>
        <time>2020-05-31T09:01:03.999Z</time>
      </trkpt>
      <trkpt lat="43.78351" lon="5.27216">
        <ele>546</ele>
        <time>2020-05-31T09:01:08.999Z</time>
      </trkpt>
      <trkpt lat="43.78343" lon="5.27205">
        <ele>541</ele>
        <time>2020-05-31T09:01:13.999Z</time>
      </trkpt>
      <trkpt lat="43.78341" lon="5.27199">
        <ele>541</ele>
        <time>2020-05-31T09:01:18.999Z</time>
      </trkpt>
      <trkpt lat="43.78344" lon="5.27188">
        <ele>541</ele>
        <time>2020-05-31T09:01:23.999Z</time>
      </trkpt>
      <trkpt lat="43.78345" lon="5.27171">
        <ele>538</ele>
        <time>2020-05-31T09:01:28.999Z</time>
      </trkpt>
      <trkpt lat="43.78341" lon="5.27152">
        <ele>536</ele>
        <time>2020-05-31T09:01:33.999Z</time>
      </trkpt>
      <trkpt lat="43.78339" lon="5.27135">
        <ele>536</ele>
        <time>2020-05-31T09:01:38.999Z</time>
      </trkpt>
      <trkpt lat="43.78336" lon="5.27118">
        <ele>533</ele>
        <time>2020-05-31T09:01:43.999Z</time>
      </trkpt>
      <trkpt lat="43.78335" lon="5.27105">
        <ele>533</ele>
        <time>2020-05-31T09:01:47.999Z</time>
      </trkpt>
      <trkpt lat="43.78328" lon="5.27092">
        <ele>530</ele>
        <time>2020-05-31T09:01:52.999Z</time>
      </trkpt>
      <trkpt lat="43.78315" lon="5.27072">
        <ele>529</ele>
        <time>2020-05-31T09:01:57.999Z</time>
      </trkpt>
      <trkpt lat="43.78305" lon="5.27056">
        <ele>527</ele>
        <time>2020-05-31T09:02:02.999Z</time>
      </trkpt>
      <trkpt lat="43.78297" lon="5.27045">
        <ele>527</ele>
        <time>2020-05-31T09:02:07.999Z</time>
      </trkpt>
      <trkpt lat="43.78296" lon="5.2703">
        <ele>526</ele>
        <time>2020-05-31T09:02:12.999Z</time>
      </trkpt>
      <trkpt lat="43.78292" lon="5.27022">
        <ele>526</ele>
        <time>2020-05-31T09:02:16.999Z</time>
      </trkpt>
      <trkpt lat="43.78294" lon="5.27012">
        <ele>525</ele>
        <time>2020-05-31T09:02:21.999Z</time>
      </trkpt>
      <trkpt lat="43.78295" lon="5.26998">
        <ele>525</ele>
        <time>2020-05-31T09:02:26.999Z</time>
      </trkpt>
      <trkpt lat="43.78292" lon="5.26982">
        <ele>522</ele>
        <time>2020-05-31T09:02:31.999Z</time>
      </trkpt>
      <trkpt lat="43.78287" lon="5.26962">
        <ele>525</ele>
        <time>2020-05-31T09:02:36.999Z</time>
      </trkpt>
      <trkpt lat="43.78277" lon="5.26953">
        <ele>521</ele>
        <time>2020-05-31T09:02:41.999Z</time>
      </trkpt>
      <trkpt lat="43.78263" lon="5.26938">
        <ele>522</ele>
        <time>2020-05-31T09:02:46.999Z</time>
      </trkpt>
      <trkpt lat="43.78254" lon="5.26928">
        <ele>518</ele>
        <time>2020-05-31T09:02:51.999Z</time>
      </trkpt>
      <trkpt lat="43.7825" lon="5.26913">
        <ele>518</ele>
        <time>2020-05-31T09:02:56.999Z</time>
      </trkpt>
      <trkpt lat="43.78238" lon="5.269">
        <ele>517</ele>
        <time>2020-05-31T09:03:01.999Z</time>
      </trkpt>
      <trkpt lat="43.78234" lon="5.2689">
        <ele>520</ele>
        <time>2020-05-31T09:03:05.999Z</time>
      </trkpt>
      <trkpt lat="43.78234" lon="5.2687">
        <ele>521</ele>
        <time>2020-05-31T09:03:10.999Z</time>
      </trkpt>
      <trkpt lat="43.7823" lon="5.26855">
        <ele>521</ele>
        <time>2020-05-31T09:03:15.999Z</time>
      </trkpt>
      <trkpt lat="43.78226" lon="5.26845">
        <ele>520</ele>
        <time>2020-05-31T09:03:20.999Z</time>
      </trkpt>
      <trkpt lat="43.78216" lon="5.26834">
        <ele>520</ele>
        <time>2020-05-31T09:03:25.999Z</time>
      </trkpt>
      <trkpt lat="43.78209" lon="5.26814">
        <ele>512</ele>
        <time>2020-05-31T09:03:30.999Z</time>
      </trkpt>
      <trkpt lat="43.78201" lon="5.26801">
        <ele>512</ele>
        <time>2020-05-31T09:03:34.999Z</time>
      </trkpt>
      <trkpt lat="43.78186" lon="5.26786">
        <ele>508</ele>
        <time>2020-05-31T09:03:39.999Z</time>
      </trkpt>
      <trkpt lat="43.78174" lon="5.26782">
        <ele>507</ele>
        <time>2020-05-31T09:03:43.999Z</time>
      </trkpt>
      <trkpt lat="43.78161" lon="5.26768">
        <ele>507</ele>
        <time>2020-05-31T09:03:48.999Z</time>
      </trkpt>
      <trkpt lat="43.78147" lon="5.26758">
        <ele>502</ele>
        <time>2020-05-31T09:03:53.999Z</time>
      </trkpt>
      <trkpt lat="43.78137" lon="5.26737">
        <ele>502</ele>
        <time>2020-05-31T09:03:58.999Z</time>
      </trkpt>
      <trkpt lat="43.78119" lon="5.26718">
        <ele>501</ele>
        <time>2020-05-31T09:04:03.999Z</time>
      </trkpt>
      <trkpt lat="43.78103" lon="5.26709">
        <ele>501</ele>
        <time>2020-05-31T09:04:08.999Z</time>
      </trkpt>
      <trkpt lat="43.78096" lon="5.26712">
        <ele>502</ele>
        <time>2020-05-31T09:04:13.999Z</time>
      </trkpt>
      <trkpt lat="43.78092" lon="5.26715">
        <ele>502</ele>
        <time>2020-05-31T09:04:18.999Z</time>
      </trkpt>
      <trkpt lat="43.78079" lon="5.267">
        <ele>499</ele>
        <time>2020-05-31T09:04:23.999Z</time>
      </trkpt>
      <trkpt lat="43.78068" lon="5.26696">
        <ele>501</ele>
        <time>2020-05-31T09:04:27.999Z</time>
      </trkpt>
      <trkpt lat="43.78059" lon="5.26691">
        <ele>501</ele>
        <time>2020-05-31T09:04:32.999Z</time>
      </trkpt>
      <trkpt lat="43.78047" lon="5.26683">
        <ele>501</ele>
        <time>2020-05-31T09:04:37.999Z</time>
      </trkpt>
      <trkpt lat="43.78037" lon="5.26675">
        <ele>501</ele>
        <time>2020-05-31T09:04:42.999Z</time>
      </trkpt>
      <trkpt lat="43.78032" lon="5.26667">
        <ele>501</ele>
        <time>2020-05-31T09:04:46.999Z</time>
      </trkpt>
      <trkpt lat="43.78022" lon="5.26652">
        <ele>499</ele>
        <time>2020-05-31T09:04:51.999Z</time>
      </trkpt>
      <trkpt lat="43.78012" lon="5.26635">
        <ele>501</ele>
        <time>2020-05-31T09:04:56.999Z</time>
      </trkpt>
      <trkpt lat="43.78004" lon="5.2663">
        <ele>501</ele>
        <time>2020-05-31T09:05:01.999Z</time>
      </trkpt>
      <trkpt lat="43.77992" lon="5.26622">
        <ele>498</ele>
        <time>2020-05-31T09:05:06.999Z</time>
      </trkpt>
      <trkpt lat="43.77982" lon="5.26611">
        <ele>501</ele>
        <time>2020-05-31T09:05:11.999Z</time>
      </trkpt>
      <trkpt lat="43.77967" lon="5.266">
        <ele>501</ele>
        <time>2020-05-31T09:05:16.999Z</time>
      </trkpt>
      <trkpt lat="43.77952" lon="5.26591">
        <ele>495</ele>
        <time>2020-05-31T09:05:21.999Z</time>
      </trkpt>
      <trkpt lat="43.7794" lon="5.26579">
        <ele>495</ele>
        <time>2020-05-31T09:05:26.999Z</time>
      </trkpt>
      <trkpt lat="43.77925" lon="5.2656">
        <ele>483</ele>
        <time>2020-05-31T09:05:31.999Z</time>
      </trkpt>
      <trkpt lat="43.77909" lon="5.26548">
        <ele>483</ele>
        <time>2020-05-31T09:05:36.999Z</time>
      </trkpt>
      <trkpt lat="43.77899" lon="5.26545">
        <ele>482</ele>
        <time>2020-05-31T09:05:40.998Z</time>
      </trkpt>
      <trkpt lat="43.77889" lon="5.26549">
        <ele>482</ele>
        <time>2020-05-31T09:05:45.998Z</time>
      </trkpt>
      <trkpt lat="43.77886" lon="5.26556">
        <ele>482</ele>
        <time>2020-05-31T09:06:14.998Z</time>
      </trkpt>
      <trkpt lat="43.77886" lon="5.26557">
        <ele>482</ele>
        <time>2020-05-31T09:06:19.998Z</time>
      </trkpt>
      <trkpt lat="43.77886" lon="5.26557">
        <ele>482</ele>
        <time>2020-05-31T09:06:24.998Z</time>
      </trkpt>
      <trkpt lat="43.77883" lon="5.26559">
        <ele>482</ele>
        <time>2020-05-31T09:06:29.998Z</time>
      </trkpt>
      <trkpt lat="43.77878" lon="5.26563">
        <ele>482</ele>
        <time>2020-05-31T09:06:33.998Z</time>
      </trkpt>
      <trkpt lat="43.77864" lon="5.26584">
        <ele>473</ele>
        <time>2020-05-31T09:06:57.998Z</time>
      </trkpt>
      <trkpt lat="43.77864" lon="5.26584">
        <ele>473</ele>
        <time>2020-05-31T09:07:07.998Z</time>
      </trkpt>
      <trkpt lat="43.77861" lon="5.26588">
        <ele>473</ele>
        <time>2020-05-31T09:07:12.998Z</time>
      </trkpt>
      <trkpt lat="43.77855" lon="5.26594">
        <ele>473</ele>
        <time>2020-05-31T09:07:16.998Z</time>
      </trkpt>
      <trkpt lat="43.77847" lon="5.26603">
        <ele>471</ele>
        <time>2020-05-31T09:07:21.998Z</time>
      </trkpt>
      <trkpt lat="43.77844" lon="5.26607">
        <ele>456</ele>
        <time>2020-05-31T09:07:25.998Z</time>
      </trkpt>
      <trkpt lat="43.77834" lon="5.26613">
        <ele>456</ele>
        <time>2020-05-31T09:07:30.998Z</time>
      </trkpt>
      <trkpt lat="43.77829" lon="5.26614">
        <ele>456</ele>
        <time>2020-05-31T09:07:35.998Z</time>
      </trkpt>
      <trkpt lat="43.77827" lon="5.2661">
        <ele>456</ele>
        <time>2020-05-31T09:07:40.998Z</time>
      </trkpt>
      <trkpt lat="43.7782" lon="5.26621">
        <ele>456</ele>
        <time>2020-05-31T09:07:45.998Z</time>
      </trkpt>
      <trkpt lat="43.7782" lon="5.26632">
        <ele>450</ele>
        <time>2020-05-31T09:07:50.998Z</time>
      </trkpt>
      <trkpt lat="43.77816" lon="5.26644">
        <ele>437</ele>
        <time>2020-05-31T09:07:56Z</time>
      </trkpt>
      <trkpt lat="43.77815" lon="5.26655">
        <ele>432</ele>
        <time>2020-05-31T09:08:01Z</time>
      </trkpt>
      <trkpt lat="43.77814" lon="5.26665">
        <ele>432</ele>
        <time>2020-05-31T09:08:06Z</time>
      </trkpt>
      <trkpt lat="43.77812" lon="5.26678">
        <ele>432</ele>
        <time>2020-05-31T09:08:11Z</time>
      </trkpt>
      <trkpt lat="43.77805" lon="5.26683">
        <ele>429</ele>
        <time>2020-05-31T09:08:16Z</time>
      </trkpt>
      <trkpt lat="43.77793" lon="5.26682">
        <ele>429</ele>
        <time>2020-05-31T09:08:21Z</time>
      </trkpt>
      <trkpt lat="43.77772" lon="5.26668">
        <ele>421</ele>
        <time>2020-05-31T09:08:40.999Z</time>
      </trkpt>
      <trkpt lat="43.77767" lon="5.26661">
        <ele>421</ele>
        <time>2020-05-31T09:08:45.999Z</time>
      </trkpt>
      <trkpt lat="43.77756" lon="5.26645">
        <ele>411</ele>
        <time>2020-05-31T09:08:50.999Z</time>
      </trkpt>
      <trkpt lat="43.77749" lon="5.26628">
        <ele>411</ele>
        <time>2020-05-31T09:08:55.999Z</time>
      </trkpt>
      <trkpt lat="43.77742" lon="5.26617">
        <ele>414</ele>
        <time>2020-05-31T09:08:59.999Z</time>
      </trkpt>
      <trkpt lat="43.77731" lon="5.26601">
        <ele>401</ele>
        <time>2020-05-31T09:09:04.999Z</time>
      </trkpt>
      <trkpt lat="43.77721" lon="5.2659">
        <ele>403</ele>
        <time>2020-05-31T09:09:09.999Z</time>
      </trkpt>
      <trkpt lat="43.7771" lon="5.26585">
        <ele>403</ele>
        <time>2020-05-31T09:09:13.999Z</time>
      </trkpt>
      <trkpt lat="43.77699" lon="5.2659">
        <ele>395</ele>
        <time>2020-05-31T09:09:18.999Z</time>
      </trkpt>
      <trkpt lat="43.77674" lon="5.2663">
        <ele>381</ele>
        <time>2020-05-31T09:09:38.999Z</time>
      </trkpt>
      <trkpt lat="43.77671" lon="5.2663">
        <ele>381</ele>
        <time>2020-05-31T09:09:43.999Z</time>
      </trkpt>
      <trkpt lat="43.77666" lon="5.26634">
        <ele>381</ele>
        <time>2020-05-31T09:09:47.999Z</time>
      </trkpt>
      <trkpt lat="43.77658" lon="5.26646">
        <ele>381</ele>
        <time>2020-05-31T09:09:52.999Z</time>
      </trkpt>
      <trkpt lat="43.77645" lon="5.2665">
        <ele>380</ele>
        <time>2020-05-31T09:09:57.999Z</time>
      </trkpt>
      <trkpt lat="43.77634" lon="5.26652">
        <ele>380</ele>
        <time>2020-05-31T09:10:20.999Z</time>
      </trkpt>
      <trkpt lat="43.77634" lon="5.26652">
        <ele>380</ele>
        <time>2020-05-31T09:10:25.999Z</time>
      </trkpt>
      <trkpt lat="43.77631" lon="5.26649">
        <ele>380</ele>
        <time>2020-05-31T09:10:30.999Z</time>
      </trkpt>
      <trkpt lat="43.77625" lon="5.26645">
        <ele>380</ele>
        <time>2020-05-31T09:10:35.999Z</time>
      </trkpt>
      <trkpt lat="43.77616" lon="5.26643">
        <ele>383</ele>
        <time>2020-05-31T09:10:40.999Z</time>
      </trkpt>
      <trkpt lat="43.77603" lon="5.26639">
        <ele>383</ele>
        <time>2020-05-31T09:10:45.999Z</time>
      </trkpt>
      <trkpt lat="43.77596" lon="5.26637">
        <ele>385</ele>
        <time>2020-05-31T09:10:49.999Z</time>
      </trkpt>
      <trkpt lat="43.77589" lon="5.26636">
        <ele>385</ele>
        <time>2020-05-31T09:10:54.999Z</time>
      </trkpt>
      <trkpt lat="43.7758" lon="5.26637">
        <ele>385</ele>
        <time>2020-05-31T09:10:59.999Z</time>
      </trkpt>
      <trkpt lat="43.77571" lon="5.26637">
        <ele>385</ele>
        <time>2020-05-31T09:11:04.999Z</time>
      </trkpt>
      <trkpt lat="43.77565" lon="5.2664">
        <ele>389</ele>
        <time>2020-05-31T09:11:09.999Z</time>
      </trkpt>
      <trkpt lat="43.77558" lon="5.2664">
        <ele>389</ele>
        <time>2020-05-31T09:11:14.999Z</time>
      </trkpt>
      <trkpt lat="43.77552" lon="5.26642">
        <ele>389</ele>
        <time>2020-05-31T09:11:19.999Z</time>
      </trkpt>
      <trkpt lat="43.77544" lon="5.26642">
        <ele>389</ele>
        <time>2020-05-31T09:11:24.999Z</time>
      </trkpt>
      <trkpt lat="43.77533" lon="5.26639">
        <ele>392</ele>
        <time>2020-05-31T09:11:29.999Z</time>
      </trkpt>
      <trkpt lat="43.77522" lon="5.26629">
        <ele>392</ele>
        <time>2020-05-31T09:11:34.999Z</time>
      </trkpt>
      <trkpt lat="43.77508" lon="5.26615">
        <ele>390</ele>
        <time>2020-05-31T09:11:39.999Z</time>
      </trkpt>
      <trkpt lat="43.77483" lon="5.26594">
        <ele>383</ele>
        <time>2020-05-31T09:11:59.999Z</time>
      </trkpt>
      <trkpt lat="43.77474" lon="5.26593">
        <ele>383</ele>
        <time>2020-05-31T09:12:04.999Z</time>
      </trkpt>
      <trkpt lat="43.77468" lon="5.26597">
        <ele>383</ele>
        <time>2020-05-31T09:12:09.999Z</time>
      </trkpt>
      <trkpt lat="43.77463" lon="5.26593">
        <ele>383</ele>
        <time>2020-05-31T09:12:13.999Z</time>
      </trkpt>
      <trkpt lat="43.77455" lon="5.26585">
        <ele>378</ele>
        <time>2020-05-31T09:12:18.999Z</time>
      </trkpt>
      <trkpt lat="43.77451" lon="5.26579">
        <ele>378</ele>
        <time>2020-05-31T09:12:23.999Z</time>
      </trkpt>
      <trkpt lat="43.77446" lon="5.26577">
        <ele>378</ele>
        <time>2020-05-31T09:12:28.999Z</time>
      </trkpt>
      <trkpt lat="43.77443" lon="5.2657">
        <ele>378</ele>
        <time>2020-05-31T09:12:32.999Z</time>
      </trkpt>
      <trkpt lat="43.77435" lon="5.26563">
        <ele>384</ele>
        <time>2020-05-31T09:12:37.999Z</time>
      </trkpt>
      <trkpt lat="43.77431" lon="5.26561">
        <ele>384</ele>
        <time>2020-05-31T09:12:42.999Z</time>
      </trkpt>
      <trkpt lat="43.77429" lon="5.26555">
        <ele>379</ele>
        <time>2020-05-31T09:12:46.999Z</time>
      </trkpt>
      <trkpt lat="43.77427" lon="5.26555">
        <ele>379</ele>
        <time>2020-05-31T09:12:51.999Z</time>
      </trkpt>
      <trkpt lat="43.77419" lon="5.26549">
        <ele>379</ele>
        <time>2020-05-31T09:12:56.999Z</time>
      </trkpt>
      <trkpt lat="43.77415" lon="5.26544">
        <ele>379</ele>
        <time>2020-05-31T09:13:01.999Z</time>
      </trkpt>
      <trkpt lat="43.77417" lon="5.2654">
        <ele>389</ele>
        <time>2020-05-31T09:13:05.999Z</time>
      </trkpt>
      <trkpt lat="43.77416" lon="5.26532">
        <ele>389</ele>
        <time>2020-05-31T09:13:10.999Z</time>
      </trkpt>
      <trkpt lat="43.77413" lon="5.26529">
        <ele>389</ele>
        <time>2020-05-31T09:13:15.999Z</time>
      </trkpt>
      <trkpt lat="43.77407" lon="5.26529">
        <ele>389</ele>
        <time>2020-05-31T09:14:23.998Z</time>
      </trkpt>
      <trkpt lat="43.77406" lon="5.26529">
        <ele>389</ele>
        <time>2020-05-31T09:14:28.998Z</time>
      </trkpt>
      <trkpt lat="43.77405" lon="5.2653">
        <ele>389</ele>
        <time>2020-05-31T09:14:33.998Z</time>
      </trkpt>
      <trkpt lat="43.77404" lon="5.2653">
        <ele>389</ele>
        <time>2020-05-31T09:14:38.998Z</time>
      </trkpt>
      <trkpt lat="43.77399" lon="5.26526">
        <ele>384</ele>
        <time>2020-05-31T09:14:43.998Z</time>
      </trkpt>
      <trkpt lat="43.77397" lon="5.26516">
        <ele>384</ele>
        <time>2020-05-31T09:15:37Z</time>
      </trkpt>
      <trkpt lat="43.77396" lon="5.26515">
        <ele>384</ele>
        <time>2020-05-31T09:15:42Z</time>
      </trkpt>
      <trkpt lat="43.77393" lon="5.26511">
        <ele>392</ele>
        <time>2020-05-31T09:15:47Z</time>
      </trkpt>
      <trkpt lat="43.7739" lon="5.26511">
        <ele>392</ele>
        <time>2020-05-31T09:15:52Z</time>
      </trkpt>
      <trkpt lat="43.77387" lon="5.26511">
        <ele>392</ele>
        <time>2020-05-31T09:15:57Z</time>
      </trkpt>
      <trkpt lat="43.77387" lon="5.26508">
        <ele>392</ele>
        <time>2020-05-31T09:16:02Z</time>
      </trkpt>
      <trkpt lat="43.77386" lon="5.26505">
        <ele>392</ele>
        <time>2020-05-31T09:16:07Z</time>
      </trkpt>
      <trkpt lat="43.77386" lon="5.26504">
        <ele>392</ele>
        <time>2020-05-31T09:16:11Z</time>
      </trkpt>
      <trkpt lat="43.77382" lon="5.26497">
        <ele>392</ele>
        <time>2020-05-31T09:16:16Z</time>
      </trkpt>
      <trkpt lat="43.77375" lon="5.26488">
        <ele>387</ele>
        <time>2020-05-31T09:16:21Z</time>
      </trkpt>
      <trkpt lat="43.77363" lon="5.2648">
        <ele>394</ele>
        <time>2020-05-31T09:16:26Z</time>
      </trkpt>
      <trkpt lat="43.77352" lon="5.26471">
        <ele>394</ele>
        <time>2020-05-31T09:16:31Z</time>
      </trkpt>
      <trkpt lat="43.7734" lon="5.2647">
        <ele>391</ele>
        <time>2020-05-31T09:16:36Z</time>
      </trkpt>
      <trkpt lat="43.77332" lon="5.26462">
        <ele>391</ele>
        <time>2020-05-31T09:16:41Z</time>
      </trkpt>
      <trkpt lat="43.77322" lon="5.26458">
        <ele>397</ele>
        <time>2020-05-31T09:16:45Z</time>
      </trkpt>
      <trkpt lat="43.77314" lon="5.2645">
        <ele>395</ele>
        <time>2020-05-31T09:16:50Z</time>
      </trkpt>
      <trkpt lat="43.77306" lon="5.26445">
        <ele>395</ele>
        <time>2020-05-31T09:16:55Z</time>
      </trkpt>
      <trkpt lat="43.77292" lon="5.2644">
        <ele>395</ele>
        <time>2020-05-31T09:17:00Z</time>
      </trkpt>
      <trkpt lat="43.7728" lon="5.26437">
        <ele>389</ele>
        <time>2020-05-31T09:17:04.999Z</time>
      </trkpt>
      <trkpt lat="43.77267" lon="5.26442">
        <ele>389</ele>
        <time>2020-05-31T09:17:09.999Z</time>
      </trkpt>
      <trkpt lat="43.77255" lon="5.26439">
        <ele>383</ele>
        <time>2020-05-31T09:17:13.999Z</time>
      </trkpt>
      <trkpt lat="43.77241" lon="5.26433">
        <ele>383</ele>
        <time>2020-05-31T09:17:18.999Z</time>
      </trkpt>
      <trkpt lat="43.77227" lon="5.26433">
        <ele>379</ele>
        <time>2020-05-31T09:17:23.999Z</time>
      </trkpt>
      <trkpt lat="43.77206" lon="5.26423">
        <ele>372</ele>
        <time>2020-05-31T09:17:28.999Z</time>
      </trkpt>
      <trkpt lat="43.77196" lon="5.26412">
        <ele>372</ele>
        <time>2020-05-31T09:17:33.999Z</time>
      </trkpt>
      <trkpt lat="43.77184" lon="5.26389">
        <ele>370</ele>
        <time>2020-05-31T09:17:38.999Z</time>
      </trkpt>
      <trkpt lat="43.77176" lon="5.26377">
        <ele>366</ele>
        <time>2020-05-31T09:17:43.999Z</time>
      </trkpt>
      <trkpt lat="43.7717" lon="5.26374">
        <ele>363</ele>
        <time>2020-05-31T09:17:47.999Z</time>
      </trkpt>
      <trkpt lat="43.77157" lon="5.26371">
        <ele>363</ele>
        <time>2020-05-31T09:17:52.999Z</time>
      </trkpt>
      <trkpt lat="43.77136" lon="5.26368">
        <ele>356</ele>
        <time>2020-05-31T09:17:57.999Z</time>
      </trkpt>
      <trkpt lat="43.77124" lon="5.26359">
        <ele>348</ele>
        <time>2020-05-31T09:18:01.999Z</time>
      </trkpt>
      <trkpt lat="43.77113" lon="5.2637">
        <ele>348</ele>
        <time>2020-05-31T09:18:06.999Z</time>
      </trkpt>
      <trkpt lat="43.77105" lon="5.26372">
        <ele>348</ele>
        <time>2020-05-31T09:18:10.999Z</time>
      </trkpt>
      <trkpt lat="43.77091" lon="5.26363">
        <ele>339</ele>
        <time>2020-05-31T09:18:15.999Z</time>
      </trkpt>
      <trkpt lat="43.77076" lon="5.26355">
        <ele>339</ele>
        <time>2020-05-31T09:18:20.999Z</time>
      </trkpt>
      <trkpt lat="43.77064" lon="5.26348">
        <ele>334</ele>
        <time>2020-05-31T09:18:25.999Z</time>
      </trkpt>
      <trkpt lat="43.77057" lon="5.26337">
        <ele>333</ele>
        <time>2020-05-31T09:18:29.999Z</time>
      </trkpt>
      <trkpt lat="43.77051" lon="5.26328">
        <ele>333</ele>
        <time>2020-05-31T09:18:34.999Z</time>
      </trkpt>
      <trkpt lat="43.77034" lon="5.26316">
        <ele>326</ele>
        <time>2020-05-31T09:18:39.999Z</time>
      </trkpt>
      <trkpt lat="43.77019" lon="5.26315">
        <ele>326</ele>
        <time>2020-05-31T09:18:44.999Z</time>
      </trkpt>
      <trkpt lat="43.77005" lon="5.26303">
        <ele>318</ele>
        <time>2020-05-31T09:18:49.999Z</time>
      </trkpt>
      <trkpt lat="43.76986" lon="5.26286">
        <ele>313</ele>
        <time>2020-05-31T09:18:54.999Z</time>
      </trkpt>
      <trkpt lat="43.76974" lon="5.26271">
        <ele>310</ele>
        <time>2020-05-31T09:18:59.999Z</time>
      </trkpt>
      <trkpt lat="43.76964" lon="5.26257">
        <ele>305</ele>
        <time>2020-05-31T09:19:04.999Z</time>
      </trkpt>
      <trkpt lat="43.76942" lon="5.26244">
        <ele>301</ele>
        <time>2020-05-31T09:19:09.999Z</time>
      </trkpt>
      <trkpt lat="43.76928" lon="5.26228">
        <ele>293</ele>
        <time>2020-05-31T09:19:13.999Z</time>
      </trkpt>
      <trkpt lat="43.76916" lon="5.26218">
        <ele>293</ele>
        <time>2020-05-31T09:19:18.999Z</time>
      </trkpt>
      <trkpt lat="43.76905" lon="5.26205">
        <ele>288</ele>
        <time>2020-05-31T09:19:23.999Z</time>
      </trkpt>
      <trkpt lat="43.76898" lon="5.26197">
        <ele>287</ele>
        <time>2020-05-31T09:19:27.999Z</time>
      </trkpt>
      <trkpt lat="43.76895" lon="5.26193">
        <ele>287</ele>
        <time>2020-05-31T09:23:04.999Z</time>
      </trkpt>
      <trkpt lat="43.76895" lon="5.2619">
        <ele>287</ele>
        <time>2020-05-31T09:23:09.999Z</time>
      </trkpt>
      <trkpt lat="43.7689" lon="5.26189">
        <ele>287</ele>
        <time>2020-05-31T09:23:13.999Z</time>
      </trkpt>
      <trkpt lat="43.7689" lon="5.26196">
        <ele>287</ele>
        <time>2020-05-31T09:23:18.999Z</time>
      </trkpt>
      <trkpt lat="43.76889" lon="5.26206">
        <ele>287</ele>
        <time>2020-05-31T09:23:22.999Z</time>
      </trkpt>
      <trkpt lat="43.76888" lon="5.26219">
        <ele>290</ele>
        <time>2020-05-31T09:23:27.999Z</time>
      </trkpt>
      <trkpt lat="43.76888" lon="5.26234">
        <ele>290</ele>
        <time>2020-05-31T09:23:32.999Z</time>
      </trkpt>
      <trkpt lat="43.76888" lon="5.2625">
        <ele>291</ele>
        <time>2020-05-31T09:23:37.999Z</time>
      </trkpt>
      <trkpt lat="43.76886" lon="5.26269">
        <ele>292</ele>
        <time>2020-05-31T09:23:42.999Z</time>
      </trkpt>
      <trkpt lat="43.76886" lon="5.26284">
        <ele>292</ele>
        <time>2020-05-31T09:23:46.999Z</time>
      </trkpt>
      <trkpt lat="43.76888" lon="5.26308">
        <ele>291</ele>
        <time>2020-05-31T09:23:51.999Z</time>
      </trkpt>
      <trkpt lat="43.76888" lon="5.26331">
        <ele>289</ele>
        <time>2020-05-31T09:23:56.999Z</time>
      </trkpt>
      <trkpt lat="43.76894" lon="5.26354">
        <ele>287</ele>
        <time>2020-05-31T09:24:01.999Z</time>
      </trkpt>
      <trkpt lat="43.769" lon="5.26363">
        <ele>287</ele>
        <time>2020-05-31T09:24:06.999Z</time>
      </trkpt>
      <trkpt lat="43.7691" lon="5.26375">
        <ele>293</ele>
        <time>2020-05-31T09:24:11.999Z</time>
      </trkpt>
      <trkpt lat="43.76898" lon="5.2639">
        <ele>287</ele>
        <time>2020-05-31T09:24:16.999Z</time>
      </trkpt>
      <trkpt lat="43.76895" lon="5.26396">
        <ele>287</ele>
        <time>2020-05-31T09:24:21.999Z</time>
      </trkpt>
      <trkpt lat="43.76899" lon="5.26396">
        <ele>287</ele>
        <time>2020-05-31T09:24:35.999Z</time>
      </trkpt>
      <trkpt lat="43.76899" lon="5.26396">
        <ele>287</ele>
        <time>2020-05-31T09:24:40.998Z</time>
      </trkpt>
      <trkpt lat="43.76897" lon="5.264">
        <ele>287</ele>
        <time>2020-05-31T09:24:45.998Z</time>
      </trkpt>
      <trkpt lat="43.76893" lon="5.26405">
        <ele>288</ele>
        <time>2020-05-31T09:24:50.998Z</time>
      </trkpt>
      <trkpt lat="43.76875" lon="5.26409">
        <ele>288</ele>
        <time>2020-05-31T09:24:55.998Z</time>
      </trkpt>
      <trkpt lat="43.76862" lon="5.26403">
        <ele>279</ele>
        <time>2020-05-31T09:25:00.998Z</time>
      </trkpt>
      <trkpt lat="43.76853" lon="5.264">
        <ele>282</ele>
        <time>2020-05-31T09:25:05.998Z</time>
      </trkpt>
      <trkpt lat="43.76844" lon="5.26401">
        <ele>276</ele>
        <time>2020-05-31T09:25:10.998Z</time>
      </trkpt>
      <trkpt lat="43.76836" lon="5.26402">
        <ele>276</ele>
        <time>2020-05-31T09:25:15.998Z</time>
      </trkpt>
      <trkpt lat="43.76829" lon="5.26409">
        <ele>274</ele>
        <time>2020-05-31T09:25:19.998Z</time>
      </trkpt>
      <trkpt lat="43.76823" lon="5.26424">
        <ele>274</ele>
        <time>2020-05-31T09:25:24.998Z</time>
      </trkpt>
      <trkpt lat="43.76823" lon="5.26433">
        <ele>270</ele>
        <time>2020-05-31T09:25:29.998Z</time>
      </trkpt>
      <trkpt lat="43.76824" lon="5.26436">
        <ele>270</ele>
        <time>2020-05-31T09:25:34.998Z</time>
      </trkpt>
      <trkpt lat="43.76824" lon="5.26435">
        <ele>270</ele>
        <time>2020-05-31T09:25:39.998Z</time>
      </trkpt>
      <trkpt lat="43.76826" lon="5.26439">
        <ele>270</ele>
        <time>2020-05-31T09:25:44.998Z</time>
      </trkpt>
      <trkpt lat="43.76829" lon="5.2645">
        <ele>270</ele>
        <time>2020-05-31T09:25:49.998Z</time>
      </trkpt>
      <trkpt lat="43.76828" lon="5.26458">
        <ele>270</ele>
        <time>2020-05-31T09:25:53.998Z</time>
      </trkpt>
      <trkpt lat="43.76826" lon="5.2647">
        <ele>264</ele>
        <time>2020-05-31T09:25:58.998Z</time>
      </trkpt>
      <trkpt lat="43.76831" lon="5.26477">
        <ele>264</ele>
        <time>2020-05-31T09:26:03.998Z</time>
      </trkpt>
      <trkpt lat="43.76833" lon="5.26481">
        <ele>264</ele>
        <time>2020-05-31T09:26:08.998Z</time>
      </trkpt>
      <trkpt lat="43.76833" lon="5.26482">
        <ele>264</ele>
        <time>2020-05-31T09:26:13.998Z</time>
      </trkpt>
      <trkpt lat="43.76833" lon="5.26484">
        <ele>264</ele>
        <time>2020-05-31T09:26:18.998Z</time>
      </trkpt>
      <trkpt lat="43.76832" lon="5.26485">
        <ele>264</ele>
        <time>2020-05-31T09:26:23.998Z</time>
      </trkpt>
      <trkpt lat="43.76827" lon="5.26496">
        <ele>258</ele>
        <time>2020-05-31T09:26:28.998Z</time>
      </trkpt>
      <trkpt lat="43.76815" lon="5.26502">
        <ele>255</ele>
        <time>2020-05-31T09:26:33.998Z</time>
      </trkpt>
      <trkpt lat="43.76799" lon="5.26499">
        <ele>255</ele>
        <time>2020-05-31T09:26:38.998Z</time>
      </trkpt>
      <trkpt lat="43.76797" lon="5.26498">
        <ele>255</ele>
        <time>2020-05-31T09:26:43.998Z</time>
      </trkpt>
      <trkpt lat="43.76795" lon="5.26498">
        <ele>255</ele>
        <time>2020-05-31T09:26:48.998Z</time>
      </trkpt>
      <trkpt lat="43.76794" lon="5.26498">
        <ele>255</ele>
        <time>2020-05-31T09:26:53.998Z</time>
      </trkpt>
      <trkpt lat="43.7679" lon="5.26501">
        <ele>251</ele>
        <time>2020-05-31T09:26:58.998Z</time>
      </trkpt>
      <trkpt lat="43.76786" lon="5.2651">
        <ele>251</ele>
        <time>2020-05-31T09:27:08.998Z</time>
      </trkpt>
      <trkpt lat="43.76781" lon="5.26511">
        <ele>251</ele>
        <time>2020-05-31T09:27:13.998Z</time>
      </trkpt>
      <trkpt lat="43.76781" lon="5.26512">
        <ele>251</ele>
        <time>2020-05-31T09:27:18.998Z</time>
      </trkpt>
      <trkpt lat="43.7678" lon="5.26512">
        <ele>251</ele>
        <time>2020-05-31T09:27:22.998Z</time>
      </trkpt>
      <trkpt lat="43.76776" lon="5.26514">
        <ele>251</ele>
        <time>2020-05-31T09:27:27.998Z</time>
      </trkpt>
      <trkpt lat="43.76771" lon="5.26514">
        <ele>249</ele>
        <time>2020-05-31T09:27:42.998Z</time>
      </trkpt>
      <trkpt lat="43.76771" lon="5.26513">
        <ele>251</ele>
        <time>2020-05-31T09:27:47.998Z</time>
      </trkpt>
      <trkpt lat="43.76771" lon="5.26513">
        <ele>251</ele>
        <time>2020-05-31T09:27:51.998Z</time>
      </trkpt>
      <trkpt lat="43.76772" lon="5.26525">
        <ele>249</ele>
        <time>2020-05-31T09:27:56.998Z</time>
      </trkpt>
      <trkpt lat="43.76774" lon="5.26539">
        <ele>249</ele>
        <time>2020-05-31T09:28:01.998Z</time>
      </trkpt>
      <trkpt lat="43.76773" lon="5.26545">
        <ele>248</ele>
        <time>2020-05-31T09:28:30.997Z</time>
      </trkpt>
      <trkpt lat="43.76769" lon="5.26547">
        <ele>248</ele>
        <time>2020-05-31T09:28:35.997Z</time>
      </trkpt>
      <trkpt lat="43.76767" lon="5.26549">
        <ele>248</ele>
        <time>2020-05-31T09:28:40.997Z</time>
      </trkpt>
      <trkpt lat="43.76765" lon="5.26551">
        <ele>248</ele>
        <time>2020-05-31T09:28:44.997Z</time>
      </trkpt>
      <trkpt lat="43.76767" lon="5.26553">
        <ele>248</ele>
        <time>2020-05-31T09:28:49.997Z</time>
      </trkpt>
      <trkpt lat="43.76768" lon="5.26557">
        <ele>248</ele>
        <time>2020-05-31T09:28:54.997Z</time>
      </trkpt>
      <trkpt lat="43.7677" lon="5.26567">
        <ele>248</ele>
        <time>2020-05-31T09:28:58.997Z</time>
      </trkpt>
      <trkpt lat="43.7677" lon="5.26579">
        <ele>245</ele>
        <time>2020-05-31T09:29:02.997Z</time>
      </trkpt>
      <trkpt lat="43.76774" lon="5.26588">
        <ele>245</ele>
        <time>2020-05-31T09:29:07.997Z</time>
      </trkpt>
      <trkpt lat="43.76782" lon="5.26593">
        <ele>245</ele>
        <time>2020-05-31T09:29:12.999Z</time>
      </trkpt>
      <trkpt lat="43.76792" lon="5.26606">
        <ele>247</ele>
        <time>2020-05-31T09:29:17.999Z</time>
      </trkpt>
      <trkpt lat="43.768" lon="5.2662">
        <ele>247</ele>
        <time>2020-05-31T09:29:22.999Z</time>
      </trkpt>
      <trkpt lat="43.76801" lon="5.26643">
        <ele>245</ele>
        <time>2020-05-31T09:29:27.999Z</time>
      </trkpt>
      <trkpt lat="43.76804" lon="5.26655">
        <ele>247</ele>
        <time>2020-05-31T09:29:32.999Z</time>
      </trkpt>
      <trkpt lat="43.76808" lon="5.26666">
        <ele>247</ele>
        <time>2020-05-31T09:29:37.999Z</time>
      </trkpt>
      <trkpt lat="43.76817" lon="5.26671">
        <ele>247</ele>
        <time>2020-05-31T09:29:42.999Z</time>
      </trkpt>
      <trkpt lat="43.76824" lon="5.26674">
        <ele>250</ele>
        <time>2020-05-31T09:29:46.999Z</time>
      </trkpt>
      <trkpt lat="43.76831" lon="5.26675">
        <ele>250</ele>
        <time>2020-05-31T09:29:51.999Z</time>
      </trkpt>
      <trkpt lat="43.7684" lon="5.26677">
        <ele>250</ele>
        <time>2020-05-31T09:29:56.999Z</time>
      </trkpt>
      <trkpt lat="43.76847" lon="5.26681">
        <ele>252</ele>
        <time>2020-05-31T09:30:00.999Z</time>
      </trkpt>
      <trkpt lat="43.76855" lon="5.26687">
        <ele>253</ele>
        <time>2020-05-31T09:30:05.999Z</time>
      </trkpt>
      <trkpt lat="43.76858" lon="5.26698">
        <ele>253</ele>
        <time>2020-05-31T09:30:10.999Z</time>
      </trkpt>
      <trkpt lat="43.76866" lon="5.26707">
        <ele>253</ele>
        <time>2020-05-31T09:30:15.999Z</time>
      </trkpt>
      <trkpt lat="43.76871" lon="5.26715">
        <ele>256</ele>
        <time>2020-05-31T09:30:20.999Z</time>
      </trkpt>
      <trkpt lat="43.76879" lon="5.26723">
        <ele>258</ele>
        <time>2020-05-31T09:30:25.999Z</time>
      </trkpt>
      <trkpt lat="43.76885" lon="5.26727">
        <ele>258</ele>
        <time>2020-05-31T09:30:29.999Z</time>
      </trkpt>
      <trkpt lat="43.76893" lon="5.26736">
        <ele>259</ele>
        <time>2020-05-31T09:30:34.999Z</time>
      </trkpt>
      <trkpt lat="43.76898" lon="5.26749">
        <ele>259</ele>
        <time>2020-05-31T09:30:39.999Z</time>
      </trkpt>
      <trkpt lat="43.76902" lon="5.26754">
        <ele>259</ele>
        <time>2020-05-31T09:30:43.999Z</time>
      </trkpt>
      <trkpt lat="43.76905" lon="5.26767">
        <ele>262</ele>
        <time>2020-05-31T09:30:48.999Z</time>
      </trkpt>
      <trkpt lat="43.76908" lon="5.26774">
        <ele>262</ele>
        <time>2020-05-31T09:30:53.999Z</time>
      </trkpt>
      <trkpt lat="43.76911" lon="5.26783">
        <ele>262</ele>
        <time>2020-05-31T09:30:57.999Z</time>
      </trkpt>
      <trkpt lat="43.76913" lon="5.26789">
        <ele>262</ele>
        <time>2020-05-31T09:31:02.999Z</time>
      </trkpt>
      <trkpt lat="43.76915" lon="5.26793">
        <ele>266</ele>
        <time>2020-05-31T09:31:07.999Z</time>
      </trkpt>
      <trkpt lat="43.76914" lon="5.26802">
        <ele>266</ele>
        <time>2020-05-31T09:31:11.999Z</time>
      </trkpt>
      <trkpt lat="43.76918" lon="5.2681">
        <ele>266</ele>
        <time>2020-05-31T09:31:16.999Z</time>
      </trkpt>
      <trkpt lat="43.76922" lon="5.26819">
        <ele>266</ele>
        <time>2020-05-31T09:31:21.999Z</time>
      </trkpt>
      <trkpt lat="43.76924" lon="5.26827">
        <ele>269</ele>
        <time>2020-05-31T09:31:25.999Z</time>
      </trkpt>
      <trkpt lat="43.76926" lon="5.26837">
        <ele>269</ele>
        <time>2020-05-31T09:31:30.999Z</time>
      </trkpt>
      <trkpt lat="43.76927" lon="5.26844">
        <ele>269</ele>
        <time>2020-05-31T09:31:34.999Z</time>
      </trkpt>
      <trkpt lat="43.76928" lon="5.26857">
        <ele>274</ele>
        <time>2020-05-31T09:31:39.999Z</time>
      </trkpt>
      <trkpt lat="43.76931" lon="5.26866">
        <ele>271</ele>
        <time>2020-05-31T09:31:44.999Z</time>
      </trkpt>
      <trkpt lat="43.76936" lon="5.26871">
        <ele>271</ele>
        <time>2020-05-31T09:31:49.999Z</time>
      </trkpt>
      <trkpt lat="43.76943" lon="5.26874">
        <ele>271</ele>
        <time>2020-05-31T09:31:54.999Z</time>
      </trkpt>
      <trkpt lat="43.76947" lon="5.26878">
        <ele>274</ele>
        <time>2020-05-31T09:31:59.999Z</time>
      </trkpt>
      <trkpt lat="43.76952" lon="5.26882">
        <ele>274</ele>
        <time>2020-05-31T09:32:04.999Z</time>
      </trkpt>
      <trkpt lat="43.76957" lon="5.26885">
        <ele>274</ele>
        <time>2020-05-31T09:32:08.999Z</time>
      </trkpt>
      <trkpt lat="43.76959" lon="5.26891">
        <ele>281</ele>
        <time>2020-05-31T09:32:13.999Z</time>
      </trkpt>
      <trkpt lat="43.76961" lon="5.26898">
        <ele>281</ele>
        <time>2020-05-31T09:32:18.999Z</time>
      </trkpt>
      <trkpt lat="43.76961" lon="5.26906">
        <ele>281</ele>
        <time>2020-05-31T09:32:23.999Z</time>
      </trkpt>
      <trkpt lat="43.76964" lon="5.26916">
        <ele>281</ele>
        <time>2020-05-31T09:32:28.999Z</time>
      </trkpt>
      <trkpt lat="43.76965" lon="5.26924">
        <ele>281</ele>
        <time>2020-05-31T09:32:33.999Z</time>
      </trkpt>
      <trkpt lat="43.76968" lon="5.26933">
        <ele>282</ele>
        <time>2020-05-31T09:32:37.999Z</time>
      </trkpt>
      <trkpt lat="43.76972" lon="5.26941">
        <ele>282</ele>
        <time>2020-05-31T09:32:42.999Z</time>
      </trkpt>
      <trkpt lat="43.76976" lon="5.26949">
        <ele>282</ele>
        <time>2020-05-31T09:32:46.999Z</time>
      </trkpt>
      <trkpt lat="43.7698" lon="5.26955">
        <ele>282</ele>
        <time>2020-05-31T09:32:51.998Z</time>
      </trkpt>
      <trkpt lat="43.76985" lon="5.26962">
        <ele>284</ele>
        <time>2020-05-31T09:32:56.998Z</time>
      </trkpt>
      <trkpt lat="43.76987" lon="5.26969">
        <ele>289</ele>
        <time>2020-05-31T09:33:01.998Z</time>
      </trkpt>
      <trkpt lat="43.76987" lon="5.26979">
        <ele>289</ele>
        <time>2020-05-31T09:33:06.998Z</time>
      </trkpt>
      <trkpt lat="43.76986" lon="5.26988">
        <ele>288</ele>
        <time>2020-05-31T09:33:10.998Z</time>
      </trkpt>
      <trkpt lat="43.76986" lon="5.26994">
        <ele>288</ele>
        <time>2020-05-31T09:33:15.998Z</time>
      </trkpt>
      <trkpt lat="43.76982" lon="5.27">
        <ele>288</ele>
        <time>2020-05-31T09:33:20.998Z</time>
      </trkpt>
      <trkpt lat="43.76977" lon="5.27004">
        <ele>288</ele>
        <time>2020-05-31T09:33:25.998Z</time>
      </trkpt>
      <trkpt lat="43.76974" lon="5.27007">
        <ele>288</ele>
        <time>2020-05-31T09:33:30.998Z</time>
      </trkpt>
      <trkpt lat="43.76969" lon="5.27006">
        <ele>288</ele>
        <time>2020-05-31T09:33:35.998Z</time>
      </trkpt>
      <trkpt lat="43.76963" lon="5.27005">
        <ele>288</ele>
        <time>2020-05-31T09:33:40.998Z</time>
      </trkpt>
      <trkpt lat="43.76958" lon="5.26999">
        <ele>292</ele>
        <time>2020-05-31T09:33:45.998Z</time>
      </trkpt>
      <trkpt lat="43.76952" lon="5.26995">
        <ele>292</ele>
        <time>2020-05-31T09:33:50.998Z</time>
      </trkpt>
      <trkpt lat="43.76944" lon="5.26997">
        <ele>292</ele>
        <time>2020-05-31T09:33:55.998Z</time>
      </trkpt>
      <trkpt lat="43.76938" lon="5.27002">
        <ele>292</ele>
        <time>2020-05-31T09:34:00.998Z</time>
      </trkpt>
      <trkpt lat="43.76933" lon="5.27003">
        <ele>292</ele>
        <time>2020-05-31T09:34:05.998Z</time>
      </trkpt>
      <trkpt lat="43.7693" lon="5.27002">
        <ele>297</ele>
        <time>2020-05-31T09:34:10.998Z</time>
      </trkpt>
      <trkpt lat="43.76925" lon="5.26998">
        <ele>297</ele>
        <time>2020-05-31T09:34:15.998Z</time>
      </trkpt>
      <trkpt lat="43.76918" lon="5.26994">
        <ele>297</ele>
        <time>2020-05-31T09:34:20.998Z</time>
      </trkpt>
      <trkpt lat="43.76913" lon="5.26992">
        <ele>297</ele>
        <time>2020-05-31T09:34:24.998Z</time>
      </trkpt>
      <trkpt lat="43.76907" lon="5.2699">
        <ele>297</ele>
        <time>2020-05-31T09:34:29.998Z</time>
      </trkpt>
      <trkpt lat="43.76903" lon="5.26988">
        <ele>297</ele>
        <time>2020-05-31T09:34:34.998Z</time>
      </trkpt>
      <trkpt lat="43.76898" lon="5.26986">
        <ele>299</ele>
        <time>2020-05-31T09:34:39.998Z</time>
      </trkpt>
      <trkpt lat="43.76893" lon="5.26986">
        <ele>304</ele>
        <time>2020-05-31T09:34:44.998Z</time>
      </trkpt>
      <trkpt lat="43.76888" lon="5.26984">
        <ele>299</ele>
        <time>2020-05-31T09:34:49.998Z</time>
      </trkpt>
      <trkpt lat="43.76879" lon="5.26987">
        <ele>304</ele>
        <time>2020-05-31T09:34:54.998Z</time>
      </trkpt>
      <trkpt lat="43.76874" lon="5.26987">
        <ele>304</ele>
        <time>2020-05-31T09:34:59.998Z</time>
      </trkpt>
      <trkpt lat="43.76863" lon="5.26993">
        <ele>304</ele>
        <time>2020-05-31T09:35:04.998Z</time>
      </trkpt>
      <trkpt lat="43.7684" lon="5.26997">
        <ele>301</ele>
        <time>2020-05-31T09:35:09.998Z</time>
      </trkpt>
      <trkpt lat="43.76818" lon="5.27015">
        <ele>295</ele>
        <time>2020-05-31T09:35:14.998Z</time>
      </trkpt>
      <trkpt lat="43.76802" lon="5.27036">
        <ele>295</ele>
        <time>2020-05-31T09:35:19.998Z</time>
      </trkpt>
      <trkpt lat="43.76783" lon="5.27062">
        <ele>288</ele>
        <time>2020-05-31T09:35:24.998Z</time>
      </trkpt>
      <trkpt lat="43.76774" lon="5.27079">
        <ele>289</ele>
        <time>2020-05-31T09:35:28.998Z</time>
      </trkpt>
      <trkpt lat="43.76759" lon="5.2711">
        <ele>280</ele>
        <time>2020-05-31T09:35:33.998Z</time>
      </trkpt>
      <trkpt lat="43.76754" lon="5.27133">
        <ele>281</ele>
        <time>2020-05-31T09:35:37.998Z</time>
      </trkpt>
      <trkpt lat="43.76758" lon="5.27153">
        <ele>282</ele>
        <time>2020-05-31T09:35:42.998Z</time>
      </trkpt>
      <trkpt lat="43.76759" lon="5.27164">
        <ele>282</ele>
        <time>2020-05-31T09:35:46.998Z</time>
      </trkpt>
      <trkpt lat="43.76761" lon="5.27173">
        <ele>282</ele>
        <time>2020-05-31T09:35:51.998Z</time>
      </trkpt>
      <trkpt lat="43.76764" lon="5.27176">
        <ele>292</ele>
        <time>2020-05-31T09:36:20.999Z</time>
      </trkpt>
      <trkpt lat="43.76762" lon="5.27177">
        <ele>282</ele>
        <time>2020-05-31T09:36:25.999Z</time>
      </trkpt>
      <trkpt lat="43.76763" lon="5.27181">
        <ele>282</ele>
        <time>2020-05-31T09:36:31Z</time>
      </trkpt>
      <trkpt lat="43.76767" lon="5.27189">
        <ele>293</ele>
        <time>2020-05-31T09:36:35Z</time>
      </trkpt>
      <trkpt lat="43.7677" lon="5.27194">
        <ele>293</ele>
        <time>2020-05-31T09:36:39Z</time>
      </trkpt>
      <trkpt lat="43.76773" lon="5.27202">
        <ele>293</ele>
        <time>2020-05-31T09:36:43.999Z</time>
      </trkpt>
      <trkpt lat="43.76777" lon="5.2721">
        <ele>292</ele>
        <time>2020-05-31T09:36:48.999Z</time>
      </trkpt>
      <trkpt lat="43.76781" lon="5.27218">
        <ele>292</ele>
        <time>2020-05-31T09:36:53.999Z</time>
      </trkpt>
      <trkpt lat="43.76785" lon="5.27225">
        <ele>292</ele>
        <time>2020-05-31T09:36:58.999Z</time>
      </trkpt>
      <trkpt lat="43.76788" lon="5.27231">
        <ele>292</ele>
        <time>2020-05-31T09:37:02.999Z</time>
      </trkpt>
      <trkpt lat="43.76792" lon="5.27238">
        <ele>291</ele>
        <time>2020-05-31T09:37:07.999Z</time>
      </trkpt>
      <trkpt lat="43.76795" lon="5.27245">
        <ele>302</ele>
        <time>2020-05-31T09:37:12.999Z</time>
      </trkpt>
      <trkpt lat="43.76797" lon="5.27253">
        <ele>302</ele>
        <time>2020-05-31T09:37:17.999Z</time>
      </trkpt>
      <trkpt lat="43.76798" lon="5.27258">
        <ele>302</ele>
        <time>2020-05-31T09:37:22.999Z</time>
      </trkpt>
      <trkpt lat="43.76797" lon="5.27263">
        <ele>302</ele>
        <time>2020-05-31T09:37:26.999Z</time>
      </trkpt>
      <trkpt lat="43.76799" lon="5.27271">
        <ele>301</ele>
        <time>2020-05-31T09:37:31.999Z</time>
      </trkpt>
      <trkpt lat="43.76797" lon="5.27281">
        <ele>301</ele>
        <time>2020-05-31T09:37:36.999Z</time>
      </trkpt>
      <trkpt lat="43.76795" lon="5.27292">
        <ele>301</ele>
        <time>2020-05-31T09:37:41.999Z</time>
      </trkpt>
      <trkpt lat="43.76791" lon="5.27302">
        <ele>291</ele>
        <time>2020-05-31T09:37:46.999Z</time>
      </trkpt>
      <trkpt lat="43.76789" lon="5.27306">
        <ele>291</ele>
        <time>2020-05-31T09:37:51.999Z</time>
      </trkpt>
      <trkpt lat="43.76789" lon="5.27307">
        <ele>291</ele>
        <time>2020-05-31T09:37:56.999Z</time>
      </trkpt>
      <trkpt lat="43.76787" lon="5.27312">
        <ele>291</ele>
        <time>2020-05-31T09:38:29.999Z</time>
      </trkpt>
      <trkpt lat="43.76787" lon="5.27312">
        <ele>291</ele>
        <time>2020-05-31T09:38:34.999Z</time>
      </trkpt>
      <trkpt lat="43.76786" lon="5.27312">
        <ele>291</ele>
        <time>2020-05-31T09:38:39.999Z</time>
      </trkpt>
      <trkpt lat="43.76784" lon="5.27315">
        <ele>291</ele>
        <time>2020-05-31T09:38:44.999Z</time>
      </trkpt>
      <trkpt lat="43.76789" lon="5.27322">
        <ele>292</ele>
        <time>2020-05-31T09:38:48.999Z</time>
      </trkpt>
      <trkpt lat="43.768" lon="5.27341">
        <ele>300</ele>
        <time>2020-05-31T09:38:53.999Z</time>
      </trkpt>
      <trkpt lat="43.76808" lon="5.27364">
        <ele>297</ele>
        <time>2020-05-31T09:38:58.999Z</time>
      </trkpt>
      <trkpt lat="43.76816" lon="5.27391">
        <ele>293</ele>
        <time>2020-05-31T09:39:03.999Z</time>
      </trkpt>
      <trkpt lat="43.76828" lon="5.27414">
        <ele>295</ele>
        <time>2020-05-31T09:39:08.999Z</time>
      </trkpt>
      <trkpt lat="43.76844" lon="5.27428">
        <ele>295</ele>
        <time>2020-05-31T09:39:13.999Z</time>
      </trkpt>
      <trkpt lat="43.76849" lon="5.27433">
        <ele>298</ele>
        <time>2020-05-31T09:39:18.999Z</time>
      </trkpt>
      <trkpt lat="43.76855" lon="5.27441">
        <ele>298</ele>
        <time>2020-05-31T09:39:22.999Z</time>
      </trkpt>
      <trkpt lat="43.76863" lon="5.27448">
        <ele>298</ele>
        <time>2020-05-31T09:39:27.999Z</time>
      </trkpt>
      <trkpt lat="43.76869" lon="5.27447">
        <ele>298</ele>
        <time>2020-05-31T09:39:31.999Z</time>
      </trkpt>
      <trkpt lat="43.76876" lon="5.27453">
        <ele>306</ele>
        <time>2020-05-31T09:39:36.999Z</time>
      </trkpt>
      <trkpt lat="43.76884" lon="5.27455">
        <ele>306</ele>
        <time>2020-05-31T09:39:41.999Z</time>
      </trkpt>
      <trkpt lat="43.76891" lon="5.27457">
        <ele>306</ele>
        <time>2020-05-31T09:39:46.999Z</time>
      </trkpt>
      <trkpt lat="43.76897" lon="5.27468">
        <ele>303</ele>
        <time>2020-05-31T09:39:50.999Z</time>
      </trkpt>
      <trkpt lat="43.76895" lon="5.27492">
        <ele>301</ele>
        <time>2020-05-31T09:39:55.999Z</time>
      </trkpt>
      <trkpt lat="43.76882" lon="5.27507">
        <ele>301</ele>
        <time>2020-05-31T09:39:59.999Z</time>
      </trkpt>
      <trkpt lat="43.76859" lon="5.27512">
        <ele>296</ele>
        <time>2020-05-31T09:40:04.999Z</time>
      </trkpt>
      <trkpt lat="43.76843" lon="5.27523">
        <ele>294</ele>
        <time>2020-05-31T09:40:09.999Z</time>
      </trkpt>
      <trkpt lat="43.76832" lon="5.27528">
        <ele>294</ele>
        <time>2020-05-31T09:40:13.999Z</time>
      </trkpt>
      <trkpt lat="43.76815" lon="5.27537">
        <ele>289</ele>
        <time>2020-05-31T09:40:18.999Z</time>
      </trkpt>
      <trkpt lat="43.76793" lon="5.27549">
        <ele>298</ele>
        <time>2020-05-31T09:40:23.999Z</time>
      </trkpt>
      <trkpt lat="43.76775" lon="5.27556">
        <ele>292</ele>
        <time>2020-05-31T09:40:28.999Z</time>
      </trkpt>
      <trkpt lat="43.76765" lon="5.2756">
        <ele>292</ele>
        <time>2020-05-31T09:40:33.999Z</time>
      </trkpt>
      <trkpt lat="43.76745" lon="5.27565">
        <ele>287</ele>
        <time>2020-05-31T09:40:38.998Z</time>
      </trkpt>
      <trkpt lat="43.76728" lon="5.27574">
        <ele>290</ele>
        <time>2020-05-31T09:40:43.998Z</time>
      </trkpt>
      <trkpt lat="43.7672" lon="5.27585">
        <ele>290</ele>
        <time>2020-05-31T09:40:48.998Z</time>
      </trkpt>
      <trkpt lat="43.76714" lon="5.27599">
        <ele>294</ele>
        <time>2020-05-31T09:40:52.998Z</time>
      </trkpt>
      <trkpt lat="43.76706" lon="5.27623">
        <ele>289</ele>
        <time>2020-05-31T09:40:57.998Z</time>
      </trkpt>
      <trkpt lat="43.76691" lon="5.27652">
        <ele>291</ele>
        <time>2020-05-31T09:41:02.998Z</time>
      </trkpt>
      <trkpt lat="43.76681" lon="5.27672">
        <ele>292</ele>
        <time>2020-05-31T09:41:06.998Z</time>
      </trkpt>
      <trkpt lat="43.76663" lon="5.27692">
        <ele>285</ele>
        <time>2020-05-31T09:41:11.998Z</time>
      </trkpt>
      <trkpt lat="43.76659" lon="5.27698">
        <ele>285</ele>
        <time>2020-05-31T09:41:16.998Z</time>
      </trkpt>
      <trkpt lat="43.76662" lon="5.27704">
        <ele>285</ele>
        <time>2020-05-31T09:41:21.998Z</time>
      </trkpt>
      <trkpt lat="43.7666" lon="5.27718">
        <ele>286</ele>
        <time>2020-05-31T09:41:25.998Z</time>
      </trkpt>
      <trkpt lat="43.76662" lon="5.27734">
        <ele>286</ele>
        <time>2020-05-31T09:41:30.998Z</time>
      </trkpt>
      <trkpt lat="43.76668" lon="5.27744">
        <ele>285</ele>
        <time>2020-05-31T09:41:35.998Z</time>
      </trkpt>
      <trkpt lat="43.76674" lon="5.27769">
        <ele>285</ele>
        <time>2020-05-31T09:41:39.998Z</time>
      </trkpt>
      <trkpt lat="43.76681" lon="5.27781">
        <ele>294</ele>
        <time>2020-05-31T09:41:44.998Z</time>
      </trkpt>
      <trkpt lat="43.76688" lon="5.27786">
        <ele>294</ele>
        <time>2020-05-31T09:41:49.998Z</time>
      </trkpt>
      <trkpt lat="43.76696" lon="5.27793">
        <ele>293</ele>
        <time>2020-05-31T09:41:54.998Z</time>
      </trkpt>
      <trkpt lat="43.76701" lon="5.27802">
        <ele>293</ele>
        <time>2020-05-31T09:41:59.998Z</time>
      </trkpt>
      <trkpt lat="43.76705" lon="5.27815">
        <ele>293</ele>
        <time>2020-05-31T09:42:04.998Z</time>
      </trkpt>
      <trkpt lat="43.767" lon="5.27831">
        <ele>291</ele>
        <time>2020-05-31T09:42:09.998Z</time>
      </trkpt>
      <trkpt lat="43.76703" lon="5.27848">
        <ele>286</ele>
        <time>2020-05-31T09:42:14.998Z</time>
      </trkpt>
      <trkpt lat="43.76705" lon="5.27864">
        <ele>286</ele>
        <time>2020-05-31T09:42:18.998Z</time>
      </trkpt>
      <trkpt lat="43.76694" lon="5.2788">
        <ele>282</ele>
        <time>2020-05-31T09:42:23.998Z</time>
      </trkpt>
      <trkpt lat="43.76696" lon="5.27897">
        <ele>282</ele>
        <time>2020-05-31T09:42:27.998Z</time>
      </trkpt>
      <trkpt lat="43.76713" lon="5.27911">
        <ele>283</ele>
        <time>2020-05-31T09:42:32.998Z</time>
      </trkpt>
      <trkpt lat="43.76728" lon="5.27915">
        <ele>283</ele>
        <time>2020-05-31T09:42:37.998Z</time>
      </trkpt>
      <trkpt lat="43.76742" lon="5.27921">
        <ele>286</ele>
        <time>2020-05-31T09:42:42.998Z</time>
      </trkpt>
      <trkpt lat="43.7676" lon="5.27931">
        <ele>277</ele>
        <time>2020-05-31T09:42:47.998Z</time>
      </trkpt>
      <trkpt lat="43.76773" lon="5.27931">
        <ele>287</ele>
        <time>2020-05-31T09:42:52.998Z</time>
      </trkpt>
      <trkpt lat="43.76782" lon="5.27928">
        <ele>287</ele>
        <time>2020-05-31T09:42:57.998Z</time>
      </trkpt>
      <trkpt lat="43.76792" lon="5.27919">
        <ele>287</ele>
        <time>2020-05-31T09:43:01.998Z</time>
      </trkpt>
      <trkpt lat="43.76799" lon="5.27908">
        <ele>281</ele>
        <time>2020-05-31T09:43:06.998Z</time>
      </trkpt>
      <trkpt lat="43.76805" lon="5.27894">
        <ele>290</ele>
        <time>2020-05-31T09:43:11.998Z</time>
      </trkpt>
      <trkpt lat="43.76815" lon="5.2788">
        <ele>290</ele>
        <time>2020-05-31T09:43:16.998Z</time>
      </trkpt>
      <trkpt lat="43.76824" lon="5.27873">
        <ele>288</ele>
        <time>2020-05-31T09:43:21.998Z</time>
      </trkpt>
      <trkpt lat="43.76831" lon="5.27863">
        <ele>288</ele>
        <time>2020-05-31T09:43:27Z</time>
      </trkpt>
      <trkpt lat="43.76843" lon="5.27855">
        <ele>288</ele>
        <time>2020-05-31T09:43:32Z</time>
      </trkpt>
      <trkpt lat="43.7685" lon="5.27846">
        <ele>290</ele>
        <time>2020-05-31T09:43:36Z</time>
      </trkpt>
      <trkpt lat="43.76859" lon="5.27838">
        <ele>290</ele>
        <time>2020-05-31T09:43:41Z</time>
      </trkpt>
      <trkpt lat="43.7687" lon="5.27832">
        <ele>290</ele>
        <time>2020-05-31T09:43:46Z</time>
      </trkpt>
      <trkpt lat="43.76884" lon="5.27827">
        <ele>282</ele>
        <time>2020-05-31T09:43:51Z</time>
      </trkpt>
      <trkpt lat="43.76894" lon="5.27818">
        <ele>294</ele>
        <time>2020-05-31T09:43:55Z</time>
      </trkpt>
      <trkpt lat="43.76901" lon="5.27809">
        <ele>294</ele>
        <time>2020-05-31T09:44:00Z</time>
      </trkpt>
      <trkpt lat="43.76905" lon="5.27803">
        <ele>290</ele>
        <time>2020-05-31T09:44:04Z</time>
      </trkpt>
      <trkpt lat="43.76915" lon="5.27796">
        <ele>290</ele>
        <time>2020-05-31T09:44:09Z</time>
      </trkpt>
      <trkpt lat="43.76922" lon="5.27793">
        <ele>290</ele>
        <time>2020-05-31T09:44:14Z</time>
      </trkpt>
      <trkpt lat="43.76927" lon="5.2779">
        <ele>306</ele>
        <time>2020-05-31T09:44:18Z</time>
      </trkpt>
      <trkpt lat="43.76935" lon="5.27784">
        <ele>305</ele>
        <time>2020-05-31T09:44:23Z</time>
      </trkpt>
      <trkpt lat="43.76946" lon="5.27781">
        <ele>305</ele>
        <time>2020-05-31T09:44:28Z</time>
      </trkpt>
      <trkpt lat="43.76958" lon="5.27786">
        <ele>305</ele>
        <time>2020-05-31T09:44:33Z</time>
      </trkpt>
      <trkpt lat="43.76967" lon="5.27794">
        <ele>295</ele>
        <time>2020-05-31T09:44:38Z</time>
      </trkpt>
      <trkpt lat="43.76977" lon="5.27798">
        <ele>295</ele>
        <time>2020-05-31T09:44:42Z</time>
      </trkpt>
      <trkpt lat="43.76988" lon="5.278">
        <ele>303</ele>
        <time>2020-05-31T09:44:47Z</time>
      </trkpt>
      <trkpt lat="43.77002" lon="5.27797">
        <ele>303</ele>
        <time>2020-05-31T09:44:52Z</time>
      </trkpt>
      <trkpt lat="43.77012" lon="5.27796">
        <ele>303</ele>
        <time>2020-05-31T09:44:55.999Z</time>
      </trkpt>
      <trkpt lat="43.77025" lon="5.278">
        <ele>305</ele>
        <time>2020-05-31T09:45:00.999Z</time>
      </trkpt>
      <trkpt lat="43.77043" lon="5.27808">
        <ele>309</ele>
        <time>2020-05-31T09:45:05.999Z</time>
      </trkpt>
      <trkpt lat="43.77052" lon="5.27813">
        <ele>309</ele>
        <time>2020-05-31T09:45:09.999Z</time>
      </trkpt>
      <trkpt lat="43.7707" lon="5.27831">
        <ele>306</ele>
        <time>2020-05-31T09:46:41.999Z</time>
      </trkpt>
      <trkpt lat="43.7707" lon="5.27833">
        <ele>306</ele>
        <time>2020-05-31T09:46:46.999Z</time>
      </trkpt>
      <trkpt lat="43.7707" lon="5.27833">
        <ele>306</ele>
        <time>2020-05-31T09:46:51.999Z</time>
      </trkpt>
      <trkpt lat="43.77071" lon="5.27834">
        <ele>306</ele>
        <time>2020-05-31T09:46:56.999Z</time>
      </trkpt>
      <trkpt lat="43.77071" lon="5.27837">
        <ele>306</ele>
        <time>2020-05-31T09:47:00.999Z</time>
      </trkpt>
      <trkpt lat="43.77074" lon="5.2784">
        <ele>306</ele>
        <time>2020-05-31T09:50:57.999Z</time>
      </trkpt>
      <trkpt lat="43.77075" lon="5.27842">
        <ele>306</ele>
        <time>2020-05-31T09:51:01.999Z</time>
      </trkpt>
      <trkpt lat="43.77076" lon="5.27842">
        <ele>306</ele>
        <time>2020-05-31T09:51:06.999Z</time>
      </trkpt>
      <trkpt lat="43.77077" lon="5.27845">
        <ele>306</ele>
        <time>2020-05-31T09:51:11.999Z</time>
      </trkpt>
      <trkpt lat="43.77077" lon="5.27847">
        <ele>306</ele>
        <time>2020-05-31T09:51:16.999Z</time>
      </trkpt>
      <trkpt lat="43.77079" lon="5.27841">
        <ele>306</ele>
        <time>2020-05-31T09:51:21.999Z</time>
      </trkpt>
      <trkpt lat="43.77078" lon="5.27837">
        <ele>306</ele>
        <time>2020-05-31T09:51:26.999Z</time>
      </trkpt>
      <trkpt lat="43.77076" lon="5.27836">
        <ele>306</ele>
        <time>2020-05-31T09:51:30.999Z</time>
      </trkpt>
      <trkpt lat="43.77075" lon="5.27836">
        <ele>306</ele>
        <time>2020-05-31T09:51:35.999Z</time>
      </trkpt>
      <trkpt lat="43.77073" lon="5.27831">
        <ele>306</ele>
        <time>2020-05-31T09:51:40.999Z</time>
      </trkpt>
      <trkpt lat="43.77072" lon="5.27836">
        <ele>306</ele>
        <time>2020-05-31T09:52:24.999Z</time>
      </trkpt>
      <trkpt lat="43.77073" lon="5.27837">
        <ele>306</ele>
        <time>2020-05-31T09:52:29.999Z</time>
      </trkpt>
      <trkpt lat="43.77074" lon="5.2784">
        <ele>306</ele>
        <time>2020-05-31T09:52:34.999Z</time>
      </trkpt>
      <trkpt lat="43.77078" lon="5.27843">
        <ele>306</ele>
        <time>2020-05-31T09:52:39.999Z</time>
      </trkpt>
      <trkpt lat="43.77085" lon="5.27852">
        <ele>301</ele>
        <time>2020-05-31T09:52:44.999Z</time>
      </trkpt>
      <trkpt lat="43.7709" lon="5.27871">
        <ele>301</ele>
        <time>2020-05-31T09:52:49.999Z</time>
      </trkpt>
      <trkpt lat="43.77097" lon="5.27881">
        <ele>300</ele>
        <time>2020-05-31T09:52:54.999Z</time>
      </trkpt>
      <trkpt lat="43.771" lon="5.27883">
        <ele>306</ele>
        <time>2020-05-31T09:52:58.999Z</time>
      </trkpt>
      <trkpt lat="43.771" lon="5.27883">
        <ele>306</ele>
        <time>2020-05-31T09:53:03.999Z</time>
      </trkpt>
      <trkpt lat="43.77102" lon="5.27892">
        <ele>306</ele>
        <time>2020-05-31T09:53:32.998Z</time>
      </trkpt>
      <trkpt lat="43.771" lon="5.27894">
        <ele>306</ele>
        <time>2020-05-31T09:53:37.998Z</time>
      </trkpt>
      <trkpt lat="43.77102" lon="5.27896">
        <ele>306</ele>
        <time>2020-05-31T09:53:42.998Z</time>
      </trkpt>
      <trkpt lat="43.771" lon="5.279">
        <ele>306</ele>
        <time>2020-05-31T09:53:47.998Z</time>
      </trkpt>
      <trkpt lat="43.77098" lon="5.27904">
        <ele>308</ele>
        <time>2020-05-31T09:53:51.998Z</time>
      </trkpt>
      <trkpt lat="43.77096" lon="5.27906">
        <ele>302</ele>
        <time>2020-05-31T09:53:56.998Z</time>
      </trkpt>
      <trkpt lat="43.77088" lon="5.27902">
        <ele>300</ele>
        <time>2020-05-31T09:54:00.998Z</time>
      </trkpt>
      <trkpt lat="43.77083" lon="5.27894">
        <ele>300</ele>
        <time>2020-05-31T09:54:04.998Z</time>
      </trkpt>
      <trkpt lat="43.77077" lon="5.27883">
        <ele>300</ele>
        <time>2020-05-31T09:54:09.998Z</time>
      </trkpt>
      <trkpt lat="43.77074" lon="5.27876">
        <ele>300</ele>
        <time>2020-05-31T09:54:13.998Z</time>
      </trkpt>
      <trkpt lat="43.77063" lon="5.27873">
        <ele>296</ele>
        <time>2020-05-31T09:54:18.998Z</time>
      </trkpt>
      <trkpt lat="43.77046" lon="5.27866">
        <ele>296</ele>
        <time>2020-05-31T09:54:23.998Z</time>
      </trkpt>
      <trkpt lat="43.77026" lon="5.27868">
        <ele>291</ele>
        <time>2020-05-31T09:54:27.998Z</time>
      </trkpt>
      <trkpt lat="43.77007" lon="5.27872">
        <ele>283</ele>
        <time>2020-05-31T09:54:32.998Z</time>
      </trkpt>
      <trkpt lat="43.76992" lon="5.27875">
        <ele>283</ele>
        <time>2020-05-31T09:54:36.998Z</time>
      </trkpt>
      <trkpt lat="43.76988" lon="5.27872">
        <ele>283</ele>
        <time>2020-05-31T09:54:41.998Z</time>
      </trkpt>
      <trkpt lat="43.76982" lon="5.27874">
        <ele>276</ele>
        <time>2020-05-31T09:54:46.998Z</time>
      </trkpt>
      <trkpt lat="43.76971" lon="5.27865">
        <ele>276</ele>
        <time>2020-05-31T09:54:51.998Z</time>
      </trkpt>
      <trkpt lat="43.76966" lon="5.27859">
        <ele>276</ele>
        <time>2020-05-31T09:54:55.998Z</time>
      </trkpt>
      <trkpt lat="43.76958" lon="5.27854">
        <ele>272</ele>
        <time>2020-05-31T09:55:00.998Z</time>
      </trkpt>
      <trkpt lat="43.76943" lon="5.27853">
        <ele>272</ele>
        <time>2020-05-31T09:55:05.998Z</time>
      </trkpt>
      <trkpt lat="43.76919" lon="5.27871">
        <ele>271</ele>
        <time>2020-05-31T09:55:10.998Z</time>
      </trkpt>
      <trkpt lat="43.76895" lon="5.2789">
        <ele>269</ele>
        <time>2020-05-31T09:55:15.998Z</time>
      </trkpt>
      <trkpt lat="43.76879" lon="5.27909">
        <ele>269</ele>
        <time>2020-05-31T09:55:19.998Z</time>
      </trkpt>
      <trkpt lat="43.76869" lon="5.27933">
        <ele>266</ele>
        <time>2020-05-31T09:55:23.998Z</time>
      </trkpt>
      <trkpt lat="43.76852" lon="5.2796">
        <ele>266</ele>
        <time>2020-05-31T09:55:28.998Z</time>
      </trkpt>
      <trkpt lat="43.76837" lon="5.27981">
        <ele>265</ele>
        <time>2020-05-31T09:55:32.998Z</time>
      </trkpt>
      <trkpt lat="43.76818" lon="5.28003">
        <ele>260</ele>
        <time>2020-05-31T09:55:37.998Z</time>
      </trkpt>
      <trkpt lat="43.76799" lon="5.2802">
        <ele>258</ele>
        <time>2020-05-31T09:55:42.998Z</time>
      </trkpt>
      <trkpt lat="43.76783" lon="5.28021">
        <ele>256</ele>
        <time>2020-05-31T09:55:47.998Z</time>
      </trkpt>
      <trkpt lat="43.76767" lon="5.2803">
        <ele>256</ele>
        <time>2020-05-31T09:55:52.998Z</time>
      </trkpt>
      <trkpt lat="43.76759" lon="5.28034">
        <ele>254</ele>
        <time>2020-05-31T09:55:56.998Z</time>
      </trkpt>
      <trkpt lat="43.76746" lon="5.28041">
        <ele>254</ele>
        <time>2020-05-31T09:56:00.998Z</time>
      </trkpt>
      <trkpt lat="43.7673" lon="5.28038">
        <ele>254</ele>
        <time>2020-05-31T09:56:05.998Z</time>
      </trkpt>
      <trkpt lat="43.76716" lon="5.28045">
        <ele>251</ele>
        <time>2020-05-31T09:56:10.998Z</time>
      </trkpt>
      <trkpt lat="43.76706" lon="5.28046">
        <ele>250</ele>
        <time>2020-05-31T09:56:15.998Z</time>
      </trkpt>
      <trkpt lat="43.76681" lon="5.28054">
        <ele>250</ele>
        <time>2020-05-31T09:56:20.998Z</time>
      </trkpt>
      <trkpt lat="43.76657" lon="5.2806">
        <ele>247</ele>
        <time>2020-05-31T09:56:25.998Z</time>
      </trkpt>
      <trkpt lat="43.76644" lon="5.28057">
        <ele>244</ele>
        <time>2020-05-31T09:56:30.998Z</time>
      </trkpt>
      <trkpt lat="43.76631" lon="5.28053">
        <ele>244</ele>
        <time>2020-05-31T09:56:35.998Z</time>
      </trkpt>
      <trkpt lat="43.76621" lon="5.28055">
        <ele>243</ele>
        <time>2020-05-31T09:56:39.998Z</time>
      </trkpt>
      <trkpt lat="43.76602" lon="5.2806">
        <ele>243</ele>
        <time>2020-05-31T09:56:44.998Z</time>
      </trkpt>
      <trkpt lat="43.76581" lon="5.28064">
        <ele>240</ele>
        <time>2020-05-31T09:56:49.998Z</time>
      </trkpt>
      <trkpt lat="43.76561" lon="5.28062">
        <ele>239</ele>
        <time>2020-05-31T09:56:54.998Z</time>
      </trkpt>
      <trkpt lat="43.76546" lon="5.28056">
        <ele>239</ele>
        <time>2020-05-31T09:56:59.998Z</time>
      </trkpt>
      <trkpt lat="43.76531" lon="5.28067">
        <ele>239</ele>
        <time>2020-05-31T09:57:04.998Z</time>
      </trkpt>
      <trkpt lat="43.7652" lon="5.2808">
        <ele>234</ele>
        <time>2020-05-31T09:57:09.998Z</time>
      </trkpt>
      <trkpt lat="43.76514" lon="5.28084">
        <ele>234</ele>
        <time>2020-05-31T09:57:14.998Z</time>
      </trkpt>
      <trkpt lat="43.76511" lon="5.28085">
        <ele>233</ele>
        <time>2020-05-31T09:57:19.998Z</time>
      </trkpt>
      <trkpt lat="43.76508" lon="5.28092">
        <ele>233</ele>
        <time>2020-05-31T09:57:23.998Z</time>
      </trkpt>
      <trkpt lat="43.76502" lon="5.28101">
        <ele>231</ele>
        <time>2020-05-31T09:57:28.998Z</time>
      </trkpt>
      <trkpt lat="43.76497" lon="5.28104">
        <ele>231</ele>
        <time>2020-05-31T09:57:33.998Z</time>
      </trkpt>
      <trkpt lat="43.76496" lon="5.28107">
        <ele>231</ele>
        <time>2020-05-31T09:57:38.999Z</time>
      </trkpt>
      <trkpt lat="43.76493" lon="5.28108">
        <ele>231</ele>
        <time>2020-05-31T09:57:43.999Z</time>
      </trkpt>
      <trkpt lat="43.76491" lon="5.28107">
        <ele>231</ele>
        <time>2020-05-31T09:57:48.999Z</time>
      </trkpt>
      <trkpt lat="43.76484" lon="5.28107">
        <ele>229</ele>
        <time>2020-05-31T09:57:52.999Z</time>
      </trkpt>
      <trkpt lat="43.76475" lon="5.28111">
        <ele>229</ele>
        <time>2020-05-31T09:57:56.999Z</time>
      </trkpt>
      <trkpt lat="43.76465" lon="5.28119">
        <ele>229</ele>
        <time>2020-05-31T09:58:01.999Z</time>
      </trkpt>
      <trkpt lat="43.76457" lon="5.28121">
        <ele>229</ele>
        <time>2020-05-31T09:58:05.999Z</time>
      </trkpt>
      <trkpt lat="43.76449" lon="5.28128">
        <ele>225</ele>
        <time>2020-05-31T09:58:10.999Z</time>
      </trkpt>
      <trkpt lat="43.76443" lon="5.2814">
        <ele>225</ele>
        <time>2020-05-31T09:58:15.999Z</time>
      </trkpt>
      <trkpt lat="43.76434" lon="5.28148">
        <ele>225</ele>
        <time>2020-05-31T09:58:19.999Z</time>
      </trkpt>
      <trkpt lat="43.76428" lon="5.28158">
        <ele>222</ele>
        <time>2020-05-31T09:58:24.999Z</time>
      </trkpt>
      <trkpt lat="43.76424" lon="5.28158">
        <ele>222</ele>
        <time>2020-05-31T09:58:29.999Z</time>
      </trkpt>
      <trkpt lat="43.76426" lon="5.28162">
        <ele>222</ele>
        <time>2020-05-31T09:58:34.999Z</time>
      </trkpt>
      <trkpt lat="43.76421" lon="5.28167">
        <ele>222</ele>
        <time>2020-05-31T09:59:31.999Z</time>
      </trkpt>
      <trkpt lat="43.76421" lon="5.28167">
        <ele>222</ele>
        <time>2020-05-31T09:59:36.999Z</time>
      </trkpt>
      <trkpt lat="43.7642" lon="5.28169">
        <ele>222</ele>
        <time>2020-05-31T09:59:41.999Z</time>
      </trkpt>
      <trkpt lat="43.7642" lon="5.28172">
        <ele>222</ele>
        <time>2020-05-31T09:59:46.999Z</time>
      </trkpt>
      <trkpt lat="43.7642" lon="5.2819">
        <ele>222</ele>
        <time>2020-05-31T09:59:51.999Z</time>
      </trkpt>
      <trkpt lat="43.76421" lon="5.28199">
        <ele>222</ele>
        <time>2020-05-31T09:59:56.999Z</time>
      </trkpt>
      <trkpt lat="43.7642" lon="5.2821">
        <ele>224</ele>
        <time>2020-05-31T10:00:01.999Z</time>
      </trkpt>
      <trkpt lat="43.76417" lon="5.28223">
        <ele>224</ele>
        <time>2020-05-31T10:00:06.999Z</time>
      </trkpt>
      <trkpt lat="43.7641" lon="5.28235">
        <ele>224</ele>
        <time>2020-05-31T10:00:11.999Z</time>
      </trkpt>
      <trkpt lat="43.76406" lon="5.28238">
        <ele>227</ele>
        <time>2020-05-31T10:00:31.999Z</time>
      </trkpt>
      <trkpt lat="43.76406" lon="5.28242">
        <ele>227</ele>
        <time>2020-05-31T10:00:36.999Z</time>
      </trkpt>
      <trkpt lat="43.76406" lon="5.28256">
        <ele>227</ele>
        <time>2020-05-31T10:00:41.999Z</time>
      </trkpt>
      <trkpt lat="43.76409" lon="5.28264">
        <ele>227</ele>
        <time>2020-05-31T10:00:46.999Z</time>
      </trkpt>
      <trkpt lat="43.7641" lon="5.28266">
        <ele>229</ele>
        <time>2020-05-31T10:00:51.999Z</time>
      </trkpt>
      <trkpt lat="43.76412" lon="5.28267">
        <ele>229</ele>
        <time>2020-05-31T10:00:55.999Z</time>
      </trkpt>
      <trkpt lat="43.76417" lon="5.28268">
        <ele>229</ele>
        <time>2020-05-31T10:01:00.999Z</time>
      </trkpt>
      <trkpt lat="43.76423" lon="5.28267">
        <ele>229</ele>
        <time>2020-05-31T10:01:05.999Z</time>
      </trkpt>
      <trkpt lat="43.76428" lon="5.28264">
        <ele>229</ele>
        <time>2020-05-31T10:01:10.999Z</time>
      </trkpt>
      <trkpt lat="43.76432" lon="5.28265">
        <ele>233</ele>
        <time>2020-05-31T10:01:15.999Z</time>
      </trkpt>
      <trkpt lat="43.76437" lon="5.28263">
        <ele>232</ele>
        <time>2020-05-31T10:01:20.998Z</time>
      </trkpt>
      <trkpt lat="43.76443" lon="5.28259">
        <ele>232</ele>
        <time>2020-05-31T10:01:25.998Z</time>
      </trkpt>
      <trkpt lat="43.76447" lon="5.28257">
        <ele>232</ele>
        <time>2020-05-31T10:01:30.998Z</time>
      </trkpt>
      <trkpt lat="43.76451" lon="5.28254">
        <ele>232</ele>
        <time>2020-05-31T10:01:35.998Z</time>
      </trkpt>
      <trkpt lat="43.76457" lon="5.28252">
        <ele>232</ele>
        <time>2020-05-31T10:01:40.998Z</time>
      </trkpt>
      <trkpt lat="43.76461" lon="5.28249">
        <ele>237</ele>
        <time>2020-05-31T10:01:45.998Z</time>
      </trkpt>
      <trkpt lat="43.76466" lon="5.28245">
        <ele>237</ele>
        <time>2020-05-31T10:01:50.998Z</time>
      </trkpt>
      <trkpt lat="43.7647" lon="5.2824">
        <ele>237</ele>
        <time>2020-05-31T10:01:55.998Z</time>
      </trkpt>
      <trkpt lat="43.76474" lon="5.28234">
        <ele>234</ele>
        <time>2020-05-31T10:02:00.998Z</time>
      </trkpt>
      <trkpt lat="43.7648" lon="5.2823">
        <ele>234</ele>
        <time>2020-05-31T10:02:05.998Z</time>
      </trkpt>
      <trkpt lat="43.76485" lon="5.28229">
        <ele>234</ele>
        <time>2020-05-31T10:02:10.998Z</time>
      </trkpt>
      <trkpt lat="43.7649" lon="5.28227">
        <ele>242</ele>
        <time>2020-05-31T10:02:15.998Z</time>
      </trkpt>
      <trkpt lat="43.76497" lon="5.28225">
        <ele>242</ele>
        <time>2020-05-31T10:02:20.998Z</time>
      </trkpt>
      <trkpt lat="43.76502" lon="5.28221">
        <ele>242</ele>
        <time>2020-05-31T10:02:25.998Z</time>
      </trkpt>
      <trkpt lat="43.76505" lon="5.28217">
        <ele>242</ele>
        <time>2020-05-31T10:02:30.998Z</time>
      </trkpt>
      <trkpt lat="43.7651" lon="5.28212">
        <ele>242</ele>
        <time>2020-05-31T10:02:35.998Z</time>
      </trkpt>
      <trkpt lat="43.76513" lon="5.28208">
        <ele>242</ele>
        <time>2020-05-31T10:02:40.998Z</time>
      </trkpt>
      <trkpt lat="43.7652" lon="5.28206">
        <ele>243</ele>
        <time>2020-05-31T10:02:45.998Z</time>
      </trkpt>
      <trkpt lat="43.76526" lon="5.28202">
        <ele>243</ele>
        <time>2020-05-31T10:02:50.998Z</time>
      </trkpt>
      <trkpt lat="43.76532" lon="5.28201">
        <ele>243</ele>
        <time>2020-05-31T10:02:55.998Z</time>
      </trkpt>
      <trkpt lat="43.76539" lon="5.28198">
        <ele>243</ele>
        <time>2020-05-31T10:03:00.998Z</time>
      </trkpt>
      <trkpt lat="43.76546" lon="5.28194">
        <ele>247</ele>
        <time>2020-05-31T10:03:05.998Z</time>
      </trkpt>
      <trkpt lat="43.76555" lon="5.28192">
        <ele>247</ele>
        <time>2020-05-31T10:03:10.998Z</time>
      </trkpt>
      <trkpt lat="43.76566" lon="5.28191">
        <ele>247</ele>
        <time>2020-05-31T10:03:15.998Z</time>
      </trkpt>
      <trkpt lat="43.76571" lon="5.28188">
        <ele>252</ele>
        <time>2020-05-31T10:03:20.998Z</time>
      </trkpt>
      <trkpt lat="43.76576" lon="5.28181">
        <ele>252</ele>
        <time>2020-05-31T10:03:25.998Z</time>
      </trkpt>
      <trkpt lat="43.76584" lon="5.28176">
        <ele>250</ele>
        <time>2020-05-31T10:03:30.998Z</time>
      </trkpt>
      <trkpt lat="43.76591" lon="5.28172">
        <ele>250</ele>
        <time>2020-05-31T10:03:40.998Z</time>
      </trkpt>
      <trkpt lat="43.76594" lon="5.28176">
        <ele>250</ele>
        <time>2020-05-31T10:03:45.998Z</time>
      </trkpt>
      <trkpt lat="43.76594" lon="5.28176">
        <ele>250</ele>
        <time>2020-05-31T10:03:50.998Z</time>
      </trkpt>
      <trkpt lat="43.76595" lon="5.28175">
        <ele>250</ele>
        <time>2020-05-31T10:03:55.998Z</time>
      </trkpt>
      <trkpt lat="43.766" lon="5.28171">
        <ele>256</ele>
        <time>2020-05-31T10:04:00.998Z</time>
      </trkpt>
      <trkpt lat="43.76604" lon="5.28169">
        <ele>256</ele>
        <time>2020-05-31T10:04:05.998Z</time>
      </trkpt>
      <trkpt lat="43.76607" lon="5.28168">
        <ele>256</ele>
        <time>2020-05-31T10:04:10.998Z</time>
      </trkpt>
      <trkpt lat="43.76609" lon="5.28165">
        <ele>256</ele>
        <time>2020-05-31T10:04:15.998Z</time>
      </trkpt>
      <trkpt lat="43.76617" lon="5.28165">
        <ele>256</ele>
        <time>2020-05-31T10:04:20.998Z</time>
      </trkpt>
      <trkpt lat="43.76622" lon="5.28163">
        <ele>256</ele>
        <time>2020-05-31T10:04:24.998Z</time>
      </trkpt>
      <trkpt lat="43.76628" lon="5.28162">
        <ele>260</ele>
        <time>2020-05-31T10:04:29.998Z</time>
      </trkpt>
      <trkpt lat="43.76635" lon="5.28157">
        <ele>260</ele>
        <time>2020-05-31T10:04:34.998Z</time>
      </trkpt>
      <trkpt lat="43.76639" lon="5.28155">
        <ele>260</ele>
        <time>2020-05-31T10:04:39.998Z</time>
      </trkpt>
      <trkpt lat="43.76647" lon="5.28154">
        <ele>260</ele>
        <time>2020-05-31T10:04:45Z</time>
      </trkpt>
      <trkpt lat="43.76653" lon="5.28153">
        <ele>256</ele>
        <time>2020-05-31T10:04:49Z</time>
      </trkpt>
      <trkpt lat="43.76659" lon="5.28152">
        <ele>260</ele>
        <time>2020-05-31T10:04:54Z</time>
      </trkpt>
      <trkpt lat="43.76667" lon="5.28152">
        <ele>260</ele>
        <time>2020-05-31T10:04:59Z</time>
      </trkpt>
      <trkpt lat="43.76672" lon="5.28149">
        <ele>260</ele>
        <time>2020-05-31T10:05:04Z</time>
      </trkpt>
      <trkpt lat="43.76679" lon="5.28145">
        <ele>260</ele>
        <time>2020-05-31T10:05:09Z</time>
      </trkpt>
      <trkpt lat="43.76687" lon="5.28144">
        <ele>263</ele>
        <time>2020-05-31T10:05:14Z</time>
      </trkpt>
      <trkpt lat="43.76694" lon="5.28146">
        <ele>263</ele>
        <time>2020-05-31T10:05:19Z</time>
      </trkpt>
      <trkpt lat="43.76701" lon="5.28146">
        <ele>263</ele>
        <time>2020-05-31T10:05:24Z</time>
      </trkpt>
      <trkpt lat="43.76709" lon="5.28147">
        <ele>265</ele>
        <time>2020-05-31T10:05:29Z</time>
      </trkpt>
      <trkpt lat="43.76716" lon="5.28147">
        <ele>265</ele>
        <time>2020-05-31T10:05:34Z</time>
      </trkpt>
      <trkpt lat="43.76726" lon="5.28145">
        <ele>265</ele>
        <time>2020-05-31T10:05:38.999Z</time>
      </trkpt>
      <trkpt lat="43.76734" lon="5.28147">
        <ele>265</ele>
        <time>2020-05-31T10:05:43.999Z</time>
      </trkpt>
      <trkpt lat="43.76741" lon="5.28151">
        <ele>271</ele>
        <time>2020-05-31T10:05:48.999Z</time>
      </trkpt>
      <trkpt lat="43.76749" lon="5.28156">
        <ele>274</ele>
        <time>2020-05-31T10:05:53.999Z</time>
      </trkpt>
      <trkpt lat="43.76757" lon="5.28156">
        <ele>274</ele>
        <time>2020-05-31T10:05:58.999Z</time>
      </trkpt>
      <trkpt lat="43.76763" lon="5.28158">
        <ele>274</ele>
        <time>2020-05-31T10:06:03.999Z</time>
      </trkpt>
      <trkpt lat="43.76769" lon="5.28158">
        <ele>278</ele>
        <time>2020-05-31T10:06:08.999Z</time>
      </trkpt>
      <trkpt lat="43.76775" lon="5.28159">
        <ele>278</ele>
        <time>2020-05-31T10:06:13.999Z</time>
      </trkpt>
      <trkpt lat="43.76783" lon="5.28163">
        <ele>278</ele>
        <time>2020-05-31T10:06:18.999Z</time>
      </trkpt>
      <trkpt lat="43.76786" lon="5.28157">
        <ele>278</ele>
        <time>2020-05-31T10:06:23.999Z</time>
      </trkpt>
      <trkpt lat="43.7679" lon="5.28148">
        <ele>275</ele>
        <time>2020-05-31T10:06:28.999Z</time>
      </trkpt>
      <trkpt lat="43.76794" lon="5.28138">
        <ele>278</ele>
        <time>2020-05-31T10:06:33.999Z</time>
      </trkpt>
      <trkpt lat="43.76803" lon="5.28128">
        <ele>278</ele>
        <time>2020-05-31T10:06:38.999Z</time>
      </trkpt>
      <trkpt lat="43.76812" lon="5.28119">
        <ele>272</ele>
        <time>2020-05-31T10:06:43.999Z</time>
      </trkpt>
      <trkpt lat="43.7682" lon="5.28113">
        <ele>279</ele>
        <time>2020-05-31T10:06:48.999Z</time>
      </trkpt>
      <trkpt lat="43.76827" lon="5.28111">
        <ele>279</ele>
        <time>2020-05-31T10:06:53.999Z</time>
      </trkpt>
      <trkpt lat="43.76834" lon="5.28104">
        <ele>279</ele>
        <time>2020-05-31T10:06:58.999Z</time>
      </trkpt>
      <trkpt lat="43.76835" lon="5.28105">
        <ele>279</ele>
        <time>2020-05-31T10:07:03.999Z</time>
      </trkpt>
      <trkpt lat="43.76835" lon="5.28104">
        <ele>279</ele>
        <time>2020-05-31T10:07:08.999Z</time>
      </trkpt>
      <trkpt lat="43.76837" lon="5.28104">
        <ele>279</ele>
        <time>2020-05-31T10:07:13.999Z</time>
      </trkpt>
      <trkpt lat="43.76841" lon="5.28103">
        <ele>279</ele>
        <time>2020-05-31T10:07:17.999Z</time>
      </trkpt>
      <trkpt lat="43.76849" lon="5.28103">
        <ele>286</ele>
        <time>2020-05-31T10:07:22.999Z</time>
      </trkpt>
      <trkpt lat="43.7686" lon="5.28097">
        <ele>282</ele>
        <time>2020-05-31T10:07:27.999Z</time>
      </trkpt>
      <trkpt lat="43.76867" lon="5.28092">
        <ele>282</ele>
        <time>2020-05-31T10:07:31.999Z</time>
      </trkpt>
      <trkpt lat="43.76874" lon="5.28088">
        <ele>282</ele>
        <time>2020-05-31T10:07:36.999Z</time>
      </trkpt>
      <trkpt lat="43.76882" lon="5.28082">
        <ele>290</ele>
        <time>2020-05-31T10:07:41.999Z</time>
      </trkpt>
      <trkpt lat="43.76889" lon="5.2808">
        <ele>290</ele>
        <time>2020-05-31T10:07:46.999Z</time>
      </trkpt>
      <trkpt lat="43.76894" lon="5.28078">
        <ele>290</ele>
        <time>2020-05-31T10:07:50.999Z</time>
      </trkpt>
      <trkpt lat="43.76896" lon="5.28075">
        <ele>290</ele>
        <time>2020-05-31T10:07:55.999Z</time>
      </trkpt>
      <trkpt lat="43.76904" lon="5.28061">
        <ele>293</ele>
        <time>2020-05-31T10:08:00.999Z</time>
      </trkpt>
      <trkpt lat="43.76908" lon="5.28054">
        <ele>293</ele>
        <time>2020-05-31T10:08:05.999Z</time>
      </trkpt>
      <trkpt lat="43.76912" lon="5.28048">
        <ele>293</ele>
        <time>2020-05-31T10:08:09.999Z</time>
      </trkpt>
      <trkpt lat="43.76915" lon="5.28036">
        <ele>287</ele>
        <time>2020-05-31T10:08:14.999Z</time>
      </trkpt>
      <trkpt lat="43.76921" lon="5.28018">
        <ele>287</ele>
        <time>2020-05-31T10:08:18.999Z</time>
      </trkpt>
      <trkpt lat="43.76935" lon="5.27994">
        <ele>291</ele>
        <time>2020-05-31T10:08:23.999Z</time>
      </trkpt>
      <trkpt lat="43.7695" lon="5.27977">
        <ele>288</ele>
        <time>2020-05-31T10:08:28.999Z</time>
      </trkpt>
      <trkpt lat="43.76957" lon="5.27974">
        <ele>288</ele>
        <time>2020-05-31T10:08:33.999Z</time>
      </trkpt>
      <trkpt lat="43.76965" lon="5.27971">
        <ele>296</ele>
        <time>2020-05-31T10:08:38.999Z</time>
      </trkpt>
      <trkpt lat="43.76971" lon="5.27968">
        <ele>296</ele>
        <time>2020-05-31T10:08:43.999Z</time>
      </trkpt>
      <trkpt lat="43.76976" lon="5.27966">
        <ele>296</ele>
        <time>2020-05-31T10:08:48.999Z</time>
      </trkpt>
      <trkpt lat="43.7698" lon="5.27968">
        <ele>296</ele>
        <time>2020-05-31T10:08:53.999Z</time>
      </trkpt>
      <trkpt lat="43.76983" lon="5.27969">
        <ele>296</ele>
        <time>2020-05-31T10:08:58.999Z</time>
      </trkpt>
      <trkpt lat="43.7699" lon="5.27967">
        <ele>301</ele>
        <time>2020-05-31T10:09:03.999Z</time>
      </trkpt>
      <trkpt lat="43.76996" lon="5.27965">
        <ele>301</ele>
        <time>2020-05-31T10:09:08.999Z</time>
      </trkpt>
      <trkpt lat="43.77001" lon="5.27965">
        <ele>301</ele>
        <time>2020-05-31T10:09:13.999Z</time>
      </trkpt>
      <trkpt lat="43.77009" lon="5.27961">
        <ele>301</ele>
        <time>2020-05-31T10:09:18.999Z</time>
      </trkpt>
      <trkpt lat="43.77017" lon="5.27954">
        <ele>301</ele>
        <time>2020-05-31T10:09:23.999Z</time>
      </trkpt>
      <trkpt lat="43.77023" lon="5.27945">
        <ele>301</ele>
        <time>2020-05-31T10:09:28.999Z</time>
      </trkpt>
      <trkpt lat="43.77031" lon="5.27942">
        <ele>301</ele>
        <time>2020-05-31T10:09:33.999Z</time>
      </trkpt>
      <trkpt lat="43.77036" lon="5.27943">
        <ele>301</ele>
        <time>2020-05-31T10:09:38.999Z</time>
      </trkpt>
      <trkpt lat="43.77042" lon="5.27945">
        <ele>304</ele>
        <time>2020-05-31T10:09:43.999Z</time>
      </trkpt>
      <trkpt lat="43.77049" lon="5.27943">
        <ele>304</ele>
        <time>2020-05-31T10:09:48.999Z</time>
      </trkpt>
      <trkpt lat="43.77054" lon="5.27941">
        <ele>304</ele>
        <time>2020-05-31T10:09:53.999Z</time>
      </trkpt>
      <trkpt lat="43.77061" lon="5.2794">
        <ele>304</ele>
        <time>2020-05-31T10:09:58.998Z</time>
      </trkpt>
      <trkpt lat="43.77067" lon="5.2795">
        <ele>304</ele>
        <time>2020-05-31T10:10:37.998Z</time>
      </trkpt>
      <trkpt lat="43.77067" lon="5.27951">
        <ele>304</ele>
        <time>2020-05-31T10:10:42.998Z</time>
      </trkpt>
      <trkpt lat="43.77069" lon="5.27955">
        <ele>304</ele>
        <time>2020-05-31T10:10:47.998Z</time>
      </trkpt>
      <trkpt lat="43.77069" lon="5.27955">
        <ele>304</ele>
        <time>2020-05-31T10:10:51.998Z</time>
      </trkpt>
      <trkpt lat="43.77072" lon="5.2796">
        <ele>312</ele>
        <time>2020-05-31T10:10:56.998Z</time>
      </trkpt>
      <trkpt lat="43.77078" lon="5.27962">
        <ele>312</ele>
        <time>2020-05-31T10:11:11.998Z</time>
      </trkpt>
      <trkpt lat="43.77079" lon="5.27959">
        <ele>312</ele>
        <time>2020-05-31T10:11:16.998Z</time>
      </trkpt>
      <trkpt lat="43.77081" lon="5.27961">
        <ele>312</ele>
        <time>2020-05-31T10:11:21.998Z</time>
      </trkpt>
      <trkpt lat="43.77083" lon="5.2796">
        <ele>312</ele>
        <time>2020-05-31T10:11:26.998Z</time>
      </trkpt>
      <trkpt lat="43.77084" lon="5.27961">
        <ele>312</ele>
        <time>2020-05-31T10:11:31.998Z</time>
      </trkpt>
      <trkpt lat="43.77089" lon="5.27968">
        <ele>312</ele>
        <time>2020-05-31T10:12:26Z</time>
      </trkpt>
      <trkpt lat="43.77089" lon="5.27968">
        <ele>312</ele>
        <time>2020-05-31T10:12:31Z</time>
      </trkpt>
      <trkpt lat="43.7709" lon="5.27971">
        <ele>312</ele>
        <time>2020-05-31T10:12:36Z</time>
      </trkpt>
      <trkpt lat="43.77092" lon="5.27978">
        <ele>312</ele>
        <time>2020-05-31T10:12:40Z</time>
      </trkpt>
      <trkpt lat="43.7709" lon="5.27988">
        <ele>319</ele>
        <time>2020-05-31T10:12:45Z</time>
      </trkpt>
      <trkpt lat="43.77088" lon="5.27993">
        <ele>319</ele>
        <time>2020-05-31T10:12:50Z</time>
      </trkpt>
      <trkpt lat="43.77085" lon="5.28">
        <ele>319</ele>
        <time>2020-05-31T10:12:55Z</time>
      </trkpt>
      <trkpt lat="43.77083" lon="5.28002">
        <ele>319</ele>
        <time>2020-05-31T10:13:00Z</time>
      </trkpt>
      <trkpt lat="43.77078" lon="5.28002">
        <ele>319</ele>
        <time>2020-05-31T10:13:05Z</time>
      </trkpt>
      <trkpt lat="43.77067" lon="5.28004">
        <ele>315</ele>
        <time>2020-05-31T10:13:10Z</time>
      </trkpt>
      <trkpt lat="43.77055" lon="5.28011">
        <ele>315</ele>
        <time>2020-05-31T10:13:15Z</time>
      </trkpt>
      <trkpt lat="43.77039" lon="5.28019">
        <ele>316</ele>
        <time>2020-05-31T10:13:20Z</time>
      </trkpt>
      <trkpt lat="43.77029" lon="5.28028">
        <ele>316</ele>
        <time>2020-05-31T10:13:25Z</time>
      </trkpt>
      <trkpt lat="43.77023" lon="5.28035">
        <ele>316</ele>
        <time>2020-05-31T10:13:29.999Z</time>
      </trkpt>
      <trkpt lat="43.77017" lon="5.28041">
        <ele>316</ele>
        <time>2020-05-31T10:13:34.999Z</time>
      </trkpt>
      <trkpt lat="43.77011" lon="5.2805">
        <ele>315</ele>
        <time>2020-05-31T10:13:39.999Z</time>
      </trkpt>
      <trkpt lat="43.76998" lon="5.28064">
        <ele>315</ele>
        <time>2020-05-31T10:13:44.999Z</time>
      </trkpt>
      <trkpt lat="43.76983" lon="5.28078">
        <ele>313</ele>
        <time>2020-05-31T10:13:49.999Z</time>
      </trkpt>
      <trkpt lat="43.76979" lon="5.28091">
        <ele>313</ele>
        <time>2020-05-31T10:13:54.999Z</time>
      </trkpt>
      <trkpt lat="43.76976" lon="5.28102">
        <ele>313</ele>
        <time>2020-05-31T10:13:59.999Z</time>
      </trkpt>
      <trkpt lat="43.76975" lon="5.28109">
        <ele>313</ele>
        <time>2020-05-31T10:14:04.999Z</time>
      </trkpt>
      <trkpt lat="43.76973" lon="5.28121">
        <ele>313</ele>
        <time>2020-05-31T10:14:09.999Z</time>
      </trkpt>
      <trkpt lat="43.76972" lon="5.28127">
        <ele>315</ele>
        <time>2020-05-31T10:14:13.999Z</time>
      </trkpt>
      <trkpt lat="43.76971" lon="5.28137">
        <ele>315</ele>
        <time>2020-05-31T10:14:18.999Z</time>
      </trkpt>
      <trkpt lat="43.76974" lon="5.28148">
        <ele>315</ele>
        <time>2020-05-31T10:14:23.999Z</time>
      </trkpt>
      <trkpt lat="43.76974" lon="5.2816">
        <ele>317</ele>
        <time>2020-05-31T10:14:28.999Z</time>
      </trkpt>
      <trkpt lat="43.76973" lon="5.2817">
        <ele>317</ele>
        <time>2020-05-31T10:14:33.999Z</time>
      </trkpt>
      <trkpt lat="43.76974" lon="5.28185">
        <ele>317</ele>
        <time>2020-05-31T10:14:38.999Z</time>
      </trkpt>
      <trkpt lat="43.76976" lon="5.282">
        <ele>317</ele>
        <time>2020-05-31T10:14:43.999Z</time>
      </trkpt>
      <trkpt lat="43.76978" lon="5.28221">
        <ele>316</ele>
        <time>2020-05-31T10:14:48.999Z</time>
      </trkpt>
      <trkpt lat="43.76984" lon="5.28252">
        <ele>313</ele>
        <time>2020-05-31T10:14:53.999Z</time>
      </trkpt>
      <trkpt lat="43.76983" lon="5.28279">
        <ele>310</ele>
        <time>2020-05-31T10:14:58.999Z</time>
      </trkpt>
      <trkpt lat="43.76994" lon="5.28306">
        <ele>313</ele>
        <time>2020-05-31T10:15:03.999Z</time>
      </trkpt>
      <trkpt lat="43.77004" lon="5.28323">
        <ele>309</ele>
        <time>2020-05-31T10:15:08.999Z</time>
      </trkpt>
      <trkpt lat="43.77009" lon="5.28333">
        <ele>309</ele>
        <time>2020-05-31T10:15:13.999Z</time>
      </trkpt>
      <trkpt lat="43.77014" lon="5.28342">
        <ele>315</ele>
        <time>2020-05-31T10:15:18.999Z</time>
      </trkpt>
      <trkpt lat="43.77021" lon="5.28353">
        <ele>310</ele>
        <time>2020-05-31T10:15:23.999Z</time>
      </trkpt>
      <trkpt lat="43.77028" lon="5.28356">
        <ele>310</ele>
        <time>2020-05-31T10:15:28.999Z</time>
      </trkpt>
      <trkpt lat="43.77035" lon="5.28359">
        <ele>310</ele>
        <time>2020-05-31T10:15:33.999Z</time>
      </trkpt>
      <trkpt lat="43.77042" lon="5.28363">
        <ele>310</ele>
        <time>2020-05-31T10:15:38.999Z</time>
      </trkpt>
      <trkpt lat="43.77049" lon="5.28364">
        <ele>319</ele>
        <time>2020-05-31T10:15:43.999Z</time>
      </trkpt>
      <trkpt lat="43.77053" lon="5.28369">
        <ele>319</ele>
        <time>2020-05-31T10:15:48.999Z</time>
      </trkpt>
      <trkpt lat="43.7706" lon="5.28385">
        <ele>313</ele>
        <time>2020-05-31T10:15:53.999Z</time>
      </trkpt>
      <trkpt lat="43.77068" lon="5.28401">
        <ele>313</ele>
        <time>2020-05-31T10:15:58.999Z</time>
      </trkpt>
      <trkpt lat="43.7707" lon="5.28423">
        <ele>313</ele>
        <time>2020-05-31T10:16:03.999Z</time>
      </trkpt>
      <trkpt lat="43.7707" lon="5.28447">
        <ele>308</ele>
        <time>2020-05-31T10:16:08.999Z</time>
      </trkpt>
      <trkpt lat="43.77068" lon="5.28472">
        <ele>303</ele>
        <time>2020-05-31T10:16:13.999Z</time>
      </trkpt>
      <trkpt lat="43.77061" lon="5.28494">
        <ele>302</ele>
        <time>2020-05-31T10:16:18.999Z</time>
      </trkpt>
      <trkpt lat="43.77057" lon="5.28515">
        <ele>300</ele>
        <time>2020-05-31T10:16:23.999Z</time>
      </trkpt>
      <trkpt lat="43.77056" lon="5.28523">
        <ele>300</ele>
        <time>2020-05-31T10:16:28.999Z</time>
      </trkpt>
      <trkpt lat="43.77055" lon="5.28521">
        <ele>300</ele>
        <time>2020-05-31T10:16:33.999Z</time>
      </trkpt>
      <trkpt lat="43.77056" lon="5.2852">
        <ele>300</ele>
        <time>2020-05-31T10:16:38.999Z</time>
      </trkpt>
      <trkpt lat="43.77052" lon="5.28531">
        <ele>300</ele>
        <time>2020-05-31T10:16:43.999Z</time>
      </trkpt>
      <trkpt lat="43.77047" lon="5.28548">
        <ele>297</ele>
        <time>2020-05-31T10:16:48.999Z</time>
      </trkpt>
      <trkpt lat="43.77042" lon="5.28552">
        <ele>297</ele>
        <time>2020-05-31T10:16:53.999Z</time>
      </trkpt>
      <trkpt lat="43.77043" lon="5.2856">
        <ele>297</ele>
        <time>2020-05-31T10:16:58.999Z</time>
      </trkpt>
      <trkpt lat="43.77044" lon="5.28573">
        <ele>294</ele>
        <time>2020-05-31T10:17:03.999Z</time>
      </trkpt>
      <trkpt lat="43.77048" lon="5.2858">
        <ele>294</ele>
        <time>2020-05-31T10:17:08.999Z</time>
      </trkpt>
      <trkpt lat="43.77051" lon="5.28584">
        <ele>294</ele>
        <time>2020-05-31T10:17:13.998Z</time>
      </trkpt>
      <trkpt lat="43.77057" lon="5.28584">
        <ele>294</ele>
        <time>2020-05-31T10:17:18.998Z</time>
      </trkpt>
      <trkpt lat="43.77061" lon="5.28588">
        <ele>294</ele>
        <time>2020-05-31T10:17:23.998Z</time>
      </trkpt>
      <trkpt lat="43.77064" lon="5.286">
        <ele>293</ele>
        <time>2020-05-31T10:17:28.998Z</time>
      </trkpt>
      <trkpt lat="43.7707" lon="5.2861">
        <ele>299</ele>
        <time>2020-05-31T10:17:33.998Z</time>
      </trkpt>
      <trkpt lat="43.7707" lon="5.28624">
        <ele>299</ele>
        <time>2020-05-31T10:17:38.998Z</time>
      </trkpt>
      <trkpt lat="43.77063" lon="5.28638">
        <ele>294</ele>
        <time>2020-05-31T10:17:43.998Z</time>
      </trkpt>
      <trkpt lat="43.77058" lon="5.28647">
        <ele>294</ele>
        <time>2020-05-31T10:17:48.997Z</time>
      </trkpt>
      <trkpt lat="43.77047" lon="5.28663">
        <ele>294</ele>
        <time>2020-05-31T10:18:08.997Z</time>
      </trkpt>
      <trkpt lat="43.77047" lon="5.28666">
        <ele>294</ele>
        <time>2020-05-31T10:18:13.997Z</time>
      </trkpt>
      <trkpt lat="43.77042" lon="5.28685">
        <ele>288</ele>
        <time>2020-05-31T10:18:18.997Z</time>
      </trkpt>
      <trkpt lat="43.77035" lon="5.28707">
        <ele>288</ele>
        <time>2020-05-31T10:18:22.997Z</time>
      </trkpt>
      <trkpt lat="43.77036" lon="5.28728">
        <ele>287</ele>
        <time>2020-05-31T10:18:27.997Z</time>
      </trkpt>
      <trkpt lat="43.77035" lon="5.2875">
        <ele>288</ele>
        <time>2020-05-31T10:18:32.997Z</time>
      </trkpt>
      <trkpt lat="43.77036" lon="5.28763">
        <ele>288</ele>
        <time>2020-05-31T10:18:36.997Z</time>
      </trkpt>
      <trkpt lat="43.77035" lon="5.28783">
        <ele>288</ele>
        <time>2020-05-31T10:18:41.997Z</time>
      </trkpt>
      <trkpt lat="43.77035" lon="5.28817">
        <ele>287</ele>
        <time>2020-05-31T10:18:46.997Z</time>
      </trkpt>
      <trkpt lat="43.77031" lon="5.28846">
        <ele>286</ele>
        <time>2020-05-31T10:18:51.997Z</time>
      </trkpt>
      <trkpt lat="43.77027" lon="5.28863">
        <ele>286</ele>
        <time>2020-05-31T10:18:56.999Z</time>
      </trkpt>
      <trkpt lat="43.77023" lon="5.2888">
        <ele>287</ele>
        <time>2020-05-31T10:19:00.999Z</time>
      </trkpt>
      <trkpt lat="43.77017" lon="5.28891">
        <ele>287</ele>
        <time>2020-05-31T10:19:05.999Z</time>
      </trkpt>
      <trkpt lat="43.77016" lon="5.28897">
        <ele>287</ele>
        <time>2020-05-31T10:19:10.999Z</time>
      </trkpt>
      <trkpt lat="43.77012" lon="5.28913">
        <ele>279</ele>
        <time>2020-05-31T10:19:15.999Z</time>
      </trkpt>
      <trkpt lat="43.77006" lon="5.28938">
        <ele>279</ele>
        <time>2020-05-31T10:19:20.999Z</time>
      </trkpt>
      <trkpt lat="43.77002" lon="5.28958">
        <ele>279</ele>
        <time>2020-05-31T10:19:25.999Z</time>
      </trkpt>
      <trkpt lat="43.76998" lon="5.28979">
        <ele>280</ele>
        <time>2020-05-31T10:19:30.999Z</time>
      </trkpt>
      <trkpt lat="43.76997" lon="5.28989">
        <ele>283</ele>
        <time>2020-05-31T10:19:34.999Z</time>
      </trkpt>
      <trkpt lat="43.77003" lon="5.28997">
        <ele>283</ele>
        <time>2020-05-31T10:19:39.999Z</time>
      </trkpt>
      <trkpt lat="43.77008" lon="5.28999">
        <ele>283</ele>
        <time>2020-05-31T10:19:43.999Z</time>
      </trkpt>
      <trkpt lat="43.77013" lon="5.28999">
        <ele>283</ele>
        <time>2020-05-31T10:19:48.999Z</time>
      </trkpt>
      <trkpt lat="43.77017" lon="5.28994">
        <ele>289</ele>
        <time>2020-05-31T10:19:52.999Z</time>
      </trkpt>
      <trkpt lat="43.77017" lon="5.28975">
        <ele>288</ele>
        <time>2020-05-31T10:19:57.999Z</time>
      </trkpt>
      <trkpt lat="43.7702" lon="5.28962">
        <ele>288</ele>
        <time>2020-05-31T10:20:02.999Z</time>
      </trkpt>
      <trkpt lat="43.77024" lon="5.28962">
        <ele>288</ele>
        <time>2020-05-31T10:20:07.999Z</time>
      </trkpt>
      <trkpt lat="43.77026" lon="5.28969">
        <ele>288</ele>
        <time>2020-05-31T10:20:11.999Z</time>
      </trkpt>
      <trkpt lat="43.77028" lon="5.28976">
        <ele>288</ele>
        <time>2020-05-31T10:20:16.999Z</time>
      </trkpt>
      <trkpt lat="43.77033" lon="5.28991">
        <ele>289</ele>
        <time>2020-05-31T10:20:21.999Z</time>
      </trkpt>
      <trkpt lat="43.77033" lon="5.29004">
        <ele>289</ele>
        <time>2020-05-31T10:20:26.999Z</time>
      </trkpt>
      <trkpt lat="43.77034" lon="5.29021">
        <ele>290</ele>
        <time>2020-05-31T10:20:31.999Z</time>
      </trkpt>
      <trkpt lat="43.77033" lon="5.29038">
        <ele>290</ele>
        <time>2020-05-31T10:20:36.999Z</time>
      </trkpt>
      <trkpt lat="43.77031" lon="5.29049">
        <ele>292</ele>
        <time>2020-05-31T10:20:40.999Z</time>
      </trkpt>
      <trkpt lat="43.7703" lon="5.29059">
        <ele>292</ele>
        <time>2020-05-31T10:20:45.999Z</time>
      </trkpt>
      <trkpt lat="43.77031" lon="5.29069">
        <ele>292</ele>
        <time>2020-05-31T10:20:50.999Z</time>
      </trkpt>
      <trkpt lat="43.77024" lon="5.2907">
        <ele>293</ele>
        <time>2020-05-31T10:20:55.999Z</time>
      </trkpt>
      <trkpt lat="43.77016" lon="5.29084">
        <ele>293</ele>
        <time>2020-05-31T10:21:00.999Z</time>
      </trkpt>
      <trkpt lat="43.77012" lon="5.29102">
        <ele>289</ele>
        <time>2020-05-31T10:21:05.999Z</time>
      </trkpt>
      <trkpt lat="43.77011" lon="5.29109">
        <ele>289</ele>
        <time>2020-05-31T10:21:09.999Z</time>
      </trkpt>
      <trkpt lat="43.77006" lon="5.29119">
        <ele>289</ele>
        <time>2020-05-31T10:21:14.999Z</time>
      </trkpt>
      <trkpt lat="43.77003" lon="5.29134">
        <ele>290</ele>
        <time>2020-05-31T10:21:19.999Z</time>
      </trkpt>
      <trkpt lat="43.77003" lon="5.29145">
        <ele>290</ele>
        <time>2020-05-31T10:21:29.999Z</time>
      </trkpt>
      <trkpt lat="43.77005" lon="5.29145">
        <ele>290</ele>
        <time>2020-05-31T10:21:34.999Z</time>
      </trkpt>
      <trkpt lat="43.77006" lon="5.29146">
        <ele>290</ele>
        <time>2020-05-31T10:21:39.999Z</time>
      </trkpt>
      <trkpt lat="43.77005" lon="5.29149">
        <ele>290</ele>
        <time>2020-05-31T10:21:43.999Z</time>
      </trkpt>
      <trkpt lat="43.76999" lon="5.29158">
        <ele>292</ele>
        <time>2020-05-31T10:21:48.999Z</time>
      </trkpt>
      <trkpt lat="43.76993" lon="5.2918">
        <ele>292</ele>
        <time>2020-05-31T10:21:53.999Z</time>
      </trkpt>
      <trkpt lat="43.76986" lon="5.29198">
        <ele>289</ele>
        <time>2020-05-31T10:21:58.998Z</time>
      </trkpt>
      <trkpt lat="43.76981" lon="5.29214">
        <ele>290</ele>
        <time>2020-05-31T10:22:03.998Z</time>
      </trkpt>
      <trkpt lat="43.76978" lon="5.29226">
        <ele>290</ele>
        <time>2020-05-31T10:22:08.998Z</time>
      </trkpt>
      <trkpt lat="43.76969" lon="5.29233">
        <ele>290</ele>
        <time>2020-05-31T10:22:13.998Z</time>
      </trkpt>
      <trkpt lat="43.76958" lon="5.2923">
        <ele>286</ele>
        <time>2020-05-31T10:22:18.998Z</time>
      </trkpt>
      <trkpt lat="43.76944" lon="5.2923">
        <ele>286</ele>
        <time>2020-05-31T10:22:23.998Z</time>
      </trkpt>
      <trkpt lat="43.76931" lon="5.29227">
        <ele>286</ele>
        <time>2020-05-31T10:22:28.998Z</time>
      </trkpt>
      <trkpt lat="43.76912" lon="5.29222">
        <ele>284</ele>
        <time>2020-05-31T10:22:33.998Z</time>
      </trkpt>
      <trkpt lat="43.76891" lon="5.29216">
        <ele>281</ele>
        <time>2020-05-31T10:22:38.998Z</time>
      </trkpt>
      <trkpt lat="43.7687" lon="5.29218">
        <ele>277</ele>
        <time>2020-05-31T10:22:43.998Z</time>
      </trkpt>
      <trkpt lat="43.76851" lon="5.29218">
        <ele>277</ele>
        <time>2020-05-31T10:22:48.998Z</time>
      </trkpt>
      <trkpt lat="43.7685" lon="5.29227">
        <ele>277</ele>
        <time>2020-05-31T10:22:52.998Z</time>
      </trkpt>
      <trkpt lat="43.76866" lon="5.29247">
        <ele>274</ele>
        <time>2020-05-31T10:22:57.998Z</time>
      </trkpt>
      <trkpt lat="43.76879" lon="5.29263">
        <ele>279</ele>
        <time>2020-05-31T10:23:01.998Z</time>
      </trkpt>
      <trkpt lat="43.76897" lon="5.29278">
        <ele>275</ele>
        <time>2020-05-31T10:23:06.998Z</time>
      </trkpt>
      <trkpt lat="43.7692" lon="5.29295">
        <ele>276</ele>
        <time>2020-05-31T10:23:11.998Z</time>
      </trkpt>
      <trkpt lat="43.76932" lon="5.29311">
        <ele>279</ele>
        <time>2020-05-31T10:23:15.998Z</time>
      </trkpt>
      <trkpt lat="43.76949" lon="5.2933">
        <ele>277</ele>
        <time>2020-05-31T10:23:20.998Z</time>
      </trkpt>
      <trkpt lat="43.76961" lon="5.29339">
        <ele>281</ele>
        <time>2020-05-31T10:23:24.998Z</time>
      </trkpt>
      <trkpt lat="43.76973" lon="5.29347">
        <ele>281</ele>
        <time>2020-05-31T10:23:29.998Z</time>
      </trkpt>
      <trkpt lat="43.76982" lon="5.2936">
        <ele>279</ele>
        <time>2020-05-31T10:23:33.998Z</time>
      </trkpt>
      <trkpt lat="43.77001" lon="5.29374">
        <ele>282</ele>
        <time>2020-05-31T10:23:38.998Z</time>
      </trkpt>
      <trkpt lat="43.77013" lon="5.29383">
        <ele>278</ele>
        <time>2020-05-31T10:23:43.998Z</time>
      </trkpt>
      <trkpt lat="43.77025" lon="5.2942">
        <ele>277</ele>
        <time>2020-05-31T10:24:03.998Z</time>
      </trkpt>
      <trkpt lat="43.77028" lon="5.29429">
        <ele>277</ele>
        <time>2020-05-31T10:24:08.998Z</time>
      </trkpt>
      <trkpt lat="43.77033" lon="5.29442">
        <ele>274</ele>
        <time>2020-05-31T10:24:13.998Z</time>
      </trkpt>
      <trkpt lat="43.77037" lon="5.29463">
        <ele>273</ele>
        <time>2020-05-31T10:24:18.998Z</time>
      </trkpt>
      <trkpt lat="43.77036" lon="5.29478">
        <ele>273</ele>
        <time>2020-05-31T10:24:22.998Z</time>
      </trkpt>
      <trkpt lat="43.77038" lon="5.29497">
        <ele>273</ele>
        <time>2020-05-31T10:24:27.998Z</time>
      </trkpt>
      <trkpt lat="43.77036" lon="5.29514">
        <ele>272</ele>
        <time>2020-05-31T10:24:31.998Z</time>
      </trkpt>
      <trkpt lat="43.77033" lon="5.29537">
        <ele>272</ele>
        <time>2020-05-31T10:24:36.998Z</time>
      </trkpt>
      <trkpt lat="43.77035" lon="5.29553">
        <ele>272</ele>
        <time>2020-05-31T10:24:41.998Z</time>
      </trkpt>
      <trkpt lat="43.77032" lon="5.29566">
        <ele>272</ele>
        <time>2020-05-31T10:24:46.998Z</time>
      </trkpt>
      <trkpt lat="43.77026" lon="5.29572">
        <ele>272</ele>
        <time>2020-05-31T10:24:51.998Z</time>
      </trkpt>
      <trkpt lat="43.77019" lon="5.29577">
        <ele>272</ele>
        <time>2020-05-31T10:24:56.998Z</time>
      </trkpt>
      <trkpt lat="43.77013" lon="5.29584">
        <ele>276</ele>
        <time>2020-05-31T10:25:01.998Z</time>
      </trkpt>
      <trkpt lat="43.77005" lon="5.29595">
        <ele>276</ele>
        <time>2020-05-31T10:25:06.998Z</time>
      </trkpt>
      <trkpt lat="43.76999" lon="5.29607">
        <ele>276</ele>
        <time>2020-05-31T10:25:11.998Z</time>
      </trkpt>
      <trkpt lat="43.76997" lon="5.29623">
        <ele>276</ele>
        <time>2020-05-31T10:25:16.998Z</time>
      </trkpt>
      <trkpt lat="43.76994" lon="5.29642">
        <ele>276</ele>
        <time>2020-05-31T10:25:21.998Z</time>
      </trkpt>
      <trkpt lat="43.76989" lon="5.2966">
        <ele>277</ele>
        <time>2020-05-31T10:25:26.998Z</time>
      </trkpt>
      <trkpt lat="43.76989" lon="5.29673">
        <ele>277</ele>
        <time>2020-05-31T10:25:30.998Z</time>
      </trkpt>
      <trkpt lat="43.76981" lon="5.29691">
        <ele>279</ele>
        <time>2020-05-31T10:25:35.998Z</time>
      </trkpt>
      <trkpt lat="43.76976" lon="5.29705">
        <ele>279</ele>
        <time>2020-05-31T10:25:40.998Z</time>
      </trkpt>
      <trkpt lat="43.76978" lon="5.29714">
        <ele>273</ele>
        <time>2020-05-31T10:25:44.998Z</time>
      </trkpt>
      <trkpt lat="43.76978" lon="5.29726">
        <ele>273</ele>
        <time>2020-05-31T10:25:49.998Z</time>
      </trkpt>
      <trkpt lat="43.76978" lon="5.29749">
        <ele>269</ele>
        <time>2020-05-31T10:25:54.998Z</time>
      </trkpt>
      <trkpt lat="43.76977" lon="5.2976">
        <ele>269</ele>
        <time>2020-05-31T10:25:59.998Z</time>
      </trkpt>
      <trkpt lat="43.76977" lon="5.29767">
        <ele>268</ele>
        <time>2020-05-31T10:26:03.999Z</time>
      </trkpt>
      <trkpt lat="43.76975" lon="5.29768">
        <ele>268</ele>
        <time>2020-05-31T10:26:08.999Z</time>
      </trkpt>
      <trkpt lat="43.76974" lon="5.29771">
        <ele>268</ele>
        <time>2020-05-31T10:26:13.999Z</time>
      </trkpt>
      <trkpt lat="43.76974" lon="5.29773">
        <ele>268</ele>
        <time>2020-05-31T10:26:17.999Z</time>
      </trkpt>
      <trkpt lat="43.76975" lon="5.29784">
        <ele>268</ele>
        <time>2020-05-31T10:26:22.999Z</time>
      </trkpt>
      <trkpt lat="43.76974" lon="5.29792">
        <ele>266</ele>
        <time>2020-05-31T10:26:27.999Z</time>
      </trkpt>
      <trkpt lat="43.76973" lon="5.298">
        <ele>266</ele>
        <time>2020-05-31T10:26:32.999Z</time>
      </trkpt>
      <trkpt lat="43.76973" lon="5.29802">
        <ele>266</ele>
        <time>2020-05-31T10:26:37.999Z</time>
      </trkpt>
      <trkpt lat="43.76971" lon="5.29809">
        <ele>266</ele>
        <time>2020-05-31T10:26:42.999Z</time>
      </trkpt>
      <trkpt lat="43.76971" lon="5.29822">
        <ele>262</ele>
        <time>2020-05-31T10:26:46.999Z</time>
      </trkpt>
      <trkpt lat="43.7697" lon="5.29827">
        <ele>262</ele>
        <time>2020-05-31T10:26:51.999Z</time>
      </trkpt>
      <trkpt lat="43.76969" lon="5.29837">
        <ele>262</ele>
        <time>2020-05-31T10:26:55.999Z</time>
      </trkpt>
      <trkpt lat="43.7697" lon="5.29849">
        <ele>258</ele>
        <time>2020-05-31T10:27:00.999Z</time>
      </trkpt>
      <trkpt lat="43.76969" lon="5.29858">
        <ele>258</ele>
        <time>2020-05-31T10:27:05.999Z</time>
      </trkpt>
      <trkpt lat="43.76963" lon="5.29869">
        <ele>258</ele>
        <time>2020-05-31T10:27:10.999Z</time>
      </trkpt>
      <trkpt lat="43.7696" lon="5.29874">
        <ele>258</ele>
        <time>2020-05-31T10:27:15.999Z</time>
      </trkpt>
      <trkpt lat="43.76956" lon="5.29885">
        <ele>262</ele>
        <time>2020-05-31T10:27:19.999Z</time>
      </trkpt>
      <trkpt lat="43.76953" lon="5.29905">
        <ele>259</ele>
        <time>2020-05-31T10:27:24.999Z</time>
      </trkpt>
      <trkpt lat="43.76953" lon="5.2992">
        <ele>259</ele>
        <time>2020-05-31T10:27:29.999Z</time>
      </trkpt>
      <trkpt lat="43.76952" lon="5.29942">
        <ele>253</ele>
        <time>2020-05-31T10:27:34.999Z</time>
      </trkpt>
      <trkpt lat="43.76946" lon="5.29961">
        <ele>249</ele>
        <time>2020-05-31T10:27:39.999Z</time>
      </trkpt>
      <trkpt lat="43.76937" lon="5.29971">
        <ele>249</ele>
        <time>2020-05-31T10:27:44.999Z</time>
      </trkpt>
      <trkpt lat="43.7693" lon="5.29983">
        <ele>252</ele>
        <time>2020-05-31T10:27:49.999Z</time>
      </trkpt>
      <trkpt lat="43.7692" lon="5.29994">
        <ele>249</ele>
        <time>2020-05-31T10:27:53.999Z</time>
      </trkpt>
      <trkpt lat="43.76905" lon="5.30009">
        <ele>249</ele>
        <time>2020-05-31T10:27:58.999Z</time>
      </trkpt>
      <trkpt lat="43.76891" lon="5.30018">
        <ele>246</ele>
        <time>2020-05-31T10:28:03.999Z</time>
      </trkpt>
      <trkpt lat="43.76879" lon="5.30027">
        <ele>246</ele>
        <time>2020-05-31T10:28:07.999Z</time>
      </trkpt>
      <trkpt lat="43.76866" lon="5.30038">
        <ele>245</ele>
        <time>2020-05-31T10:28:12.999Z</time>
      </trkpt>
      <trkpt lat="43.7686" lon="5.30053">
        <ele>243</ele>
        <time>2020-05-31T10:28:17.999Z</time>
      </trkpt>
      <trkpt lat="43.76849" lon="5.3006">
        <ele>243</ele>
        <time>2020-05-31T10:28:22.999Z</time>
      </trkpt>
      <trkpt lat="43.76842" lon="5.30064">
        <ele>245</ele>
        <time>2020-05-31T10:28:26.999Z</time>
      </trkpt>
      <trkpt lat="43.7683" lon="5.30069">
        <ele>245</ele>
        <time>2020-05-31T10:28:31.999Z</time>
      </trkpt>
      <trkpt lat="43.76815" lon="5.30077">
        <ele>245</ele>
        <time>2020-05-31T10:28:36.999Z</time>
      </trkpt>
      <trkpt lat="43.76806" lon="5.30083">
        <ele>245</ele>
        <time>2020-05-31T10:28:40.999Z</time>
      </trkpt>
      <trkpt lat="43.76788" lon="5.30095">
        <ele>248</ele>
        <time>2020-05-31T10:28:45.999Z</time>
      </trkpt>
      <trkpt lat="43.76779" lon="5.30096">
        <ele>248</ele>
        <time>2020-05-31T10:28:50.999Z</time>
      </trkpt>
      <trkpt lat="43.76761" lon="5.30111">
        <ele>242</ele>
        <time>2020-05-31T10:28:55.999Z</time>
      </trkpt>
      <trkpt lat="43.76735" lon="5.30131">
        <ele>239</ele>
        <time>2020-05-31T10:29:00.999Z</time>
      </trkpt>
      <trkpt lat="43.76713" lon="5.3015">
        <ele>239</ele>
        <time>2020-05-31T10:29:04.999Z</time>
      </trkpt>
      <trkpt lat="43.76689" lon="5.30172">
        <ele>242</ele>
        <time>2020-05-31T10:29:09.999Z</time>
      </trkpt>
      <trkpt lat="43.76674" lon="5.30194">
        <ele>240</ele>
        <time>2020-05-31T10:29:13.999Z</time>
      </trkpt>
      <trkpt lat="43.76674" lon="5.30229">
        <ele>235</ele>
        <time>2020-05-31T10:29:18.999Z</time>
      </trkpt>
      <trkpt lat="43.76681" lon="5.30252">
        <ele>232</ele>
        <time>2020-05-31T10:29:23.999Z</time>
      </trkpt>
      <trkpt lat="43.76691" lon="5.30265">
        <ele>229</ele>
        <time>2020-05-31T10:29:28.999Z</time>
      </trkpt>
      <trkpt lat="43.76696" lon="5.30295">
        <ele>227</ele>
        <time>2020-05-31T10:29:33.999Z</time>
      </trkpt>
      <trkpt lat="43.76713" lon="5.30317">
        <ele>228</ele>
        <time>2020-05-31T10:29:38.999Z</time>
      </trkpt>
      <trkpt lat="43.76727" lon="5.30314">
        <ele>228</ele>
        <time>2020-05-31T10:29:43.998Z</time>
      </trkpt>
      <trkpt lat="43.76739" lon="5.30311">
        <ele>228</ele>
        <time>2020-05-31T10:29:48.998Z</time>
      </trkpt>
      <trkpt lat="43.76746" lon="5.3031">
        <ele>228</ele>
        <time>2020-05-31T10:29:53.998Z</time>
      </trkpt>
      <trkpt lat="43.76754" lon="5.30318">
        <ele>228</ele>
        <time>2020-05-31T10:34:57.999Z</time>
      </trkpt>
      <trkpt lat="43.76754" lon="5.30318">
        <ele>228</ele>
        <time>2020-05-31T10:35:02.999Z</time>
      </trkpt>
      <trkpt lat="43.76755" lon="5.30318">
        <ele>228</ele>
        <time>2020-05-31T10:35:07.999Z</time>
      </trkpt>
      <trkpt lat="43.76755" lon="5.30318">
        <ele>228</ele>
        <time>2020-05-31T10:35:12.999Z</time>
      </trkpt>
      <trkpt lat="43.76757" lon="5.30318">
        <ele>228</ele>
        <time>2020-05-31T10:35:16.999Z</time>
      </trkpt>
      <trkpt lat="43.7675" lon="5.30314">
        <ele>228</ele>
        <time>2020-05-31T10:38:03.999Z</time>
      </trkpt>
      <trkpt lat="43.7675" lon="5.30314">
        <ele>228</ele>
        <time>2020-05-31T10:38:07.999Z</time>
      </trkpt>
      <trkpt lat="43.76749" lon="5.30315">
        <ele>228</ele>
        <time>2020-05-31T10:38:12.999Z</time>
      </trkpt>
      <trkpt lat="43.76749" lon="5.30315">
        <ele>228</ele>
        <time>2020-05-31T10:38:17.999Z</time>
      </trkpt>
      <trkpt lat="43.76746" lon="5.30317">
        <ele>228</ele>
        <time>2020-05-31T10:38:22.999Z</time>
      </trkpt>
      <trkpt lat="43.76749" lon="5.30312">
        <ele>228</ele>
        <time>2020-05-31T10:42:17Z</time>
      </trkpt>
      <trkpt lat="43.76751" lon="5.30313">
        <ele>228</ele>
        <time>2020-05-31T10:42:22Z</time>
      </trkpt>
      <trkpt lat="43.76751" lon="5.30313">
        <ele>228</ele>
        <time>2020-05-31T10:42:26Z</time>
      </trkpt>
      <trkpt lat="43.76752" lon="5.30313">
        <ele>228</ele>
        <time>2020-05-31T10:42:30.999Z</time>
      </trkpt>
      <trkpt lat="43.76756" lon="5.30308">
        <ele>228</ele>
        <time>2020-05-31T10:42:34.999Z</time>
      </trkpt>
      <trkpt lat="43.76763" lon="5.30305">
        <ele>228</ele>
        <time>2020-05-31T10:42:38.999Z</time>
      </trkpt>
      <trkpt lat="43.76772" lon="5.30298">
        <ele>227</ele>
        <time>2020-05-31T10:42:43.999Z</time>
      </trkpt>
      <trkpt lat="43.76778" lon="5.30288">
        <ele>227</ele>
        <time>2020-05-31T10:42:47.999Z</time>
      </trkpt>
      <trkpt lat="43.76787" lon="5.30279">
        <ele>227</ele>
        <time>2020-05-31T10:42:52.999Z</time>
      </trkpt>
      <trkpt lat="43.76798" lon="5.30273">
        <ele>228</ele>
        <time>2020-05-31T10:42:57.999Z</time>
      </trkpt>
      <trkpt lat="43.76807" lon="5.30265">
        <ele>228</ele>
        <time>2020-05-31T10:43:02.999Z</time>
      </trkpt>
      <trkpt lat="43.76816" lon="5.30256">
        <ele>228</ele>
        <time>2020-05-31T10:43:07.999Z</time>
      </trkpt>
      <trkpt lat="43.76824" lon="5.30247">
        <ele>228</ele>
        <time>2020-05-31T10:43:11.999Z</time>
      </trkpt>
      <trkpt lat="43.76835" lon="5.30239">
        <ele>228</ele>
        <time>2020-05-31T10:43:16.999Z</time>
      </trkpt>
      <trkpt lat="43.76857" lon="5.30229">
        <ele>231</ele>
        <time>2020-05-31T10:43:21.999Z</time>
      </trkpt>
      <trkpt lat="43.7687" lon="5.30221">
        <ele>231</ele>
        <time>2020-05-31T10:43:26.999Z</time>
      </trkpt>
      <trkpt lat="43.7688" lon="5.30214">
        <ele>232</ele>
        <time>2020-05-31T10:43:31.999Z</time>
      </trkpt>
      <trkpt lat="43.76894" lon="5.30205">
        <ele>231</ele>
        <time>2020-05-31T10:43:36.999Z</time>
      </trkpt>
      <trkpt lat="43.76907" lon="5.30196">
        <ele>232</ele>
        <time>2020-05-31T10:43:41.999Z</time>
      </trkpt>
      <trkpt lat="43.76919" lon="5.30189">
        <ele>232</ele>
        <time>2020-05-31T10:43:46.999Z</time>
      </trkpt>
      <trkpt lat="43.76933" lon="5.30182">
        <ele>234</ele>
        <time>2020-05-31T10:43:51.999Z</time>
      </trkpt>
      <trkpt lat="43.76945" lon="5.30176">
        <ele>235</ele>
        <time>2020-05-31T10:43:56.999Z</time>
      </trkpt>
      <trkpt lat="43.76958" lon="5.30168">
        <ele>235</ele>
        <time>2020-05-31T10:44:01.999Z</time>
      </trkpt>
      <trkpt lat="43.7697" lon="5.3016">
        <ele>235</ele>
        <time>2020-05-31T10:44:06.999Z</time>
      </trkpt>
      <trkpt lat="43.76982" lon="5.30157">
        <ele>235</ele>
        <time>2020-05-31T10:44:11.999Z</time>
      </trkpt>
      <trkpt lat="43.76989" lon="5.30149">
        <ele>235</ele>
        <time>2020-05-31T10:44:16.999Z</time>
      </trkpt>
      <trkpt lat="43.76996" lon="5.3014">
        <ele>235</ele>
        <time>2020-05-31T10:44:21.999Z</time>
      </trkpt>
      <trkpt lat="43.77006" lon="5.30135">
        <ele>235</ele>
        <time>2020-05-31T10:44:26.999Z</time>
      </trkpt>
      <trkpt lat="43.77019" lon="5.30131">
        <ele>237</ele>
        <time>2020-05-31T10:44:31.999Z</time>
      </trkpt>
      <trkpt lat="43.77027" lon="5.30127">
        <ele>237</ele>
        <time>2020-05-31T10:44:36.999Z</time>
      </trkpt>
      <trkpt lat="43.77033" lon="5.30123">
        <ele>238</ele>
        <time>2020-05-31T10:44:41.999Z</time>
      </trkpt>
      <trkpt lat="43.77039" lon="5.30118">
        <ele>238</ele>
        <time>2020-05-31T10:44:45.999Z</time>
      </trkpt>
      <trkpt lat="43.77047" lon="5.30114">
        <ele>239</ele>
        <time>2020-05-31T10:44:50.998Z</time>
      </trkpt>
      <trkpt lat="43.77056" lon="5.30109">
        <ele>239</ele>
        <time>2020-05-31T10:44:55.998Z</time>
      </trkpt>
      <trkpt lat="43.77065" lon="5.30104">
        <ele>239</ele>
        <time>2020-05-31T10:45:00.998Z</time>
      </trkpt>
      <trkpt lat="43.77078" lon="5.30095">
        <ele>242</ele>
        <time>2020-05-31T10:45:05.998Z</time>
      </trkpt>
      <trkpt lat="43.7709" lon="5.30091">
        <ele>242</ele>
        <time>2020-05-31T10:45:10.998Z</time>
      </trkpt>
      <trkpt lat="43.77098" lon="5.30088">
        <ele>245</ele>
        <time>2020-05-31T10:45:15.998Z</time>
      </trkpt>
      <trkpt lat="43.77107" lon="5.30087">
        <ele>245</ele>
        <time>2020-05-31T10:45:20.998Z</time>
      </trkpt>
      <trkpt lat="43.7712" lon="5.30084">
        <ele>245</ele>
        <time>2020-05-31T10:45:25.998Z</time>
      </trkpt>
      <trkpt lat="43.77131" lon="5.30082">
        <ele>246</ele>
        <time>2020-05-31T10:45:30.998Z</time>
      </trkpt>
      <trkpt lat="43.77143" lon="5.3008">
        <ele>246</ele>
        <time>2020-05-31T10:45:35.998Z</time>
      </trkpt>
      <trkpt lat="43.77153" lon="5.30078">
        <ele>246</ele>
        <time>2020-05-31T10:45:39.998Z</time>
      </trkpt>
      <trkpt lat="43.77165" lon="5.30078">
        <ele>247</ele>
        <time>2020-05-31T10:45:44.998Z</time>
      </trkpt>
      <trkpt lat="43.77176" lon="5.30077">
        <ele>247</ele>
        <time>2020-05-31T10:45:49.998Z</time>
      </trkpt>
      <trkpt lat="43.77181" lon="5.30077">
        <ele>251</ele>
        <time>2020-05-31T10:45:54.998Z</time>
      </trkpt>
      <trkpt lat="43.77189" lon="5.30073">
        <ele>251</ele>
        <time>2020-05-31T10:45:59.998Z</time>
      </trkpt>
      <trkpt lat="43.77198" lon="5.30074">
        <ele>251</ele>
        <time>2020-05-31T10:46:04.998Z</time>
      </trkpt>
      <trkpt lat="43.77209" lon="5.30072">
        <ele>254</ele>
        <time>2020-05-31T10:46:08.998Z</time>
      </trkpt>
      <trkpt lat="43.77219" lon="5.30078">
        <ele>254</ele>
        <time>2020-05-31T10:46:13.998Z</time>
      </trkpt>
      <trkpt lat="43.77225" lon="5.30081">
        <ele>254</ele>
        <time>2020-05-31T10:46:17.998Z</time>
      </trkpt>
      <trkpt lat="43.7723" lon="5.3008">
        <ele>254</ele>
        <time>2020-05-31T10:46:22.998Z</time>
      </trkpt>
      <trkpt lat="43.77231" lon="5.30079">
        <ele>254</ele>
        <time>2020-05-31T10:46:26.998Z</time>
      </trkpt>
    </trkseg>
  </trk>
</gpx>